[[{"header":{"parameterUnit":"m.s-1","parameterCategory":1,"la1":30.6,"la2":28.766,"lo1":-90.7593,"lo2":-88.6598,"dy":0.0162,"dx":0.0183,"nx":116,"ny":114,"refTime":"2024-06-27T18:00:00:Z","depth":0,"parameterNumber":2,"parameterNumberName":"U-component_of_WINDS"},"data":[0.0,0.0,0.0,0.0,0.0,0.0,0.0,0.0,0.0,0.0,0.0,0.0,0.0,0.0,0.0,0.0,0.0,0.0,0.0,0.0,0.0,0.0,0.0,0.0,0.0,0.0,0.0,0.0,0.0,0.0,0.0,0.0,0.0,0.0,0.0,0.0,0.0,0.0,0.0,0.0,0.0,0.0,0.0,0.0,0.0,0.0,0.0,0.0,0.0,0.0,0.0,0.0,0.0,0.0,0.0,0.0,0.0,0.0,0.0,0.0,0.0,0.0,0.0,0.0,0.0,0.0,0.0,0.0,0.0,0.0,0.0,0.0,0.0,0.0,0.0,0.0,0.0,0.0,0.0,0.0,0.0,0.0,0.0,0.0,0.0,0.0,0.0,0.0,0.0,0.0,0.0,0.0,0.0,0.0,0.0,0.0,0.0,0.0,0.0,0.0,0.0,0.0,0.0,0.0,0.0,0.0,0.0,0.0,0.0,0.0,0.0,0.0,0.0,0.0,0.0,0.0,0.0,0.0,0.0,0.0,0.0,0.0,0.0,0.0,0.0,0.0,0.0,0.0,0.0,0.0,0.0,0.0,0.0,0.0,0.0,0.0,0.0,0.0,0.0,0.0,0.0,0.0,0.0,0.0,0.0,0.0,0.0,0.0,0.0,0.0,0.0,0.0,0.0,0.0,0.0,0.0,0.0,0.0,0.0,0.0,0.0,0.0,0.0,0.0,0.0,0.0,0.0,0.0,0.0,0.0,0.0,0.0,0.0,0.0,0.0,0.0,0.0,0.0,0.0,0.0,0.0,0.0,0.0,0.0,0.0,0.0,0.0,0.0,0.0,0.0,0.0,0.0,0.0,0.0,0.0,0.0,0.0,0.0,0.0,0.0,0.0,0.0,0.0,0.0,0.0,0.0,0.0,0.0,0.0,0.0,0.0,0.0,0.0,0.0,0.0,0.0,0.0,0.0,0.0,0.0,0.0,0.0,0.0,0.0,0.0,0.0,0.0,0.0,0.0,0.0,0.0,0.0,0.0,0.0,0.0,0.0,0.0,0.0,0.0,0.0,0.0,0.0,0.0,0.0,0.0,0.0,0.0,0.0,0.0,0.0,0.0,0.0,0.0,0.0,0.0,0.0,0.0,0.0,0.0,0.0,0.0,0.0,0.0,0.0,0.0,0.0,0.0,0.0,0.0,0.0,0.0,0.0,0.0,0.0,0.0,0.0,0.0,0.0,0.0,0.0,0.0,0.0,0.0,0.0,0.0,0.0,0.0,0.0,0.0,0.0,0.0,0.0,0.0,0.0,0.0,0.0,0.0,0.0,0.0,0.0,0.0,0.0,0.0,0.0,0.0,0.0,0.0,0.0,0.0,0.0,0.0,0.0,0.0,0.0,0.0,0.0,0.0,0.0,0.0,0.0,0.0,0.0,0.0,0.0,0.0,0.0,0.0,0.0,0.0,0.0,0.0,0.0,0.0,0.0,0.0,0.0,0.0,0.0,0.0,0.0,0.0,0.0,0.0,0.0,0.0,0.0,0.0,0.0,0.0,0.0,0.0,0.0,0.0,0.0,0.0,0.0,0.0,0.0,0.0,0.0,0.0,0.0,0.0,0.0,0.0,0.0,0.0,0.0,0.0,0.0,0.0,0.0,0.0,0.0,0.0,0.0,0.0,0.0,0.0,0.0,0.0,0.0,0.0,0.0,0.0,0.0,0.0,0.0,0.0,0.0,0.0,0.0,0.0,0.0,0.0,0.0,0.0,0.0,0.0,0.0,0.0,0.0,0.0,0.0,0.0,0.0,0.0,0.0,0.0,0.0,0.0,0.0,0.0,0.0,0.0,0.0,0.0,0.0,0.0,0.0,0.0,0.0,0.0,0.0,0.0,0.0,0.0,0.0,0.0,0.0,0.0,0.0,0.0,0.0,0.0,0.0,0.0,0.0,0.0,0.0,0.0,0.0,0.0,0.0,0.0,0.0,0.0,0.0,0.0,0.0,0.0,0.0,0.0,0.0,0.0,0.0,0.0,0.0,0.0,0.0,0.0,0.0,0.0,0.0,0.0,0.0,0.0,0.0,0.0,0.0,0.0,0.0,0.0,0.0,0.0,0.0,0.0,0.0,0.0,0.0,0.0,0.0,0.0,0.0,0.0,0.0,0.0,0.0,0.0,0.0,0.0,0.0,0.0,0.0,0.0,0.0,0.0,0.0,0.0,0.0,0.0,0.0,0.0,0.0,0.0,0.0,0.0,0.0,0.0,0.0,0.0,0.0,0.0,0.0,0.0,0.0,0.0,0.0,0.0,0.0,0.0,0.0,0.0,0.0,0.0,0.0,0.0,0.0,0.0,0.0,0.0,0.0,0.0,0.0,0.0,0.0,0.0,0.0,0.0,0.0,0.0,0.0,0.0,0.0,0.0,0.0,0.0,0.0,0.0,0.0,0.0,0.0,0.0,0.0,0.0,0.0,0.0,0.0,0.0,0.0,0.0,0.0,0.0,0.0,0.0,0.0,0.0,0.0,0.0,0.0,0.0,0.0,0.0,0.0,0.0,0.0,0.0,0.0,0.0,0.0,0.0,0.0,0.0,0.0,0.0,0.0,0.0,0.0,0.0,0.0,0.0,0.0,0.0,0.0,0.0,0.0,0.0,0.0,0.0,0.0,0.0,0.0,0.0,0.0,0.0,0.0,0.0,0.0,0.0,0.0,0.0,0.0,0.0,0.0,0.0,0.0,0.0,0.0,0.0,0.0,0.0,0.0,0.0,0.0,0.0,0.0,0.0,0.0,0.0,0.0,0.0,0.0,0.0,0.0,0.0,0.0,0.0,0.0,0.0,0.0,0.0,0.0,0.0,0.0,0.0,0.0,0.0,0.0,0.0,0.0,0.0,0.0,0.0,0.0,0.0,0.0,0.0,0.0,0.0,0.0,0.0,0.0,0.0,0.0,0.0,0.0,0.0,0.0,0.0,0.0,0.0,0.0,0.0,0.0,0.0,0.0,0.0,0.0,0.0,0.0,0.0,0.0,0.0,0.0,0.0,0.0,0.0,0.0,0.0,0.0,0.0,0.0,0.0,0.0,0.0,0.0,0.0,0.0,0.0,0.0,0.0,0.0,0.0,0.0,0.0,0.0,0.0,0.0,0.0,0.0,0.0,0.0,0.0,0.0,0.0,0.0,0.0,0.0,0.0,0.0,0.0,0.0,0.0,0.0,0.0,0.0,0.0,0.0,0.0,0.0,0.0,0.0,0.0,0.0,0.0,0.0,0.0,0.0,0.0,0.0,0.0,0.0,0.0,0.0,0.0,0.0,0.0,0.0,0.0,0.0,0.0,0.0,0.0,0.0,0.0,0.0,0.0,0.0,0.0,0.0,0.0,0.0,0.0,0.0,0.0,0.0,0.0,0.0,0.0,0.0,0.0,0.0,0.0,0.0,0.0,0.0,0.0,0.0,0.0,0.0,0.0,0.0,0.0,0.0,0.0,0.0,0.0,0.0,0.0,0.0,0.0,0.0,0.0,0.0,0.0,0.0,0.0,0.0,0.0,0.0,0.0,0.0,0.0,0.0,0.0,0.0,0.0,0.0,0.0,0.0,0.0,0.0,0.0,0.0,0.0,0.0,0.0,0.0,0.0,0.0,0.0,0.0,0.0,0.0,0.0,0.0,0.0,0.0,0.0,0.0,0.0,0.0,0.0,0.0,0.0,0.0,0.0,0.0,0.0,0.0,0.0,0.0,0.0,0.0,0.0,0.0,0.0,0.0,0.0,0.0,0.0,0.0,0.0,0.0,0.0,0.0,0.0,0.0,0.0,0.0,0.0,0.0,0.0,0.0,0.0,0.0,0.0,0.0,0.0,0.0,0.0,0.0,0.0,0.0,0.0,0.0,0.0,0.0,0.0,0.0,0.0,0.0,0.0,0.0,0.0,0.0,0.0,0.0,0.0,0.0,0.0,0.0,0.0,0.0,0.0,0.0,0.0,0.0,0.0,0.0,0.0,0.0,0.0,0.0,0.0,0.0,0.0,0.0,0.0,0.0,0.0,0.0,0.0,0.0,0.0,0.0,0.0,0.0,0.0,0.0,0.0,0.0,0.0,0.0,0.0,0.0,0.0,0.0,0.0,0.0,0.0,0.0,0.0,0.0,0.0,0.0,0.0,0.0,0.0,0.0,0.0,0.0,0.0,0.0,0.0,0.0,0.0,0.0,0.0,0.0,0.0,0.0,0.0,0.0,0.0,0.0,0.0,0.0,0.0,0.0,0.0,0.0,0.0,0.0,0.0,0.0,0.0,0.0,0.0,0.0,0.0,0.0,0.0,0.0,0.0,0.0,0.0,0.0,0.0,0.0,0.0,0.0,0.0,0.0,0.0,0.0,0.0,0.0,0.0,0.0,0.0,0.0,0.0,0.0,0.0,0.0,0.0,0.0,0.0,0.0,0.0,0.0,0.0,0.0,0.0,0.0,0.0,0.0,0.0,0.0,0.0,0.0,0.0,0.0,0.0,0.0,0.0,0.0,0.0,0.0,0.0,0.0,0.0,0.0,0.0,0.0,0.0,0.0,0.0,0.0,0.0,0.0,0.0,0.0,0.0,0.0,0.0,0.0,0.0,0.0,0.0,0.0,0.0,0.0,0.0,0.0,0.0,0.0,0.0,0.0,0.0,0.0,0.0,0.0,0.0,0.0,0.0,0.0,0.0,0.0,0.0,0.0,0.0,0.0,0.0,0.0,0.0,0.0,0.0,0.0,0.0,0.0,0.0,0.0,0.0,0.0,0.0,0.0,0.0,0.0,0.0,0.0,0.0,0.0,0.0,0.0,0.0,0.0,0.0,0.0,0.0,0.0,0.0,0.0,0.0,0.0,0.0,0.0,0.0,0.0,0.0,0.0,0.0,0.0,0.0,0.0,0.0,0.0,0.0,0.0,0.0,0.0,0.0,0.0,0.0,0.0,0.0,0.0,0.0,0.0,0.0,0.0,0.0,0.0,0.0,0.0,0.0,0.0,0.0,0.0,0.0,0.0,0.0,0.0,0.0,0.0,0.0,0.0,0.0,0.0,0.0,0.0,0.0,0.0,0.0,0.0,0.0,0.0,0.0,0.0,0.0,0.0,0.0,0.0,0.0,0.0,0.0,0.0,0.0,0.0,0.0,0.0,0.0,0.0,0.0,0.0,0.0,0.0,0.0,0.0,0.0,0.0,0.0,0.0,0.0,0.0,0.0,0.0,0.0,0.0,0.0,0.0,0.0,0.0,0.0,0.0,0.0,0.0,0.0,0.0,0.0,0.0,0.0,0.0,0.0,0.0,0.0,0.0,0.0,0.0,0.0,0.0,0.0,0.0,0.0,0.0,0.0,0.0,0.0,0.0,0.0,0.0,0.0,0.0,0.0,0.0,0.0,0.0,0.0,0.0,0.0,0.0,0.0,0.0,0.0,0.0,0.0,0.0,0.0,0.0,0.0,0.0,0.0,0.0,0.0,0.0,0.0,0.0,0.0,0.0,0.0,0.0,0.0,0.0,0.0,0.0,0.0,0.0,0.0,0.0,0.0,0.0,0.0,0.0,0.0,0.0,0.0,0.0,0.0,0.0,0.0,0.0,0.0,0.0,0.0,0.0,0.0,0.0,0.0,0.0,0.0,0.0,0.0,0.0,0.0,0.0,0.0,0.0,0.0,0.0,0.0,0.0,0.0,0.0,0.0,0.0,0.0,0.0,0.0,0.0,0.0,0.0,0.0,0.0,0.0,0.0,0.0,0.0,0.0,0.0,0.0,0.0,0.0,0.0,0.0,0.0,0.0,0.0,0.0,0.0,0.0,0.0,0.0,0.0,0.0,0.0,0.0,0.0,0.0,0.0,0.0,0.0,0.0,0.0,0.0,0.0,0.0,0.0,0.0,0.0,0.0,0.0,0.0,0.0,0.0,0.0,0.0,0.0,0.0,0.0,0.0,0.0,0.0,0.0,0.0,0.0,0.0,0.0,0.0,0.0,0.0,0.0,0.0,0.0,0.0,0.0,0.0,0.0,0.0,0.0,0.0,0.0,0.0,0.0,0.0,0.0,0.0,0.0,0.0,0.0,0.0,0.0,0.0,0.0,0.0,0.0,0.0,0.0,0.0,0.0,-2.6462,0.0,0.0,0.0,0.0,0.0,0.0,0.0,0.0,0.0,0.0,0.0,0.0,0.0,0.0,0.0,0.0,0.0,0.0,0.0,0.0,0.0,0.0,0.0,0.0,-1.4149,-1.4571,-1.6188,-1.6703,-1.7121,-1.7495,0.0,0.0,0.0,0.0,0.0,-1.6593,-1.6183,-1.6391,-1.721,-1.6383,-1.6608,-1.7772,-1.7704,-1.6895,-1.5466,0.0,0.0,0.0,0.0,0.0,0.0,0.0,0.0,0.0,0.0,0.0,0.0,0.0,0.0,0.0,0.0,0.0,0.0,0.0,0.0,0.0,0.0,0.0,0.0,0.0,0.0,0.0,0.0,0.0,0.0,0.0,0.0,0.0,0.0,0.0,0.0,0.0,0.0,0.0,0.0,0.0,0.0,0.0,0.0,0.0,0.0,0.0,0.0,0.0,0.0,0.0,0.0,0.0,0.0,0.0,0.0,0.0,0.0,0.0,0.0,0.0,0.0,0.0,0.0,0.0,0.0,0.0,0.0,0.0,0.0,0.0,-2.8558,0.0,0.0,0.0,0.0,0.0,0.0,0.0,0.0,0.0,0.0,0.0,0.0,0.0,0.0,0.0,0.0,0.0,0.0,0.0,0.0,0.0,-1.17,-1.5313,-1.4762,-1.4946,-1.6945,-1.7238,-1.7594,-1.828,0.0,0.0,0.0,0.0,-1.8354,-1.7746,-1.7087,-1.7485,-1.9022,-1.8568,-1.9532,-2.1819,-2.2492,-2.1018,0.0,-1.7199,0.0,0.0,0.0,0.0,0.0,0.0,0.0,0.0,0.0,0.0,0.0,0.0,0.0,0.0,0.0,0.0,0.0,0.0,0.0,0.0,0.0,0.0,0.0,0.0,0.0,0.0,0.0,0.0,0.0,0.0,0.0,0.0,0.0,0.0,0.0,0.0,0.0,0.0,0.0,0.0,0.0,0.0,0.0,0.0,0.0,0.0,0.0,0.0,0.0,0.0,0.0,0.0,0.0,0.0,0.0,0.0,0.0,0.0,0.0,0.0,0.0,0.0,0.0,-3.5377,-3.5988,-3.5607,-3.6297,-3.6617,-3.6495,-3.3952,-3.2571,-3.2017,0.0,0.0,0.0,0.0,0.0,0.0,0.0,0.0,0.0,0.0,0.0,0.0,0.0,0.0,0.0,0.0,0.0,0.0,0.0,0.0,-1.3561,-1.5496,-1.6757,-1.7601,-1.7906,-1.8574,-1.904,-1.9132,-1.921,0.0,0.0,-1.9491,-1.9507,-1.9476,-1.9375,-1.9757,-2.0676,-2.1917,-2.3355,-2.5003,0.0,0.0,0.0,-2.1569,-2.0653,0.0,0.0,0.0,0.0,0.0,0.0,0.0,0.0,0.0,0.0,0.0,0.0,0.0,0.0,0.0,0.0,0.0,0.0,0.0,0.0,0.0,0.0,0.0,0.0,0.0,0.0,0.0,0.0,0.0,0.0,0.0,0.0,0.0,0.0,0.0,0.0,0.0,0.0,0.0,0.0,0.0,0.0,-2.3811,-2.4108,0.0,0.0,0.0,0.0,0.0,0.0,0.0,0.0,0.0,0.0,0.0,0.0,0.0,-3.4641,-3.5385,-3.6048,-3.6726,-3.7396,-3.7654,-3.8128,-3.8708,-3.8936,-3.9073,-3.9118,-3.8828,0.0,-3.4551,-3.3578,0.0,0.0,0.0,0.0,0.0,0.0,0.0,0.0,0.0,0.0,0.0,0.0,0.0,0.0,0.0,0.0,0.0,0.0,0.0,0.0,0.0,-1.7674,-1.8456,-1.9373,-2.0225,-2.0509,0.0,0.0,0.0,-1.962,-1.9665,-1.9719,-1.9801,-2.0206,-2.1215,-2.2845,-2.4394,-2.5503,0.0,0.0,0.0,0.0,-2.4809,-2.3694,0.0,0.0,0.0,0.0,0.0,0.0,0.0,0.0,0.0,0.0,0.0,0.0,0.0,0.0,0.0,0.0,0.0,0.0,0.0,0.0,0.0,0.0,0.0,0.0,0.0,0.0,0.0,0.0,0.0,0.0,0.0,0.0,0.0,0.0,0.0,0.0,0.0,0.0,0.0,0.0,0.0,-2.2956,-2.5027,-2.5428,-2.6202,-2.6501,0.0,0.0,0.0,0.0,0.0,0.0,0.0,0.0,0.0,-3.4605,-3.5982,-3.7105,-3.7937,-3.8611,-3.9132,-3.9445,-3.9866,-4.0253,-4.0604,-4.0814,-4.0919,-4.0961,-4.1129,-4.0176,-3.834,-3.6594,-3.4549,-3.2444,0.0,0.0,0.0,0.0,-3.0688,-3.0836,0.0,0.0,0.0,0.0,0.0,0.0,0.0,0.0,0.0,0.0,0.0,0.0,-1.8078,-1.8585,-1.9282,-2.0678,0.0,0.0,0.0,0.0,0.0,-1.9936,-1.9797,-1.9831,-2.0037,-2.1124,-2.273,-2.4846,-2.6182,0.0,0.0,0.0,0.0,0.0,0.0,0.0,0.0,0.0,0.0,0.0,0.0,0.0,0.0,0.0,0.0,0.0,0.0,0.0,0.0,0.0,0.0,0.0,0.0,0.0,0.0,0.0,0.0,0.0,0.0,0.0,0.0,0.0,0.0,0.0,0.0,0.0,0.0,0.0,0.0,0.0,0.0,0.0,0.0,0.0,0.0,0.0,0.0,-2.4417,-2.6235,-2.7409,-2.8523,-2.9052,0.0,0.0,0.0,0.0,0.0,0.0,-3.3137,-3.5031,-3.6531,-3.7445,-3.8681,-3.9691,-4.0481,-4.106,-4.1293,-4.1099,-4.1639,-4.1797,-4.1604,-4.1858,-4.1945,-4.1945,-4.2163,-4.1907,-4.1212,-3.9231,-3.7183,-3.524,-3.4583,-3.3513,-3.2456,-3.3668,-3.3798,-3.3732,0.0,0.0,0.0,0.0,0.0,0.0,0.0,0.0,0.0,0.0,0.0,-1.6517,0.0,0.0,0.0,0.0,0.0,0.0,0.0,0.0,0.0,-2.0734,-2.0129,-2.0061,-2.0637,-2.2749,0.0,0.0,0.0,0.0,0.0,0.0,0.0,0.0,0.0,0.0,0.0,0.0,0.0,0.0,0.0,0.0,0.0,0.0,0.0,0.0,0.0,0.0,0.0,0.0,0.0,0.0,0.0,0.0,0.0,0.0,0.0,0.0,0.0,0.0,0.0,0.0,0.0,0.0,0.0,0.0,0.0,0.0,0.0,0.0,0.0,0.0,0.0,0.0,0.0,0.0,0.0,0.0,0.0,-3.0409,-3.0628,0.0,0.0,0.0,0.0,-3.2684,-3.4759,-3.6363,-3.7164,-3.8575,-4.0008,-4.1458,-4.2193,-4.2921,-4.3658,-4.3711,-4.3377,-4.2693,-4.2728,-4.2342,-4.1604,-4.1736,-4.1801,-4.1823,-4.2019,-4.2086,-4.1979,-4.1248,-4.0003,-3.8576,-3.8504,-3.7987,-3.7256,-3.7327,-3.7735,-3.8245,0.0,0.0,0.0,-1.1338,-1.1338,-1.1338,-1.1338,-1.22,-1.3411,-1.5068,-1.642,0.0,0.0,0.0,0.0,0.0,0.0,0.0,0.0,0.0,-2.0679,-2.1219,-2.0122,-2.0502,-2.2703,-2.4543,-2.5957,0.0,0.0,0.0,0.0,0.0,0.0,0.0,0.0,0.0,0.0,0.0,0.0,0.0,0.0,0.0,0.0,0.0,0.0,0.0,0.0,0.0,0.0,0.0,0.0,0.0,0.0,0.0,0.0,0.0,0.0,0.0,0.0,0.0,0.0,0.0,0.0,0.0,0.0,0.0,0.0,0.0,0.0,0.0,0.0,0.0,0.0,0.0,0.0,0.0,0.0,0.0,0.0,-3.2083,-3.3544,0.0,-3.4738,-3.5384,-3.6007,-3.6523,-3.7193,-3.8373,-4.0173,-4.0669,-4.1587,-4.3089,-4.3383,-4.3623,-4.3904,-4.3904,-4.3763,-4.35,-4.3044,-4.2658,-4.2359,-4.1965,-4.1801,-4.1801,-4.197,-4.2051,-4.2034,-4.1792,-4.1129,-4.0289,-4.0289,-3.9789,-3.9075,-3.9075,-3.9156,-3.923,-1.131,-1.0851,0.0,-1.0857,-1.1113,-1.1393,-1.1668,-1.2842,-1.4273,-1.5894,-1.7264,-1.8816,0.0,0.0,0.0,0.0,0.0,0.0,0.0,0.0,-2.1307,-2.1823,-2.1152,-2.2017,-2.461,-2.5903,0.0,0.0,0.0,0.0,0.0,0.0,0.0,0.0,0.0,0.0,0.0,0.0,0.0,0.0,0.0,0.0,-2.0633,0.0,0.0,0.0,0.0,0.0,0.0,0.0,0.0,0.0,0.0,0.0,0.0,0.0,0.0,0.0,0.0,0.0,0.0,0.0,0.0,0.0,0.0,0.0,0.0,0.0,0.0,0.0,0.0,0.0,0.0,0.0,0.0,0.0,0.0,0.0,-3.2973,-3.4327,-3.6025,-3.7163,-3.7429,-3.8024,-3.8636,-3.9186,-3.9594,-4.0496,-4.2044,-4.254,-4.3254,-4.4273,-4.4553,-4.4676,-4.4676,-4.4676,-4.4553,-4.429,-4.3535,-4.3044,-4.278,-4.2062,-4.1736,-4.1736,-4.1862,-4.1923,-4.1923,-4.1984,-4.1771,-4.1418,-4.1421,-4.1141,-4.0717,-4.0717,-4.0597,-4.0435,-0.9692,-0.9695,-0.9951,-1.0728,-1.1558,-1.2357,-1.3133,-1.3987,-1.5105,-1.6682,-1.7646,0.0,0.0,0.0,0.0,0.0,0.0,0.0,0.0,-2.2936,-2.253,-2.2501,-2.3313,-2.4545,-2.6192,0.0,0.0,0.0,0.0,0.0,0.0,0.0,0.0,0.0,0.0,0.0,0.0,0.0,0.0,0.0,0.0,0.0,-2.3668,0.0,0.0,0.0,0.0,0.0,0.0,0.0,0.0,0.0,0.0,0.0,0.0,0.0,0.0,0.0,0.0,0.0,0.0,0.0,0.0,0.0,0.0,0.0,0.0,0.0,0.0,0.0,0.0,0.0,0.0,0.0,0.0,0.0,-3.0984,-3.2674,-3.4818,-3.7214,-3.7943,-3.8599,-3.947,-4.012,-4.0512,-4.0573,-4.1973,-4.2851,-4.2886,-4.429,-4.5115,-4.5133,-4.5828,-4.6196,-4.6196,-4.6196,-4.5828,-4.5115,-4.4325,-4.3553,-4.2816,-4.2008,-4.1622,-4.1604,-4.1736,-4.178,-4.1801,-4.1923,-4.1984,-4.2005,-4.2079,-4.2166,-4.2287,-4.2308,-4.2225,-4.2061,-0.9695,-0.9695,-0.9772,-0.9988,-1.1182,-1.2163,-1.2327,-1.4032,-1.5672,-1.6753,-1.8628,0.0,0.0,0.0,0.0,0.0,0.0,0.0,-2.3522,0.0,-2.1736,-2.2403,-2.4316,0.0,0.0,0.0,0.0,0.0,0.0,0.0,0.0,0.0,0.0,0.0,0.0,0.0,0.0,0.0,0.0,0.0,0.0,0.0,-2.461,0.0,0.0,0.0,0.0,0.0,0.0,0.0,0.0,0.0,0.0,0.0,0.0,0.0,0.0,0.0,0.0,0.0,0.0,0.0,0.0,0.0,0.0,0.0,0.0,0.0,0.0,0.0,0.0,0.0,0.0,0.0,0.0,-3.4251,-3.4007,-3.5758,-3.7692,-3.9373,-3.9715,-4.003,-4.0669,-4.1501,-4.1995,-4.2018,-4.2998,-4.3851,-4.4448,-4.4869,-4.5361,-4.5881,-4.6091,-4.6196,-4.6196,-4.6196,-4.6091,-4.5881,-4.5133,-4.436,-4.357,-4.2816,-4.2166,-4.1604,-4.1648,-4.1648,-4.1648,-4.1692,-4.1776,-4.1862,-4.2037,-4.2124,-4.2184,-4.2267,-4.2225,-4.21,-0.971,-0.9703,-0.9808,-1.0131,-1.1251,-1.2195,-1.2453,-1.427,-1.5921,-1.6801,-1.9005,0.0,0.0,0.0,0.0,0.0,0.0,0.0,-2.2938,-2.2313,-2.2524,0.0,0.0,0.0,0.0,0.0,0.0,0.0,0.0,0.0,0.0,0.0,0.0,0.0,0.0,0.0,0.0,0.0,0.0,0.0,0.0,0.0,-2.6947,-2.6638,-2.6118,-2.5385,-2.3888,-2.3483,-2.3434,-2.1874,0.0,0.0,0.0,0.0,0.0,0.0,0.0,0.0,0.0,0.0,0.0,0.0,0.0,0.0,0.0,0.0,0.0,0.0,0.0,0.0,0.0,0.0,0.0,0.0,-3.5042,-3.6863,-3.7464,-3.845,-3.9424,-4.0254,-4.0574,-4.1019,-4.1719,-4.2277,-4.2765,-4.3127,-4.3933,-4.4606,-4.508,-4.5396,-4.5758,-4.6196,-4.6196,-4.6196,-4.6196,-4.6196,-4.6196,-4.6196,-4.5466,-4.4676,-4.3869,-4.3149,-4.2359,0.0,-4.1604,-4.1604,-4.1604,-4.1604,-4.1648,0.0,0.0,0.0,0.0,0.0,-4.2246,-4.2184,-0.9728,-0.978,-1.0062,-1.0783,-1.1631,-1.2447,-1.3101,-1.4575,-1.5915,-1.6776,0.0,0.0,0.0,0.0,0.0,0.0,0.0,0.0,0.0,0.0,0.0,-2.5734,0.0,0.0,0.0,0.0,0.0,0.0,0.0,0.0,0.0,0.0,0.0,0.0,0.0,0.0,0.0,0.0,0.0,0.0,0.0,0.0,-2.9751,-2.9016,-2.8348,-2.7619,-2.6281,-2.5866,-2.5778,-2.4385,0.0,0.0,0.0,0.0,0.0,0.0,0.0,0.0,0.0,0.0,0.0,0.0,0.0,0.0,0.0,0.0,0.0,0.0,0.0,0.0,0.0,0.0,0.0,0.0,-3.7542,-3.9211,-4.0713,-4.0629,-4.0429,-4.0429,-4.0916,-4.1591,-4.2486,-4.2667,-4.3086,-4.3951,-4.4782,-4.522,-4.522,0.0,0.0,0.0,0.0,-4.6196,-4.6196,-4.6196,-4.6196,-4.6196,-4.5554,-4.4817,-4.4009,-4.336,-4.2587,-4.1745,-4.1745,-4.1692,-4.1604,-4.1604,-4.1604,-4.1604,-4.1736,-4.1931,-4.2103,-4.2246,-4.2287,-4.2287,-0.985,-1.0225,-1.071,-1.0875,-1.2095,-1.3094,-1.3189,-1.4569,-1.5888,-1.6705,-1.8356,0.0,0.0,0.0,0.0,0.0,0.0,0.0,0.0,0.0,0.0,0.0,0.0,0.0,0.0,0.0,0.0,0.0,0.0,0.0,0.0,0.0,0.0,0.0,0.0,0.0,0.0,0.0,0.0,0.0,0.0,0.0,-3.0599,-2.984,-2.9584,-2.9405,-2.802,-2.7603,-2.7606,-2.683,-2.5563,-2.4325,-2.419,0.0,0.0,0.0,0.0,0.0,0.0,0.0,0.0,0.0,0.0,0.0,0.0,0.0,0.0,0.0,0.0,0.0,0.0,0.0,0.0,-3.8071,-3.9544,-4.0704,-4.1492,-4.1354,-4.1193,-4.1193,-4.1293,-4.1654,-4.237,-4.3074,-4.3844,-4.4662,-4.5481,-4.5986,-4.5986,-4.6126,0.0,-4.6196,-4.6196,-4.6196,-4.6196,-4.6196,-4.6196,-4.6196,0.0,0.0,-4.4852,-4.4729,-4.3904,-4.257,-4.257,-4.2201,-4.1604,-4.1604,-4.1604,-4.1604,-4.1736,-4.1884,-4.203,-4.21,-4.2145,-4.2145,-1.0934,-1.1223,-1.1503,-1.1503,-1.2504,-1.3429,-1.3795,-1.4849,-1.5736,-1.6144,-1.7957,0.0,0.0,0.0,0.0,0.0,0.0,0.0,0.0,0.0,0.0,0.0,0.0,0.0,0.0,0.0,0.0,0.0,0.0,0.0,0.0,0.0,0.0,0.0,0.0,0.0,0.0,0.0,0.0,0.0,0.0,0.0,-3.1989,-3.0876,-3.0352,-3.0056,-2.9018,-2.8779,-2.883,-2.8129,-2.7102,-2.6027,-2.5633,-2.4353,-2.2922,0.0,0.0,0.0,0.0,0.0,0.0,0.0,0.0,0.0,0.0,0.0,0.0,0.0,0.0,-3.3451,0.0,0.0,-3.8224,-3.9931,-4.0576,-4.1132,-4.1799,-4.1688,-4.1471,-4.1403,-4.1403,-4.1834,-4.294,-4.3512,-4.4283,-4.5457,-4.5944,-4.6196,-4.6196,-4.6196,-4.6196,-4.6196,-4.6196,-4.6196,-4.6196,-4.6196,-4.6196,-4.6196,-4.6196,-4.581,-4.5098,-4.5098,-4.4273,-4.2816,-4.2816,-4.2342,-4.1604,-4.1604,-4.1604,-4.1604,-4.167,-4.1776,-4.1905,-4.2012,-4.2058,-4.2103,-1.21,-1.24,-1.2537,-1.2357,-1.2999,-1.3747,-1.4409,-1.4995,-1.5426,-1.5583,-1.7293,-1.8585,-1.8781,-1.9394,-2.0104,0.0,0.0,0.0,0.0,0.0,0.0,0.0,0.0,0.0,0.0,0.0,0.0,0.0,0.0,0.0,0.0,0.0,0.0,0.0,0.0,0.0,0.0,0.0,0.0,0.0,0.0,0.0,-3.2972,-3.1647,-3.0892,-3.0438,-2.9612,-2.936,-2.9345,-2.8703,-2.7886,-2.7017,-2.6325,-2.5085,-2.3869,-2.3652,-2.3261,0.0,0.0,0.0,0.0,0.0,0.0,0.0,0.0,0.0,-3.3056,-3.4334,-3.5999,-3.7602,-3.8769,-3.9471,-4.0239,-4.1343,-4.1299,-4.131,-4.1917,-4.1776,-4.156,-4.1448,-4.1448,-4.199,-4.3389,-4.3746,-4.4483,-4.5881,-4.6126,-4.6196,-4.6196,-4.6196,-4.6196,-4.6196,-4.6196,-4.6196,-4.6196,-4.6196,-4.6196,-4.6196,-4.6196,-4.5881,-4.5326,-4.5326,-4.4571,-4.3237,-4.2938,-4.2342,-4.1604,-4.1604,-4.1604,-4.1604,-4.1604,-4.167,-4.178,-4.1902,-4.1991,-4.2058,-1.2501,-1.3412,-1.4077,-1.3296,-1.382,-1.4396,-1.4483,-1.4526,-1.4794,-1.5517,-1.5844,-1.6287,-1.6997,-1.7162,-1.7752,-1.9093,0.0,0.0,0.0,0.0,0.0,0.0,0.0,0.0,0.0,0.0,0.0,0.0,0.0,0.0,0.0,0.0,0.0,0.0,0.0,0.0,0.0,0.0,0.0,0.0,0.0,0.0,-3.2337,-3.1581,-3.1359,-3.126,-2.9888,-2.9025,-2.8549,-2.8506,-2.7468,-2.6155,-2.6103,-2.5453,-2.4544,-2.3815,0.0,-2.4516,-2.446,-2.5598,0.0,-2.9758,-3.0021,-3.1401,0.0,0.0,-3.623,-3.9877,-3.9981,-3.9871,-4.1231,-4.1324,-4.1441,-4.2255,-4.2095,-4.1899,-4.1987,-4.1776,-4.1604,-4.1582,-4.1582,-4.1933,-4.281,-4.3518,-4.4273,-4.5168,-4.5828,-4.6196,-4.6196,-4.6196,-4.6196,-4.6196,-4.6196,-4.6196,-4.6196,-4.6196,-4.6196,-4.6196,-4.6196,-4.6161,-4.6074,-4.6074,-4.5617,-4.4764,-4.3395,-4.2342,-4.1604,-4.1604,-4.1604,-4.1604,-4.1604,-4.1604,-4.1648,-4.1758,-4.1841,-4.1845,-1.3672,-1.4264,-1.4526,-1.4133,-1.4294,-1.4506,-1.45,-1.4441,-1.452,-1.4867,-1.5315,-1.5721,-1.6062,-1.6979,-1.7741,-1.8168,-2.0535,0.0,0.0,0.0,0.0,0.0,0.0,0.0,0.0,0.0,0.0,0.0,0.0,0.0,0.0,0.0,0.0,0.0,0.0,0.0,0.0,0.0,0.0,0.0,0.0,0.0,-3.2342,-3.1671,-3.0959,-3.0187,-2.9093,-2.8567,0.0,0.0,-2.6975,-2.5995,-2.6023,-2.5473,-2.4832,-2.4968,-2.5585,0.0,-2.7918,0.0,0.0,0.0,-3.4996,-3.6956,-4.0046,-4.0375,-4.0443,-4.1932,-4.2139,-4.2173,-4.2468,-4.2355,-4.2289,0.0,-4.2261,-4.2055,-4.2055,-4.1927,-4.1819,-4.1819,-4.1776,-4.1987,-4.2728,-4.3465,-4.4237,-4.5045,-4.5775,-4.6196,-4.6196,-4.6196,-4.6196,-4.6196,-4.6196,-4.6196,-4.6196,-4.6196,-4.6196,-4.6196,-4.6196,-4.6196,-4.6196,-4.6196,-4.5793,-4.501,-4.3483,-4.2622,-4.2271,-4.1797,-4.1604,-4.1604,-4.1604,-4.1604,-4.1604,-4.167,-4.1736,-4.1819,-1.4006,-1.4279,-1.437,-1.4311,-1.4251,-1.4272,-1.4475,-1.4453,-1.4423,-1.4399,-1.4915,-1.5357,-1.5602,-1.7135,-1.8067,-1.7822,-1.9977,-2.168,0.0,0.0,0.0,0.0,0.0,0.0,0.0,0.0,0.0,0.0,0.0,0.0,0.0,0.0,0.0,0.0,0.0,0.0,0.0,0.0,0.0,0.0,0.0,0.0,-3.223,-3.153,-3.0353,-2.9021,-2.8445,-2.7998,0.0,0.0,-2.611,-2.5574,-2.5366,-2.5051,-2.5028,-2.632,-2.779,-2.9268,-3.0546,0.0,0.0,-3.5935,-3.8525,-4.0916,-4.1327,-4.2336,-4.3189,-4.3144,-4.3471,-4.3631,-4.3196,-4.2975,0.0,-4.2566,-4.2325,-4.2145,-4.2103,-4.2034,-4.2005,-4.2005,-4.1923,-4.2027,-4.2497,-4.3365,-4.4132,-4.4729,-4.5653,-4.6302,-4.6512,-4.6319,-4.6302,-4.6512,-4.6319,-4.6196,-4.6196,-4.6196,-4.6196,-4.6196,-4.6196,-4.6196,-4.6196,-4.6196,-4.5793,-4.5027,-4.3693,-4.2991,-4.2745,-4.1938,-4.1604,-4.1604,-4.1604,-4.1604,-4.1604,-4.1604,-4.1648,-4.1736,-1.2806,-1.3095,-1.3607,-1.3551,-1.3485,-1.3663,-1.4389,-1.4488,-1.4465,-1.4417,-1.4411,-1.4763,-1.5599,-1.7248,-1.8249,-1.8107,-1.9708,-2.132,-2.271,-2.3533,0.0,0.0,0.0,0.0,0.0,0.0,0.0,0.0,0.0,0.0,0.0,0.0,0.0,0.0,0.0,0.0,0.0,0.0,0.0,0.0,0.0,0.0,-3.1741,-3.0923,-2.9675,-2.8325,-2.8306,0.0,0.0,0.0,-2.4663,-2.4511,-2.3791,-2.4095,0.0,-2.7696,-3.0697,0.0,0.0,0.0,-3.6998,-3.7054,-3.8939,-4.1229,-4.2844,-4.3202,-4.34,-4.4113,-4.407,-4.3816,-4.3549,-4.3214,-4.2901,-4.2649,-4.243,-4.2246,-4.2124,-4.2034,-4.2005,-4.2005,-4.2005,-4.1962,0.0,-4.3077,-4.3904,-4.3921,-4.5337,-4.653,-4.7309,-4.6618,-4.6547,-4.7327,-4.66,-4.6196,-4.6196,-4.6196,-4.6196,-4.6196,-4.6196,-4.6196,-4.6196,-4.6196,-4.5793,-4.5045,-4.422,-4.3465,-4.2745,-4.1938,-4.1604,-4.1604,-4.1604,-4.1604,-4.1604,-4.1604,-4.1604,-4.1604,-1.4031,-1.341,-1.2964,-1.3476,-1.3467,-1.3476,-1.3732,-1.4187,-1.4678,-1.5209,-1.5693,0.0,0.0,0.0,0.0,0.0,-2.0048,-2.0925,-2.1327,-2.307,0.0,0.0,0.0,0.0,0.0,0.0,0.0,0.0,0.0,0.0,0.0,0.0,0.0,0.0,0.0,0.0,0.0,0.0,0.0,0.0,0.0,0.0,-3.0254,-3.0601,-2.9035,-2.6635,0.0,0.0,0.0,0.0,0.0,0.0,-2.4126,0.0,0.0,-2.8386,0.0,0.0,0.0,0.0,-3.8281,-3.9952,-4.1417,-4.275,-4.3857,-4.4074,-4.3971,-4.3638,-4.3434,-4.3066,-4.231,-4.1794,-4.1614,-4.205,-4.1858,-4.1799,-4.2313,-4.2361,-4.2299,-4.2202,-4.2601,0.0,0.0,0.0,0.0,-4.3904,-4.5319,-4.6547,-4.7345,-4.7134,-4.7345,-4.8117,-4.7863,-4.7723,-4.7723,-4.7257,-4.7011,-4.6993,-4.646,-4.6196,-4.6196,-4.6196,-4.5793,-4.5062,-4.4237,-4.3483,-4.2745,-4.1938,-4.1604,-4.1604,-4.1604,-4.1604,-4.1604,-4.1604,-4.1604,-4.1604,-1.3962,-1.3194,-1.2565,-1.3108,-1.3096,0.0,0.0,0.0,0.0,0.0,0.0,0.0,0.0,0.0,0.0,0.0,0.0,-2.048,-2.07,0.0,0.0,0.0,0.0,0.0,0.0,0.0,0.0,0.0,0.0,0.0,0.0,0.0,0.0,0.0,0.0,0.0,0.0,0.0,0.0,0.0,0.0,0.0,-2.9099,-2.9719,-2.84,0.0,0.0,0.0,0.0,0.0,0.0,0.0,0.0,0.0,0.0,0.0,0.0,-3.4122,0.0,-3.8544,-4.0071,-4.1986,-4.3106,-4.3857,-4.4369,-4.4275,-4.3919,-4.3352,-4.267,-4.1974,-4.1272,-4.0498,-4.0309,-4.1406,-4.1216,-4.1347,-4.2462,-4.2817,-4.2938,-4.2859,-4.3414,-4.3829,0.0,0.0,0.0,-4.4419,-4.5526,-4.6547,-4.7345,-4.7134,-4.745,-4.846,-4.8257,-4.8117,-4.8117,-4.7643,-4.7257,-4.6958,-4.6442,-4.6196,-4.6196,-4.6196,-4.5793,-4.5062,-4.4237,-4.3483,-4.2745,-4.1938,-4.1604,-4.1604,-4.1604,-4.1604,-4.1604,-4.1604,-4.1604,-4.1604,-1.2781,-1.2504,-1.243,0.0,0.0,0.0,0.0,0.0,0.0,0.0,0.0,0.0,0.0,0.0,0.0,0.0,0.0,0.0,0.0,0.0,0.0,0.0,0.0,0.0,-2.5615,-2.632,0.0,0.0,0.0,0.0,0.0,0.0,0.0,0.0,0.0,0.0,0.0,0.0,0.0,0.0,0.0,0.0,-2.8407,-2.8444,0.0,0.0,0.0,0.0,0.0,0.0,0.0,0.0,0.0,0.0,0.0,0.0,0.0,-3.8281,-3.845,-4.024,-4.2267,-4.3144,-4.3951,-4.4482,-4.4444,-4.382,-4.32,-4.3069,-4.1702,-4.0461,0.0,0.0,-3.9038,-4.071,-4.0616,-4.0923,-4.2694,-4.3464,-4.3814,0.0,0.0,0.0,0.0,0.0,0.0,-4.5364,0.0,-4.6547,-4.7345,-4.667,-4.6968,-4.8495,-4.7836,-4.7467,-4.752,-4.7432,-4.7011,-4.6196,-4.6196,-4.6196,-4.6196,-4.6196,-4.5775,-4.4992,-4.4237,-4.3465,-4.2693,-4.192,-4.1604,-4.1604,-4.1604,-4.1604,-4.1604,-4.1604,-4.1604,-4.1604,0.0,0.0,0.0,0.0,0.0,0.0,0.0,0.0,0.0,0.0,0.0,0.0,0.0,0.0,0.0,0.0,0.0,0.0,0.0,0.0,0.0,0.0,0.0,0.0,0.0,0.0,0.0,0.0,0.0,0.0,0.0,0.0,0.0,0.0,0.0,0.0,0.0,0.0,0.0,0.0,0.0,0.0,-2.8464,0.0,0.0,0.0,0.0,0.0,0.0,0.0,0.0,0.0,0.0,0.0,-3.1585,0.0,0.0,-3.7943,-4.039,-4.1986,-4.3163,-4.3975,-4.435,-4.4332,-4.3745,-4.2938,-4.1798,-3.9971,-3.8739,-3.7638,-3.6339,0.0,0.0,-4.0181,-4.0666,0.0,-4.4507,-4.4389,0.0,0.0,0.0,-4.5692,-4.567,-4.6145,0.0,0.0,-4.6238,-4.6547,-4.7345,-4.7204,-4.7801,-4.9346,-4.8626,-4.8521,-4.91,-4.7959,-4.7011,-4.6196,-4.6196,-4.6196,-4.6196,-4.6196,-4.546,-4.4185,-4.3992,-4.3131,-4.1903,-4.1692,-4.1604,-4.1604,-4.1604,-4.1604,-4.1604,-4.1604,-4.1604,-4.1604,0.0,0.0,0.0,0.0,0.0,0.0,0.0,0.0,0.0,0.0,0.0,0.0,0.0,0.0,0.0,0.0,0.0,0.0,0.0,0.0,0.0,0.0,0.0,0.0,0.0,0.0,0.0,0.0,0.0,0.0,0.0,0.0,0.0,0.0,0.0,0.0,0.0,0.0,0.0,0.0,0.0,0.0,0.0,0.0,0.0,0.0,0.0,0.0,0.0,0.0,0.0,-2.9756,-3.1829,-3.2964,-3.4081,-3.6742,0.0,-3.9746,-4.198,-4.32,-4.3951,-4.4388,-4.4219,-4.367,-4.2468,-4.1267,-3.9677,-3.7188,-3.6036,0.0,0.0,0.0,0.0,0.0,0.0,0.0,-4.4766,-4.4983,-4.5066,0.0,-4.635,0.0,-4.6651,-4.6798,-4.6865,0.0,-4.6806,-4.6991,-4.7362,-4.7397,-4.7941,-4.9135,-4.8433,-4.824,-4.8679,-4.7485,-4.6635,-4.6196,-4.6196,-4.6196,-4.6196,-4.5863,-4.5062,-4.3869,0.0,-4.2728,-4.1604,-4.1604,-4.1604,-4.1604,-4.1604,-4.1604,-4.1604,-4.1604,-4.1604,-4.1604,0.0,0.0,0.0,0.0,0.0,0.0,0.0,0.0,0.0,0.0,0.0,0.0,0.0,0.0,0.0,0.0,0.0,0.0,0.0,0.0,0.0,0.0,0.0,0.0,0.0,0.0,0.0,0.0,0.0,0.0,0.0,0.0,0.0,0.0,0.0,0.0,0.0,0.0,0.0,0.0,0.0,0.0,0.0,0.0,0.0,0.0,0.0,0.0,0.0,0.0,-3.0526,-3.1885,-3.4197,-3.6077,-3.7768,-3.9439,-4.0985,-4.2361,-4.3219,-4.397,-4.4501,-4.4501,-4.382,-4.2693,-4.1022,-3.9164,-3.7106,-3.4625,0.0,0.0,-3.0769,0.0,-3.4704,-3.6596,0.0,-4.1132,-4.4448,-4.5443,-4.6046,-4.6633,-4.7291,-4.7636,-4.7511,-4.7205,-4.702,-4.6998,-4.7423,-4.7544,-4.7289,-4.7264,-4.7538,-4.8162,-4.7678,-4.7345,-4.7239,-4.6547,-4.6196,-4.6196,-4.6196,-4.6144,-4.6021,-4.5396,-4.4606,-4.3711,0.0,0.0,-4.1604,-4.1604,-4.1604,-4.1604,-4.1604,-4.1604,-4.1604,-4.1604,-4.1604,-4.1604,0.0,0.0,0.0,0.0,0.0,0.0,0.0,0.0,0.0,0.0,0.0,0.0,0.0,0.0,0.0,0.0,0.0,0.0,0.0,0.0,0.0,0.0,0.0,0.0,0.0,0.0,0.0,0.0,0.0,0.0,0.0,0.0,0.0,0.0,0.0,0.0,0.0,0.0,0.0,0.0,0.0,0.0,0.0,0.0,0.0,0.0,0.0,0.0,0.0,0.0,-3.261,-3.521,-3.631,-3.7824,-3.9477,-4.1116,-4.2299,-4.3257,-4.4083,-4.4388,-4.4501,-4.4501,-4.3356,-4.1811,-4.019,-3.7448,0.0,0.0,0.0,-3.0039,-2.9007,-3.1398,0.0,-3.7527,0.0,0.0,0.0,0.0,-4.6159,0.0,0.0,0.0,0.0,0.0,0.0,0.0,0.0,-4.7534,-4.6603,-4.6463,-4.646,-4.66,-4.7116,-4.7081,-4.6407,-4.6267,-4.6196,-4.6196,-4.6196,-4.5881,-4.5291,-4.5168,-4.4325,-4.2991,-4.2868,0.0,-4.1604,-4.1604,-4.1604,-4.1604,-4.1604,-4.1604,-4.1604,-4.1604,-4.1604,-4.1604,0.0,0.0,0.0,0.0,0.0,0.0,0.0,-1.8133,-1.9513,-2.1048,-2.0915,-2.0619,-2.0494,-2.0039,0.0,0.0,0.0,0.0,0.0,0.0,0.0,0.0,0.0,0.0,0.0,0.0,0.0,0.0,0.0,0.0,0.0,0.0,0.0,0.0,0.0,0.0,0.0,0.0,0.0,0.0,0.0,0.0,0.0,0.0,0.0,0.0,0.0,0.0,0.0,0.0,-3.1505,-3.5082,-3.7622,-3.8951,-4.0002,-4.2074,-4.2975,-4.3482,-4.4275,-4.4501,-4.4388,-4.3989,-4.2618,-4.0741,-3.8244,0.0,0.0,0.0,0.0,-2.8134,-2.7255,0.0,0.0,0.0,0.0,0.0,0.0,0.0,0.0,0.0,0.0,0.0,0.0,0.0,0.0,0.0,0.0,-4.7382,-4.7137,-4.7009,-4.6741,-4.6319,-4.6614,-4.6582,-4.6196,-4.6196,-4.6196,-4.6196,-4.581,-4.5449,-4.508,-4.4273,-4.35,-4.2798,-4.2359,0.0,-4.1604,-4.1604,-4.1604,-4.1604,-4.1604,-4.1604,-4.1604,-4.1604,-4.1604,-4.1604,0.0,0.0,0.0,0.0,0.0,0.0,0.0,-1.9624,-2.1016,-2.2371,-2.2469,-2.2184,-2.1496,-2.0577,-1.9913,0.0,0.0,0.0,0.0,0.0,0.0,0.0,0.0,0.0,0.0,0.0,0.0,0.0,0.0,0.0,0.0,0.0,0.0,0.0,0.0,0.0,0.0,0.0,0.0,0.0,0.0,0.0,0.0,0.0,0.0,0.0,0.0,0.0,0.0,0.0,-2.9555,-3.3062,-3.6644,-3.8486,-3.9702,-4.1661,-4.2731,-4.3444,-4.4083,-4.4369,-4.4313,-4.3501,-4.1905,-3.969,-3.6374,-3.3531,0.0,0.0,0.0,-2.6783,-2.6272,0.0,0.0,0.0,0.0,0.0,0.0,0.0,0.0,0.0,0.0,0.0,0.0,0.0,0.0,0.0,0.0,0.0,-4.751,-4.7431,-4.7075,-4.644,-4.6319,-4.6221,-4.6196,-4.6196,-4.6126,-4.5951,-4.5378,-4.494,-4.4571,-4.336,-4.271,-4.2517,-4.1885,0.0,0.0,-4.1604,-4.1604,-4.1604,-4.1604,-4.1604,-4.1604,-4.1604,-4.1604,-4.1604,0.0,0.0,0.0,0.0,0.0,0.0,0.0,-1.9288,-2.1621,-2.2566,-2.2418,-2.2294,-2.2446,-2.1572,-2.0652,0.0,0.0,0.0,0.0,0.0,0.0,0.0,0.0,0.0,0.0,0.0,0.0,0.0,0.0,0.0,0.0,0.0,0.0,0.0,0.0,0.0,0.0,0.0,0.0,0.0,0.0,0.0,0.0,0.0,0.0,0.0,0.0,0.0,0.0,0.0,0.0,-2.9376,-3.1286,-3.4888,-3.8469,-3.8694,0.0,0.0,-4.3388,-4.3951,-4.4313,-4.3501,-4.1486,-3.8826,-3.5488,0.0,0.0,0.0,-2.6053,-2.6311,-2.6952,-2.8575,0.0,0.0,0.0,0.0,0.0,0.0,0.0,0.0,0.0,0.0,0.0,0.0,0.0,0.0,0.0,0.0,-4.672,-4.6696,-4.6589,-4.6423,-4.6398,-4.6326,-4.6196,-4.6196,-4.5863,-4.5203,-4.5133,-4.4378,-4.3026,-4.2868,-4.2412,-4.171,-4.1639,0.0,0.0,-4.1604,-4.1604,-4.1604,-4.1604,-4.1604,-4.1604,-4.1604,-4.1604,-4.1604,0.0,0.0,0.0,0.0,0.0,0.0,-1.787,-2.0015,-2.197,-2.3255,-2.3301,-2.3219,-2.3255,-2.2515,-2.1441,-2.0045,0.0,0.0,0.0,0.0,0.0,0.0,0.0,0.0,0.0,0.0,0.0,0.0,0.0,0.0,0.0,0.0,0.0,0.0,0.0,0.0,0.0,0.0,0.0,0.0,0.0,0.0,0.0,0.0,0.0,0.0,0.0,0.0,0.0,0.0,0.0,0.0,-2.8013,-3.056,0.0,0.0,-3.8863,-4.0722,-4.275,-4.3163,-4.2924,-4.2605,-4.0647,-3.8075,-3.5248,0.0,0.0,-2.7104,-2.6314,-2.6255,-2.7054,-2.8143,-2.9673,0.0,0.0,0.0,0.0,0.0,0.0,0.0,0.0,0.0,0.0,0.0,0.0,0.0,0.0,0.0,-4.5544,-4.5818,-4.578,-4.525,-4.5093,-4.4976,-4.4947,-4.4858,-4.4676,-4.4378,-4.3939,-4.3395,-4.2798,-4.2306,-4.1903,-4.1604,-4.1604,0.0,0.0,-4.1604,-4.1604,-4.1604,-4.1604,-4.1604,-4.1604,-4.1604,-4.1604,-4.1604,0.0,0.0,0.0,0.0,0.0,-1.7293,-1.8538,-2.0359,-2.1987,-2.305,-2.3388,-2.3498,-2.3443,-2.2697,-2.1734,-2.0541,-2.0236,0.0,0.0,0.0,0.0,0.0,0.0,0.0,0.0,0.0,0.0,0.0,0.0,0.0,0.0,0.0,0.0,0.0,0.0,0.0,0.0,0.0,0.0,0.0,0.0,0.0,0.0,0.0,0.0,0.0,0.0,0.0,0.0,0.0,0.0,0.0,0.0,0.0,0.0,0.0,-3.6603,-3.851,-4.0854,-4.158,-4.1529,-4.1054,-3.9239,-3.6948,0.0,0.0,-2.8913,-2.7469,-2.6547,-2.6311,-2.7355,-2.8022,-2.8951,0.0,-3.1325,-3.2826,-3.6254,0.0,0.0,0.0,0.0,0.0,0.0,0.0,0.0,0.0,0.0,0.0,0.0,-4.4785,-4.4854,-4.4547,-4.4284,-4.4147,-4.4101,-4.3968,-4.3781,-4.357,-4.3061,-4.2693,-4.2429,-4.1868,-4.1604,-4.1604,0.0,0.0,0.0,-4.1604,-4.1604,-4.1604,-4.1604,-4.1604,-4.1604,-4.1604,-4.1604,-4.1604,0.0,0.0,0.0,0.0,0.0,0.0,-1.7815,-1.9964,-2.1586,-2.1523,-2.2154,-2.2665,-2.2803,-2.19,-2.1354,-2.1472,-2.0769,0.0,0.0,0.0,0.0,0.0,0.0,0.0,0.0,0.0,0.0,0.0,0.0,0.0,0.0,0.0,0.0,0.0,0.0,0.0,0.0,0.0,0.0,0.0,0.0,0.0,-2.9011,0.0,0.0,0.0,0.0,0.0,0.0,0.0,0.0,0.0,0.0,0.0,0.0,0.0,-3.4073,-3.73,-3.7269,-3.9006,-4.0434,-3.8841,-3.7171,-3.5266,0.0,-3.0199,-2.8154,-2.7284,-2.6512,-2.648,-2.8097,-2.8388,-2.8951,-3.0631,-3.2282,0.0,0.0,0.0,0.0,0.0,0.0,0.0,0.0,0.0,0.0,0.0,0.0,0.0,0.0,-4.3611,-4.3927,-4.4567,-4.4401,-4.4238,-4.4101,-4.3968,-4.3535,-4.2793,-4.2816,-4.2394,-4.1622,-4.1604,-4.1604,0.0,0.0,0.0,0.0,-4.1604,-4.1604,-4.1604,-4.1604,-4.1604,-4.1604,-4.1604,-4.1604,-4.1604,0.0,0.0,0.0,0.0,0.0,0.0,0.0,-1.895,-2.0234,-2.1354,-2.1705,-2.208,-2.2735,-2.1974,-2.1447,-2.15,-2.075,0.0,0.0,0.0,0.0,0.0,0.0,0.0,0.0,0.0,0.0,-2.5091,-2.687,0.0,0.0,0.0,0.0,0.0,0.0,0.0,0.0,0.0,0.0,0.0,0.0,-2.8376,-2.9069,0.0,0.0,0.0,0.0,0.0,0.0,0.0,0.0,0.0,0.0,0.0,0.0,-2.7452,0.0,0.0,-3.5132,-3.6119,-3.6419,-3.5276,-3.4577,-3.3675,-3.1719,-3.0246,-2.9043,-2.8163,-2.7806,-2.7796,-2.8313,-2.8885,-2.9814,-3.1466,0.0,0.0,0.0,0.0,0.0,0.0,0.0,0.0,0.0,0.0,0.0,0.0,0.0,0.0,0.0,-4.2925,-4.2849,-4.2875,-4.2778,-4.2648,-4.252,-4.2409,-4.2219,-4.199,-4.199,-4.185,-4.1604,-4.1604,0.0,0.0,0.0,0.0,0.0,-4.1604,-4.1604,-4.1604,-4.1604,-4.1604,-4.1604,-4.1604,-4.1604,-4.1604,0.0,0.0,0.0,0.0,0.0,0.0,0.0,-1.8265,-1.936,-2.0412,-2.0831,-2.137,-2.2216,-2.1543,-2.1293,-2.1947,-2.1235,0.0,0.0,0.0,0.0,0.0,0.0,0.0,0.0,-2.3118,-2.4788,-2.6162,-2.7599,-2.8744,-2.9555,0.0,0.0,0.0,0.0,0.0,0.0,0.0,0.0,0.0,-2.7395,-2.7906,-2.8618,0.0,0.0,0.0,0.0,0.0,0.0,0.0,0.0,0.0,0.0,0.0,0.0,0.0,-2.7941,-3.0009,0.0,-3.2958,-3.3186,-3.2307,-3.1798,-3.1232,-3.019,-2.9109,-2.8318,-2.8378,-2.8172,-2.8134,-2.8772,-2.9326,-3.003,-3.1026,0.0,0.0,0.0,0.0,0.0,0.0,0.0,0.0,0.0,0.0,0.0,0.0,0.0,0.0,0.0,-4.2706,-4.2465,-4.2103,-4.1991,-4.1862,-4.1714,-4.1542,-4.1475,-4.1515,-4.1515,-4.156,-4.1604,-4.1604,0.0,0.0,0.0,0.0,0.0,-4.1604,-4.1604,-4.1604,-4.1604,-4.1604,-4.1604,-4.1604,-4.1604,-4.1604,0.0,0.0,0.0,0.0,0.0,0.0,0.0,-1.7825,-1.8857,-1.8972,-1.9696,-2.0519,-2.1331,-2.075,-2.0927,-2.2489,0.0,0.0,0.0,0.0,0.0,0.0,0.0,0.0,0.0,-2.3687,-2.5375,-2.7807,-2.8746,-2.9643,-3.0479,-2.9674,-2.8835,0.0,0.0,0.0,0.0,0.0,0.0,0.0,-2.6632,-2.7099,0.0,0.0,0.0,0.0,0.0,0.0,0.0,0.0,0.0,0.0,0.0,0.0,0.0,0.0,0.0,0.0,0.0,-2.9676,-3.066,-2.9775,-2.894,-2.8312,-2.8256,-2.7119,0.0,-2.8003,-2.7759,-2.7786,-2.9401,-2.9654,-2.971,-3.0,0.0,0.0,0.0,0.0,0.0,0.0,0.0,0.0,0.0,0.0,0.0,0.0,0.0,0.0,0.0,-4.2881,-4.2609,-4.2145,-4.1931,-4.1736,-4.1582,-4.134,-4.1255,-4.1403,-4.1403,-4.1471,-4.1582,-4.1604,0.0,0.0,0.0,0.0,0.0,-4.1604,-4.1604,-4.1604,-4.1604,-4.1604,-4.1604,-4.1604,-4.1604,-4.1604,0.0,0.0,0.0,0.0,0.0,0.0,0.0,0.0,0.0,0.0,-1.9184,-1.9623,-2.0481,-2.0404,-2.0462,0.0,0.0,0.0,0.0,0.0,0.0,0.0,0.0,0.0,0.0,-2.397,-2.5688,-2.69,-2.8448,-2.9615,-3.0428,-3.0281,-2.9385,-2.7923,-2.7764,0.0,0.0,0.0,0.0,0.0,-2.6684,-2.6771,0.0,0.0,0.0,0.0,-2.6048,-2.6063,0.0,0.0,0.0,0.0,0.0,0.0,0.0,0.0,-2.563,-2.5702,-2.603,0.0,-2.8121,-2.6534,-2.6892,-2.7452,0.0,-2.6814,0.0,0.0,0.0,-2.8435,-2.9495,-2.9212,-2.9804,0.0,0.0,0.0,0.0,0.0,0.0,0.0,0.0,0.0,0.0,0.0,0.0,0.0,0.0,0.0,0.0,-4.3105,-4.2768,-4.2335,-4.2044,-4.174,-4.1448,-4.1277,-4.1209,-4.1255,-4.134,-4.1426,-4.1448,-4.156,0.0,0.0,0.0,0.0,-4.1604,-4.1604,-4.1604,-4.1604,-4.1604,-4.1604,-4.1604,-4.1604,-4.1604,-4.1604,0.0,0.0,0.0,0.0,0.0,0.0,0.0,0.0,0.0,0.0,0.0,0.0,0.0,0.0,0.0,0.0,0.0,0.0,0.0,0.0,0.0,0.0,0.0,0.0,0.0,-2.4442,-2.5953,-2.7204,-2.8539,-2.9634,-3.0455,-3.0471,-2.9593,-2.7913,-2.7141,0.0,0.0,0.0,0.0,0.0,-2.6109,0.0,0.0,0.0,0.0,0.0,-2.4564,-2.4613,0.0,-2.5635,-2.602,-2.5981,0.0,0.0,0.0,0.0,-2.5351,-2.5351,-2.5351,-2.6502,-2.7458,-2.6492,-2.6825,-2.7286,-2.679,0.0,0.0,0.0,0.0,0.0,-2.8875,0.0,0.0,0.0,0.0,0.0,0.0,0.0,0.0,0.0,0.0,0.0,0.0,0.0,0.0,0.0,0.0,0.0,0.0,-4.3426,-4.3087,-4.2693,-4.2358,-4.192,-4.1403,-4.1244,-4.1152,-4.1152,-4.1238,-4.1267,-4.1318,-4.1448,-4.1515,0.0,0.0,0.0,-4.1604,-4.1604,-4.1604,-4.1604,-4.1604,-4.1604,-4.1604,-4.1604,-4.1604,-4.1604,0.0,0.0,0.0,0.0,0.0,0.0,0.0,0.0,0.0,0.0,0.0,0.0,0.0,0.0,0.0,0.0,0.0,0.0,0.0,0.0,0.0,0.0,0.0,0.0,-2.424,-2.4947,-2.6207,-2.8072,-2.8813,-2.9624,-3.0481,-3.0616,-2.9714,-2.7903,-2.6298,0.0,0.0,0.0,0.0,-2.541,-2.541,0.0,0.0,0.0,0.0,0.0,0.0,0.0,0.0,-2.4513,-2.5135,-2.5404,-2.6024,0.0,0.0,0.0,0.0,0.0,-2.5485,-2.6708,-2.7828,-2.7585,-2.749,-2.7392,0.0,0.0,0.0,0.0,0.0,0.0,0.0,0.0,0.0,0.0,0.0,0.0,0.0,0.0,0.0,0.0,0.0,0.0,0.0,0.0,0.0,0.0,0.0,0.0,0.0,-4.3763,-4.3494,-4.3105,-4.279,-4.2279,-4.1609,-4.133,-4.1163,-4.1117,-4.1117,-4.1146,-4.1186,-4.1318,-4.1403,0.0,0.0,0.0,-4.1604,-4.1604,-4.1604,-4.1604,-4.1604,-4.1604,-4.1604,-4.1604,-4.1604,-4.1604,0.0,0.0,0.0,0.0,0.0,0.0,0.0,0.0,0.0,0.0,0.0,0.0,0.0,0.0,0.0,0.0,0.0,0.0,0.0,0.0,0.0,0.0,0.0,-2.4144,-2.5096,-2.525,-2.6486,-2.892,-2.9055,-2.9553,-3.0428,-3.116,-3.0232,-2.7861,-2.6868,-2.6039,0.0,0.0,0.0,-2.541,0.0,0.0,0.0,0.0,0.0,0.0,0.0,0.0,0.0,-2.3116,-2.4138,-2.5192,-2.4663,0.0,0.0,0.0,0.0,0.0,-2.5823,-2.7532,-2.8396,-2.7092,-2.7165,-2.7373,0.0,0.0,0.0,0.0,0.0,0.0,0.0,0.0,0.0,0.0,0.0,0.0,0.0,0.0,0.0,0.0,0.0,0.0,0.0,0.0,0.0,0.0,0.0,0.0,0.0,-4.4051,-4.3825,-4.3592,-4.332,-4.2958,-4.2498,-4.1852,-4.1426,-4.1186,-4.1186,-4.1175,-4.114,-4.1312,-4.1403,0.0,0.0,-4.1604,-4.1604,-4.1604,-4.1604,-4.1604,-4.1604,-4.1604,-4.1604,-4.1604,-4.1604,-4.1604,0.0,0.0,0.0,0.0,0.0,0.0,0.0,0.0,0.0,0.0,0.0,0.0,0.0,0.0,0.0,0.0,0.0,0.0,0.0,0.0,0.0,0.0,-2.4797,-2.5222,-2.6032,-2.6515,-2.7557,-2.9216,-2.9629,-3.0053,-3.0441,-2.9894,-2.9026,-2.7841,-2.6497,-2.5698,-2.5346,0.0,0.0,-2.5393,0.0,0.0,0.0,0.0,0.0,0.0,0.0,0.0,0.0,0.0,-2.3623,-2.4586,-2.4225,0.0,0.0,0.0,0.0,0.0,-2.4801,-2.6452,-2.7736,-2.7867,-2.9029,-3.0046,0.0,0.0,0.0,0.0,0.0,0.0,0.0,0.0,0.0,0.0,0.0,0.0,0.0,0.0,0.0,0.0,0.0,0.0,0.0,0.0,0.0,0.0,0.0,0.0,0.0,0.0,-4.4124,-4.3918,-4.373,-4.3461,-4.3142,-4.2575,-4.1963,-4.1323,-4.1198,-4.1099,-4.1,-4.1146,-4.1244,-4.1295,0.0,-4.1538,-4.1604,-4.1604,-4.1604,-4.1604,-4.1604,-4.1604,-4.1604,-4.1604,-4.1604,-4.1552,0.0,0.0,0.0,0.0,0.0,0.0,0.0,0.0,0.0,0.0,0.0,0.0,0.0,0.0,0.0,0.0,0.0,0.0,0.0,0.0,-2.3922,-2.4134,-2.5232,-2.6192,-2.6993,-2.7453,-2.8324,-2.9605,-3.0221,-3.0515,-3.0477,-2.8902,-2.797,-2.7547,-2.6207,-2.55,0.0,-2.5356,-2.5384,-2.5384,0.0,0.0,0.0,0.0,0.0,0.0,0.0,0.0,0.0,0.0,0.0,0.0,0.0,0.0,0.0,-2.3163,-2.2574,-2.2562,-2.377,-2.5181,-2.6742,-2.8522,0.0,-3.1423,0.0,0.0,0.0,0.0,0.0,0.0,0.0,0.0,0.0,0.0,0.0,0.0,0.0,0.0,0.0,0.0,0.0,0.0,0.0,0.0,0.0,0.0,0.0,0.0,0.0,0.0,-4.4335,-4.4199,-4.4051,-4.3865,-4.36,-4.3196,-4.2518,-4.1596,-4.1358,-4.1169,-4.1012,-4.1099,-4.1152,-4.1209,-4.1318,-4.1426,-4.156,-4.156,-4.156,-4.1604,-4.1604,-4.1499,-4.1341,-4.1341,-4.1218,-4.099,0.0,0.0,0.0,0.0,0.0,0.0,0.0,0.0,0.0,0.0,0.0,0.0,0.0,0.0,0.0,0.0,0.0,0.0,0.0,0.0,-2.3433,-2.4245,-2.5897,-2.7145,-2.788,-2.7191,-2.8004,-3.0518,-3.0552,-3.0564,-3.0472,-2.9473,-2.8184,-2.6678,0.0,0.0,0.0,0.0,-2.5308,-2.5308,-2.5308,0.0,0.0,0.0,0.0,0.0,0.0,0.0,0.0,0.0,0.0,0.0,0.0,0.0,-2.2011,-2.2686,-2.1755,-2.1013,-2.3434,-2.4639,-2.5817,-2.8288,0.0,0.0,0.0,0.0,0.0,0.0,0.0,0.0,0.0,0.0,0.0,0.0,0.0,0.0,0.0,0.0,0.0,0.0,0.0,0.0,0.0,0.0,0.0,0.0,0.0,0.0,0.0,0.0,0.0,-4.4468,-4.4344,-4.4131,-4.3865,-4.3478,-4.2884,-4.2136,-4.1892,-4.1604,-4.1358,-4.1249,-4.1209,-4.1209,-4.1209,-4.1295,-4.1426,-4.1426,-4.1493,-4.1604,-4.1604,-4.1165,-4.0573,-4.0573,-4.0112,-3.9459,0.0,0.0,0.0,0.0,0.0,0.0,0.0,0.0,0.0,0.0,0.0,0.0,0.0,0.0,0.0,0.0,0.0,0.0,0.0,0.0,-2.2583,-2.3447,-2.4644,-2.5679,-2.6489,-2.7743,-2.9124,-3.0653,-3.0075,-3.0029,-3.0463,-2.8517,0.0,0.0,0.0,0.0,0.0,0.0,-2.5308,-2.5308,-2.5308,-2.4288,0.0,0.0,0.0,0.0,0.0,0.0,0.0,0.0,-2.0843,-2.1516,-2.1336,-2.1432,-2.1551,-2.1359,-2.0855,-2.0682,-2.2202,-2.3948,-2.5799,-2.7672,0.0,0.0,0.0,0.0,0.0,0.0,0.0,0.0,0.0,0.0,0.0,0.0,0.0,0.0,0.0,0.0,0.0,0.0,0.0,0.0,0.0,0.0,0.0,0.0,0.0,0.0,0.0,0.0,0.0,-4.4426,-4.4358,-4.418,-4.3897,-4.3614,-4.3267,-4.2807,-4.2295,-4.1899,-4.1574,-4.148,-4.1408,-4.1318,-4.1232,-4.1016,-4.0704,-4.0704,-4.0513,-4.0161,-4.0161,-4.0007,-3.9743,-3.9743,-3.9568,-3.9234,0.0,0.0,0.0,0.0,0.0,0.0,0.0,0.0,0.0,0.0,0.0,0.0,0.0,0.0,0.0,0.0,0.0,0.0,0.0,0.0,-2.2,-2.2608,-2.37,-2.4588,-2.5188,-2.7433,-2.889,-2.9506,-2.9094,-2.905,-2.9296,0.0,0.0,0.0,0.0,0.0,0.0,0.0,0.0,-2.5308,-2.5308,-2.4288,0.0,0.0,0.0,0.0,0.0,0.0,0.0,0.0,-2.0666,-2.107,-2.0789,-2.0928,-2.1127,-2.0806,-2.0932,-2.1306,-2.1871,-2.3702,-2.5824,0.0,0.0,0.0,0.0,0.0,0.0,0.0,0.0,0.0,0.0,0.0,0.0,0.0,0.0,0.0,0.0,0.0,0.0,0.0,0.0,0.0,0.0,0.0,0.0,0.0,0.0,0.0,0.0,0.0,0.0,0.0,-4.4344,-4.4192,-4.3976,-4.3779,-4.3563,-4.3322,-4.2611,-4.2167,-4.1984,-4.1827,-4.153,-4.1147,-4.0974,-4.0533,-3.9896,-3.9901,-3.969,-3.9284,-3.9284,-3.9126,-3.8915,-3.8915,-3.8778,-3.8497,0.0,0.0,0.0,0.0,0.0,0.0,0.0,0.0,0.0,0.0,0.0,0.0,0.0,0.0,0.0,0.0,0.0,0.0,0.0,-2.1269,-2.1787,0.0,0.0,-2.428,-2.4287,-2.5962,-2.687,-2.6915,-2.7633,-2.7582,-2.6834,-2.7557,0.0,0.0,0.0,0.0,0.0,0.0,0.0,0.0,-2.5288,-2.4269,-2.2797,0.0,0.0,0.0,0.0,0.0,0.0,0.0,-2.0304,-2.0442,-2.1313,-2.0992,-2.0475,-2.1345,-2.2215,-2.2874,-2.2723,-2.4036,0.0,0.0,0.0,0.0,0.0,0.0,0.0,0.0,0.0,0.0,0.0,0.0,0.0,0.0,0.0,0.0,0.0,0.0,0.0,0.0,0.0,0.0,0.0,0.0,0.0,0.0,0.0,0.0,0.0,0.0,0.0,0.0,-4.4354,-4.4218,-4.4091,-4.3939,-4.3779,-4.3577,-4.277,-4.2465,-4.2571,-4.2231,-4.1534,-4.0577,-4.0381,-3.9787,-3.899,-3.9041,-3.9164,-3.9266,-3.9266,-3.8775,-3.8093,-3.8093,-3.7619,-3.7007,0.0,0.0,0.0,0.0,0.0,0.0,0.0,0.0,0.0,0.0,0.0,0.0,0.0,0.0,0.0,0.0,0.0,0.0,0.0,0.0,0.0,0.0,0.0,0.0,0.0,0.0,-2.4716,-2.7738,-2.7408,-2.7381,0.0,0.0,0.0,-2.5841,0.0,0.0,0.0,0.0,0.0,0.0,-2.4221,-2.3413,-2.1947,0.0,0.0,0.0,0.0,0.0,0.0,0.0,0.0,0.0,-2.0597,-2.0939,-2.1147,-2.0783,-2.1736,-2.2759,-2.2096,0.0,0.0,0.0,0.0,0.0,0.0,0.0,0.0,0.0,0.0,0.0,0.0,0.0,0.0,0.0,0.0,0.0,0.0,0.0,0.0,0.0,0.0,0.0,0.0,0.0,0.0,0.0,0.0,0.0,0.0,0.0,0.0,0.0,-4.384,-4.344,-4.3256,-4.2653,-4.2251,-4.206,-4.1804,-4.1877,-4.2141,-4.1341,-4.066,-4.0093,-3.9788,-3.9154,-3.8252,-3.7717,-3.7571,-3.7672,-3.7672,-3.7552,-3.7341,-3.7341,-3.72,-3.7007,0.0,0.0,0.0,0.0,0.0,0.0,0.0,0.0,0.0,0.0,0.0,-1.8753,0.0,0.0,0.0,0.0,0.0,0.0,0.0,0.0,0.0,0.0,0.0,0.0,0.0,-2.2091,-2.3515,0.0,0.0,0.0,0.0,0.0,0.0,-2.6485,0.0,-2.637,0.0,0.0,0.0,0.0,-2.339,-2.2765,-2.1566,0.0,0.0,0.0,0.0,0.0,0.0,0.0,0.0,0.0,-2.0308,-2.0666,-2.1047,-2.0877,-2.203,-2.34,-2.3488,0.0,0.0,0.0,0.0,0.0,0.0,0.0,0.0,0.0,0.0,0.0,0.0,0.0,0.0,0.0,0.0,0.0,0.0,0.0,0.0,0.0,0.0,0.0,0.0,0.0,0.0,0.0,0.0,0.0,0.0,0.0,0.0,0.0,-4.2955,-4.2637,-4.2501,-4.1992,-4.1673,-4.1549,-4.1222,-4.1151,-4.1346,-4.0862,-4.0293,-3.9603,-3.8841,-3.8151,-3.7551,-3.698,-3.6829,-3.6928,-3.6928,-3.695,-3.7007,-3.7007,-3.7007,-3.7007,0.0,0.0,-1.5403,-1.5403,0.0,0.0,0.0,0.0,0.0,0.0,-1.7363,-1.8182,0.0,0.0,0.0,-2.0396,0.0,0.0,0.0,0.0,0.0,0.0,0.0,0.0,0.0,0.0,0.0,0.0,0.0,0.0,0.0,0.0,-2.6921,-2.7483,0.0,-2.7852,0.0,0.0,0.0,-2.2579,-2.2732,-2.2234,-2.1405,-2.155,0.0,0.0,0.0,0.0,0.0,0.0,0.0,0.0,-2.0308,-2.0346,-2.0542,-2.1263,-2.2716,-2.4412,0.0,0.0,0.0,0.0,0.0,0.0,0.0,0.0,0.0,0.0,0.0,0.0,0.0,0.0,0.0,0.0,0.0,0.0,0.0,0.0,0.0,0.0,0.0,0.0,0.0,0.0,0.0,0.0,0.0,0.0,0.0,0.0,0.0,-4.2004,-4.1876,-4.1793,-4.1793,-4.1669,-4.1591,0.0,-4.078,-4.0361,-4.0275,-4.0588,-4.0153,-3.91,-3.7732,-3.7089,-3.7007,-3.6806,-3.6766,-3.6809,-3.6809,-3.6871,-3.6987,-3.6987,-3.6987,-3.7007,0.0,0.0,-1.5404,-1.5408,0.0,0.0,0.0,0.0,-1.6472,-1.6654,-1.744,-1.8046,-1.8222,-1.9021,0.0,-1.9566,-2.014,0.0,0.0,0.0,0.0,0.0,0.0,0.0,0.0,0.0,0.0,0.0,0.0,0.0,0.0,0.0,0.0,-2.4076,0.0,-2.5456,0.0,0.0,0.0,-2.089,-2.1659,-2.1398,-2.0636,-2.1338,-2.1054,0.0,0.0,0.0,0.0,0.0,0.0,0.0,-2.0308,-2.0731,-2.1143,-2.07,-2.2253,-2.4176,0.0,0.0,0.0,0.0,0.0,0.0,0.0,0.0,0.0,0.0,0.0,0.0,0.0,0.0,0.0,0.0,0.0,0.0,0.0,0.0,0.0,0.0,0.0,0.0,0.0,0.0,0.0,0.0,0.0,0.0,0.0,0.0,0.0,-4.2004,-4.1372,-4.1034,-4.1034,-4.0396,-4.0014,0.0,-3.9728,-3.9513,-3.9299,-3.9279,-3.8901,-3.8235,-3.7612,-3.7298,-3.722,-3.7027,-3.6888,-3.6809,-3.6809,-3.6829,-3.6831,-3.6831,-3.6908,-3.7007,0.0,0.0,0.0,0.0,0.0,0.0,0.0,0.0,-1.6696,-1.6699,-1.7812,-1.8456,-1.8044,-1.8788,0.0,0.0,-1.9685,-2.0092,0.0,0.0,0.0,0.0,0.0,0.0,0.0,0.0,0.0,0.0,0.0,0.0,0.0,0.0,0.0,-2.5337,0.0,-2.5159,0.0,0.0,-2.1477,-2.0385,-2.0917,-2.0812,-2.0398,-2.0846,-2.0717,-2.0295,-2.03,0.0,0.0,0.0,0.0,0.0,0.0,0.0,-2.0927,-2.0881,-2.2134,-2.3687,0.0,0.0,0.0,0.0,0.0,0.0,0.0,0.0,0.0,0.0,0.0,0.0,0.0,0.0,0.0,0.0,0.0,0.0,0.0,0.0,0.0,0.0,0.0,0.0,0.0,0.0,0.0,0.0,0.0,0.0,0.0,-4.0854,-4.0854,-4.0854,-4.044,-4.0228,-4.0228,-3.9777,-3.952,-3.9444,-3.936,-3.9193,-3.8954,-3.8807,-3.8562,-3.817,-3.7845,-3.7577,-3.7428,-3.7164,-3.695,-3.6809,-3.6748,-3.6748,-3.6766,-3.6788,-3.6831,-3.6911,0.0,0.0,0.0,0.0,0.0,0.0,0.0,0.0,0.0,-1.6913,-1.8319,-1.8963,-1.81,-1.8648,-1.9021,0.0,0.0,0.0,-2.023,0.0,0.0,0.0,0.0,0.0,0.0,0.0,0.0,0.0,0.0,0.0,0.0,0.0,0.0,-2.7214,0.0,0.0,0.0,0.0,-2.1613,-2.0429,-2.0478,-2.0465,-2.0396,-2.041,-2.0355,-2.0304,-2.0308,-2.0308,-2.0308,-2.0308,0.0,0.0,0.0,0.0,-2.0423,-2.1096,-2.1841,-2.2805,0.0,0.0,0.0,0.0,0.0,0.0,0.0,0.0,0.0,0.0,0.0,0.0,0.0,0.0,0.0,0.0,0.0,0.0,0.0,0.0,0.0,0.0,0.0,0.0,0.0,0.0,0.0,0.0,0.0,0.0,-3.9589,-3.9589,-3.9589,-3.9589,-3.9589,-3.9589,-3.9589,-3.9533,-3.9495,-3.9482,-3.9256,-3.9092,-3.8906,-3.8795,-3.8624,-3.8399,-3.8153,-3.7915,-3.7649,-3.7355,-3.7089,-3.6849,-3.6788,-3.6725,-3.6702,-3.6768,-3.6809,-3.6829,0.0,0.0,0.0,0.0,0.0,0.0,0.0,0.0,0.0,0.0,-1.8687,-1.896,-1.8102,-1.8104,-1.7871,-1.7109,-1.7734,-1.8535,0.0,0.0,0.0,0.0,0.0,0.0,0.0,0.0,0.0,0.0,0.0,0.0,0.0,0.0,0.0,-2.4606,0.0,0.0,0.0,0.0,-2.0573,-2.0485,-2.0503,-2.0461,-2.0394,-2.0396,-2.036,-2.03,-2.0292,-2.0308,-2.0308,-2.0308,-2.0308,0.0,0.0,0.0,0.0,0.0,0.0,0.0,0.0,0.0,0.0,0.0,0.0,0.0,0.0,0.0,0.0,0.0,0.0,0.0,0.0,0.0,0.0,0.0,0.0,0.0,0.0,0.0,0.0,0.0,0.0,0.0,0.0,0.0,0.0,0.0,0.0,0.0,-3.9589,-3.9589,-3.9589,-3.9589,-3.9589,-3.9589,-3.9589,-3.9533,-3.9469,-3.9418,-3.9152,-3.9007,-3.8979,-3.891,-3.8728,-3.8478,-3.8338,-3.8156,-3.7932,-3.7846,-3.7503,-3.7069,-3.705,-3.6891,-3.6702,-3.6768,-3.6809,-3.6829,0.0,0.0,0.0,0.0,0.0,0.0,0.0,0.0,0.0,0.0,0.0,-1.9158,-1.8768,-1.8281,-1.7851,-1.7461,-1.7324,0.0,0.0,0.0,0.0,0.0,0.0,0.0,0.0,0.0,0.0,0.0,0.0,0.0,0.0,-2.5003,-2.5784,0.0,0.0,0.0,0.0,0.0,0.0,-2.0498,-2.0451,-2.1014,-2.1754,-2.0726,-2.0923,-2.1625,-2.0646,-2.0308,-2.0308,-2.0308,-1.9985,-1.9661,-2.0158,0.0,0.0,0.0,0.0,0.0,0.0,0.0,0.0,0.0,0.0,0.0,0.0,0.0,0.0,0.0,0.0,0.0,0.0,0.0,0.0,0.0,0.0,0.0,0.0,0.0,0.0,0.0,0.0,0.0,0.0,0.0,0.0,0.0,0.0,-3.9589,-3.9589,-3.9589,-3.9589,-3.9589,-3.9589,-3.9589,-3.9589,-3.9533,-3.9213,-3.8663,-3.8072,-3.7769,-3.7769,-3.766,-3.8014,-3.8728,-3.8606,-3.8465,-3.8214,-3.7647,-3.7162,-3.6719,-3.6147,-3.5748,-3.5535,-3.5556,-3.5539,-3.5537,0.0,0.0,0.0,0.0,0.0,0.0,0.0,0.0,0.0,0.0,0.0,-1.9296,-1.9296,0.0,0.0,0.0,-1.6875,0.0,0.0,0.0,0.0,0.0,0.0,0.0,0.0,0.0,0.0,0.0,0.0,0.0,-2.3789,-2.5312,-2.7256,0.0,-2.6973,0.0,0.0,0.0,0.0,-2.0843,-2.0997,-2.1825,-2.2876,-2.1956,-2.2393,-2.3276,-2.1559,0.0,0.0,0.0,0.0,0.0,0.0,0.0,0.0,0.0,0.0,0.0,0.0,0.0,0.0,0.0,0.0,0.0,0.0,0.0,0.0,0.0,0.0,0.0,0.0,0.0,0.0,0.0,0.0,0.0,0.0,0.0,0.0,0.0,0.0,0.0,0.0,0.0,0.0,0.0,0.0,-3.8951,-3.8951,-3.8951,-3.8951,-3.8951,-3.8951,-3.8951,-3.8951,-3.8896,-3.8502,-3.7791,-3.7131,-3.6826,-3.6826,-3.6705,-3.7293,-3.8354,-3.8272,-3.8121,-3.7879,-3.7134,-3.6628,-3.6281,-3.5503,-3.5013,-3.4745,-3.4745,-3.469,-3.4616,0.0,0.0,0.0,0.0,0.0,0.0,0.0,0.0,0.0,0.0,0.0,-1.9296,-1.9297,-1.8516,-1.7676,-1.6836,-1.5977,0.0,0.0,0.0,0.0,0.0,0.0,0.0,0.0,0.0,0.0,0.0,0.0,0.0,-2.5586,-2.6504,-2.787,-2.9507,-2.7652,-2.5413,-2.2932,0.0,0.0,-2.1806,-2.2554,-2.2881,-2.3072,-2.4575,-2.5157,-2.4966,0.0,0.0,0.0,0.0,0.0,0.0,0.0,0.0,0.0,0.0,0.0,0.0,0.0,0.0,0.0,0.0,0.0,0.0,0.0,0.0,0.0,0.0,0.0,0.0,0.0,0.0,0.0,0.0,0.0,0.0,0.0,0.0,0.0,0.0,0.0,0.0,0.0,0.0,0.0,0.0,0.0,-3.7223,-3.7223,-3.7223,-3.7223,-3.7223,-3.7223,-3.7223,-3.7223,-3.7159,-3.7081,-3.6963,-3.6914,-3.6895,-3.6895,-3.6895,-3.6883,-3.6894,-3.6702,-3.6546,-3.6407,-3.6356,-3.6175,-3.5918,-3.5789,-3.5533,-3.5167,-3.517,-3.5048,-3.4871,0.0,0.0,0.0,0.0,0.0,0.0,0.0,0.0,0.0,0.0,0.0,0.0,0.0,-1.9355,-1.8477,-1.7617,-1.623,0.0,0.0,0.0,0.0,0.0,0.0,0.0,0.0,0.0,0.0,0.0,0.0,-1.9238,-2.1641,-2.416,-2.5371,-2.5465,-2.6507,-2.5828,-2.3766,-2.1765,0.0,0.0,-2.2852,-2.3902,-2.5337,-2.5344,-2.6025,-2.6755,0.0,0.0,0.0,0.0,0.0,0.0,0.0,-1.8488,-1.7907,-1.8103,0.0,0.0,0.0,0.0,0.0,0.0,0.0,0.0,0.0,0.0,0.0,0.0,0.0,0.0,0.0,0.0,0.0,0.0,0.0,0.0,0.0,0.0,0.0,0.0,0.0,0.0,0.0,0.0,0.0,0.0,0.0,0.0,-3.711,-3.711,-3.711,-3.711,-3.711,-3.711,-3.711,-3.6569,-3.6283,-3.626,-3.5679,-3.5417,-3.5417,-3.5382,-3.5324,-3.5247,-3.5144,-3.5625,-3.6449,-3.5945,-3.5597,-3.5325,-3.4741,-3.4353,-3.4099,-3.4006,-3.3849,-3.3688,0.0,0.0,0.0,-1.9453,0.0,-1.8144,-1.7265,-1.7148,-1.7441,-1.832,0.0,0.0,0.0,0.0,-1.8945,-1.8086,-1.6406,-1.5391,-1.5391,0.0,0.0,0.0,0.0,0.0,0.0,0.0,0.0,0.0,0.0,0.0,0.0,-2.1797,-2.3125,-2.3201,-2.4643,-2.4952,0.0,0.0,0.0,-2.3581,0.0,0.0,-2.6389,0.0,-2.8019,0.0,0.0,0.0,0.0,0.0,0.0,0.0,0.0,-1.8271,-1.7064,-1.7891,0.0,0.0,0.0,0.0,0.0,0.0,0.0,0.0,0.0,0.0,0.0,0.0,0.0,0.0,0.0,0.0,0.0,0.0,0.0,0.0,0.0,0.0,0.0,0.0,0.0,0.0,0.0,0.0,0.0,0.0,0.0,0.0,-3.6265,-3.6265,-3.6265,-3.6265,-3.6242,-3.6242,-3.6265,-3.5728,-3.5465,-3.5465,-3.4883,-3.4612,-3.4602,-3.455,-3.4495,-3.4439,-3.4393,-3.4914,-3.5781,-3.5243,-3.492,-3.4768,-3.4136,-3.382,-3.3643,-3.3498,-3.3339,-3.319,-2.0605,-2.0605,-2.0332,-1.9488,-1.9313,-1.9002,-1.8177,-1.8044,-1.8339,-1.9198,0.0,0.0,0.0,0.0,0.0,-1.8105,-1.6465,-1.5469,-1.5449,-1.4648,0.0,0.0,0.0,0.0,0.0,0.0,0.0,0.0,0.0,0.0,0.0,0.0,-2.1406,-2.3008,-2.2186,-2.2748,-2.4284,0.0,-2.4316,-2.4566,0.0,-2.6284,-2.6068,0.0,0.0,0.0,-2.9646,-2.9342,0.0,0.0,0.0,0.0,0.0,-1.9084,-1.7872,-1.8703,-1.8992,0.0,0.0,0.0,0.0,0.0,0.0,0.0,0.0,0.0,0.0,0.0,0.0,0.0,0.0,0.0,0.0,0.0,0.0,0.0,0.0,0.0,0.0,0.0,0.0,0.0,0.0,0.0,0.0,0.0,0.0,-3.4612,-3.4612,-3.4612,-3.4612,-3.4612,-3.4528,-3.4528,-3.4602,-3.4612,-3.4612,-3.4612,-3.4612,-3.4612,-3.4612,-3.4612,-3.4561,-3.4495,-3.4495,-3.4439,-3.4293,-3.4233,-3.4245,-3.4281,-3.4161,-3.4061,-3.3985,-3.378,-3.3657,-3.3591,-2.0605,-2.0605,-2.0527,-2.0289,-1.9722,-1.9214,-1.8978,-1.8942,-1.9021,0.0,0.0,0.0,-2.0643,-1.9823,-1.9199,-1.8965,-1.793,-1.7012,-1.6387,-1.6113,-1.5703,-1.5078,-1.6934,-1.7598,0.0,0.0,0.0,0.0,0.0,0.0,0.0,0.0,0.0,0.0,-1.9844,-2.0624,-2.162,-2.0987,0.0,0.0,-2.5086,-2.633,0.0,0.0,0.0,0.0,0.0,-3.0379,0.0,0.0,-2.6613,-2.4377,0.0,0.0,0.0,-1.7988,-1.895,0.0,-1.9946,0.0,0.0,0.0,0.0,0.0,0.0,0.0,0.0,0.0,0.0,0.0,0.0,0.0,0.0,0.0,0.0,0.0,0.0,0.0,0.0,0.0,0.0,0.0,0.0,0.0,0.0,0.0,-3.4666,-3.4655,-3.4594,-3.4612,-3.4612,-3.4612,-3.4572,-3.4572,-3.4602,-3.4612,-3.4612,-3.4612,-3.4612,-3.4612,-3.4612,-3.4612,-3.4561,-3.4495,-3.4495,-3.4484,-3.445,-3.4363,-3.4328,-3.4293,-3.4257,-3.4173,-3.4061,-3.3959,-3.3842,-3.3739,-2.0565,-2.0586,-2.0702,-2.1071,-2.0719,-2.0504,-2.0835,-2.0896,-2.0897,0.0,0.0,0.0,-2.1249,-2.0683,-2.0234,-1.9863,-1.9043,-1.8164,-1.7305,-1.6894,-1.6309,-1.5449,-1.707,-1.7754,-1.7246,0.0,0.0,0.0,0.0,0.0,0.0,0.0,0.0,0.0,-1.707,-1.8027,-1.9453,-1.8592,0.0,0.0,-2.5711,0.0,0.0,-3.0408,-3.1194,0.0,0.0,0.0,-3.1365,-3.0638,-2.8401,0.0,0.0,-2.0007,-1.9161,-1.8449,-1.9465,0.0,0.0,0.0,0.0,0.0,0.0,0.0,0.0,0.0,0.0,0.0,0.0,0.0,0.0,0.0,0.0,0.0,0.0,0.0,0.0,0.0,0.0,0.0,0.0,0.0,0.0,0.0,0.0,-3.48,-3.4751,-3.472,-3.4687,-3.4634,-3.4623,-3.4645,-3.4602,-3.4561,-3.4602,-3.4264,-3.4095,-3.4095,-3.3719,-3.3738,-3.4095,-3.4095,-3.4261,-3.4539,-3.4539,-3.4539,-3.4539,-3.4495,-3.445,-3.4393,-3.4316,-3.4257,-3.4173,-3.4074,-3.3972,-3.3868,0.0,-2.0681,-2.1016,-2.1874,-2.203,-2.2304,-2.3122,-2.3162,-2.3124,0.0,-2.3203,-2.2969,-2.2383,-2.207,-2.162,-2.0937,-2.0,-1.9121,-1.834,-1.7461,-1.6602,-1.5723,-1.7266,-1.8144,-1.8144,-1.8144,0.0,0.0,0.0,0.0,0.0,0.0,0.0,0.0,-1.4277,-1.5352,-1.7695,-1.7305,0.0,-2.4609,-2.6873,-2.8033,0.0,0.0,-3.2994,0.0,-3.41,-3.4391,-3.409,-3.2338,-2.9644,0.0,0.0,-2.2597,-2.1589,-1.9915,-2.0604,0.0,-2.1696,-2.2274,0.0,0.0,0.0,0.0,-2.2481,-2.2705,0.0,0.0,0.0,0.0,0.0,0.0,0.0,0.0,0.0,0.0,0.0,0.0,0.0,0.0,0.0,0.0,0.0,-3.4652,-3.4652,-3.4642,-3.4576,-3.4537,-3.4525,-3.4405,-3.4373,-3.4423,-3.4309,-3.4277,-3.432,-3.3607,-3.3269,-3.325,-3.248,-3.2518,-3.3269,-3.3269,-3.3644,-3.432,-3.4414,-3.447,-3.447,-3.4564,-3.455,-3.4484,-3.4363,-3.4316,-3.4293,-3.4161,-3.4074,-3.4011,-2.1401,-2.1558,-2.1839,-2.2711,-2.2868,-2.3163,-2.4021,-2.3553,-2.3358,-2.404,-2.3551,-2.359,-2.4823,-2.3123,-2.2088,-2.2577,-2.1211,-2.0273,-2.0098,-1.9277,-1.8398,-1.7539,-1.8496,-1.9043,-1.9043,-1.9043,0.0,0.0,0.0,0.0,0.0,0.0,0.0,0.0,-1.2891,-1.418,-1.6074,-1.8711,0.0,-2.4433,-2.4936,0.0,-3.0338,-3.0942,-3.2018,-3.3294,-3.4172,-3.4032,-3.3179,0.0,-2.9973,-2.8412,0.0,0.0,0.0,-2.256,0.0,-2.4269,-2.2908,-2.3182,-2.3509,-2.21,0.0,0.0,0.0,-2.1844,0.0,0.0,0.0,0.0,0.0,0.0,0.0,0.0,0.0,0.0,0.0,0.0,0.0,0.0,0.0,0.0,0.0,-3.3122,-3.3105,-3.3054,-3.2988,-3.2937,-3.2873,-3.2798,-3.2741,-3.2682,-3.2652,-3.2632,-3.2593,-3.2424,-3.2349,-3.2349,-3.218,-3.218,-3.2349,-3.2349,-3.2443,-3.263,-3.3325,-3.3625,-3.3682,-3.432,-3.455,-3.4495,-3.4473,-3.4439,-3.4351,-3.4233,-3.4173,-3.4136,-2.171,-2.2148,-2.2724,-2.3595,-2.3752,-2.4032,-2.4921,-2.4687,-2.4707,-2.5584,-2.5328,-2.5055,-2.5058,-2.3905,-2.2967,-2.2539,-2.1738,-2.0879,-2.0019,-1.9531,-1.8906,-1.8047,-1.8828,-1.9297,-1.9297,-1.9727,-1.9316,0.0,0.0,0.0,0.0,0.0,0.0,0.0,0.0,-1.4551,-1.7422,0.0,-2.1016,-2.3906,-2.5618,0.0,-3.0845,-3.1679,-3.2745,-3.3916,-3.4798,-3.4812,-3.4197,-3.2503,-3.1087,0.0,0.0,-2.6412,-2.5758,0.0,-2.4702,-2.5677,0.0,0.0,-2.4579,-2.3663,0.0,0.0,0.0,0.0,0.0,0.0,0.0,0.0,0.0,0.0,0.0,0.0,0.0,0.0,0.0,0.0,0.0,0.0,0.0,0.0,0.0,-3.2759,-3.2744,-3.2703,-3.2676,-3.261,-3.2551,-3.2448,-3.2361,-3.2307,-3.2232,-3.2163,-3.2105,-3.171,-3.1504,-3.1504,-3.1091,-3.111,-3.1504,-3.1504,-3.1729,-3.2123,-3.2555,-3.2762,-3.2818,-3.3663,-3.3979,-3.3995,-3.4356,-3.4484,-3.4439,-3.4328,-3.4257,-3.4185,-2.178,-2.2479,-2.3313,-2.4022,-2.4411,-2.4867,-2.557,-2.5691,-2.607,-2.7109,-2.7107,-2.6599,-2.5527,-2.5097,-2.4492,-2.3476,-2.2773,-2.1855,-2.0605,-2.0078,-1.9492,-1.8789,-1.9258,-1.9629,-1.9805,-2.0156,-1.957,0.0,0.0,0.0,0.0,0.0,0.0,0.0,0.0,0.0,0.0,0.0,0.0,-2.4101,0.0,-2.9012,-3.0421,-3.2331,-3.353,-3.4318,-3.5355,-3.5737,-3.547,-3.3642,0.0,-3.0734,-2.8453,-2.766,0.0,0.0,0.0,0.0,0.0,0.0,0.0,0.0,0.0,-2.4764,0.0,0.0,0.0,-2.3777,0.0,0.0,0.0,0.0,0.0,0.0,0.0,0.0,0.0,0.0,0.0,0.0,0.0,0.0,0.0,-3.1705,-3.1686,-3.184,-3.1852,-3.1908,-3.2001,-3.2031,-3.2023,-3.1941,-3.1826,-3.1722,-3.1636,-3.0997,-3.0668,-3.0649,-3.0002,-3.0039,-3.0668,-3.0668,-3.1016,-3.1654,-3.1804,-3.1879,-3.1936,-3.2799,-3.3156,-3.3239,-3.4153,-3.4423,-3.4281,-3.4207,-3.4023,-3.3787,-2.1702,-2.2406,-2.3065,-2.3217,-2.4477,-2.5494,-2.5606,-2.5661,-2.6282,-2.7949,-2.7479,-2.7518,0.0,0.0,0.0,0.0,0.0,0.0,-2.4941,0.0,-2.1562,-2.1465,-2.0801,-2.0801,-2.1582,-2.0195,-1.8965,-1.8008,0.0,0.0,0.0,0.0,-1.3594,-1.3262,-1.5352,0.0,0.0,0.0,-2.3437,0.0,-2.7811,-2.8369,0.0,-3.1201,-3.2681,-3.3623,-3.523,-3.5826,-3.5493,0.0,-3.249,-3.2272,0.0,-2.8415,0.0,0.0,0.0,0.0,0.0,0.0,0.0,0.0,-2.6589,0.0,0.0,0.0,-2.4683,-2.3257,0.0,0.0,0.0,0.0,0.0,0.0,0.0,0.0,0.0,0.0,0.0,0.0,0.0,0.0,0.0,0.0,-2.7626,-2.8399,-2.8459,-2.8766,-2.9466,-3.0107,-3.0405,-3.0292,-3.0194,-3.0108,-2.9963,-2.9879,-2.9833,-2.9833,-2.9739,-2.9739,-2.9833,-2.9833,-2.9889,-3.0002,-3.0724,-3.1043,-3.11,-3.1917,-3.2255,-3.2405,-3.3982,-3.414,-3.3529,-3.3446,-3.2924,-3.2325,-2.159,-2.2408,-2.3015,-2.3033,-2.3628,-2.4268,-2.4817,-2.6631,-2.7851,-2.7578,-2.8553,0.0,0.0,0.0,0.0,0.0,0.0,-2.6387,0.0,0.0,-2.3125,-2.2617,-2.1797,-2.1523,-2.1894,-2.0195,-1.8867,-1.8008,-1.625,0.0,0.0,0.0,-1.5,-1.666,-1.7734,0.0,-2.2305,0.0,0.0,0.0,0.0,0.0,0.0,-3.0897,-3.2888,-3.4202,-3.5421,-3.5554,-3.4979,0.0,-3.2742,0.0,0.0,0.0,0.0,0.0,0.0,0.0,0.0,0.0,0.0,0.0,0.0,0.0,-2.5505,0.0,-2.4701,0.0,0.0,0.0,0.0,0.0,0.0,0.0,0.0,0.0,0.0,0.0,0.0,0.0,0.0,0.0,0.0,0.0,0.0,0.0,0.0,-2.7783,-2.9137,-2.945,-2.9743,-3.0166,-3.0061,-2.9959,-2.9822,-2.9782,-2.9737,-2.9691,-2.9701,-2.9701,-2.9701,-2.9701,-2.9701,-2.972,-3.0058,-3.0208,-3.0265,-3.1072,-3.14,-3.1513,-3.2687,-3.2931,-3.2649,-3.2618,-3.2371,-3.2083,-2.1548,0.0,-2.2557,-2.233,-2.2876,-2.3752,-2.4901,-2.7221,-2.8574,-2.7812,0.0,0.0,-3.0293,-3.0292,0.0,0.0,-3.0,-2.873,0.0,0.0,-2.4727,-2.3848,-2.2812,0.0,0.0,-2.0547,-1.9238,-1.8359,-1.6602,0.0,0.0,0.0,0.0,-1.8984,0.0,-2.1875,-2.4434,0.0,0.0,-2.5117,-2.6973,-2.8008,-2.8711,-3.1434,-3.3496,-3.5039,-3.5677,-3.5515,-3.4905,-3.4437,-3.3197,0.0,-3.141,0.0,0.0,0.0,0.0,0.0,-2.7944,0.0,0.0,0.0,0.0,0.0,0.0,0.0,0.0,0.0,0.0,0.0,0.0,0.0,0.0,0.0,0.0,0.0,0.0,0.0,0.0,0.0,0.0,0.0,0.0,0.0,0.0,0.0,0.0,0.0,-2.8487,-2.8925,-2.9398,-2.9953,-3.0058,-3.0064,-2.9972,-2.9874,-2.9798,-2.9726,-2.971,-2.9701,-2.9701,-2.9701,-2.9701,-2.9701,-2.9701,-2.9701,-2.9739,-3.034,-3.0574,-3.0631,-3.1203,-3.1429,-3.1466,-3.1692,-3.1614,-3.1432,-2.1598,-2.1638,0.0,0.0,0.0,-2.4841,-2.656,-2.6919,-2.7592,0.0,0.0,0.0,0.0,0.0,0.0,0.0,0.0,-3.1699,-3.0781,0.0,-2.6523,-2.5644,-2.4043,-2.3164,0.0,-2.1445,-2.0137,-1.9258,-1.7519,-1.6641,0.0,0.0,0.0,0.0,0.0,-2.3574,-2.4512,-2.6191,-2.7871,-2.9394,-2.9473,-3.0527,-3.2129,0.0,-3.4408,-3.5869,-3.5896,0.0,0.0,-3.4017,-3.3948,0.0,0.0,0.0,0.0,0.0,0.0,0.0,0.0,0.0,0.0,-2.8723,0.0,0.0,0.0,0.0,-2.6567,0.0,0.0,0.0,0.0,0.0,0.0,0.0,0.0,0.0,0.0,0.0,0.0,0.0,0.0,0.0,0.0,0.0,0.0,0.0,0.0,0.0,-2.6691,-2.8314,-2.9175,-2.9148,-2.9832,-3.0168,-3.0101,-2.9953,-2.9866,-2.9799,-2.9726,-2.97,-2.9701,-2.9701,-2.9701,-2.9701,-2.9701,-2.9701,-2.9701,-2.972,-2.9739,-2.9739,-2.9758,-2.9777,-2.987,-3.0649,-3.0395,-2.9775,0.0,0.0,0.0,0.0,0.0,-2.3244,-2.5612,-2.794,0.0,0.0,0.0,0.0,0.0,0.0,-3.6035,0.0,0.0,-3.4336,-3.3476,-3.1016,0.0,0.0,0.0,-2.4844,0.0,0.0,-2.1035,-2.0156,-1.8984,-1.8125,0.0,0.0,0.0,0.0,0.0,-2.3965,0.0,0.0,0.0,0.0,0.0,-3.2344,-3.3945,0.0,0.0,-3.5185,-3.577,-3.5618,0.0,-3.5111,-3.4546,-3.363,-3.2431,-3.1711,-3.1013,-2.9526,-2.955,0.0,0.0,0.0,-3.0625,-2.9452,0.0,0.0,0.0,0.0,0.0,0.0,0.0,0.0,0.0,0.0,0.0,0.0,0.0,0.0,0.0,0.0,0.0,0.0,0.0,0.0,0.0,0.0,0.0,0.0,0.0,0.0,0.0,-2.7777,-2.8661,-2.9201,-2.9946,-3.0304,-3.0235,-3.0135,-3.006,-3.001,-2.9891,-2.9832,-2.9827,-2.9746,-2.97,-2.97,-2.9701,-2.9701,-2.9701,-2.9701,-2.9701,-2.9701,-2.9701,-2.9701,-2.972,-3.0002,-2.9917,-2.9683,-2.3172,0.0,0.0,0.0,0.0,0.0,0.0,0.0,0.0,0.0,-3.3451,0.0,-3.6327,0.0,-3.7656,0.0,-3.7578,-3.6426,-3.5234,-3.334,0.0,-3.0586,-2.832,0.0,0.0,0.0,-2.2676,-2.1484,-2.0644,-1.9785,0.0,0.0,0.0,0.0,0.0,0.0,0.0,0.0,-2.8848,0.0,0.0,-3.373,0.0,0.0,-3.5644,-3.5234,0.0,-3.5643,-3.5253,-3.58,-3.5058,-3.3808,-3.3496,-3.246,-3.1191,-3.0312,-3.0058,-3.0058,-3.0059,-3.0468,0.0,-2.9824,-2.9179,0.0,-2.7654,0.0,0.0,0.0,0.0,0.0,0.0,0.0,0.0,0.0,0.0,0.0,0.0,0.0,0.0,0.0,0.0,0.0,0.0,0.0,-2.1837,-2.3558,0.0,0.0,0.0,0.0,-2.7941,-2.8815,-2.9602,-3.0133,-3.0377,-3.0292,-3.0227,-3.0123,-3.0023,-2.9953,-2.9926,-2.9813,-2.9761,-2.9726,-2.9719,-2.9701,-2.9701,-2.9701,-2.9701,-2.9701,-2.9701,-2.9701,-2.9701,-2.9701,-2.9673,-2.9645,0.0,0.0,0.0,0.0,-2.4351,0.0,0.0,0.0,-3.1295,0.0,-3.4232,-3.5534,-3.7235,-3.7466,-3.7818,-3.8645,-3.8687,0.0,-3.6308,-3.5293,0.0,0.0,-3.0684,-2.9316,-2.8435,0.0,0.0,0.0,-2.2382,0.0,0.0,0.0,0.0,0.0,-2.2363,0.0,-2.5742,-2.7539,-2.9824,-3.2402,-3.4082,-3.4766,-3.4844,-3.5684,-3.5996,-3.5996,-3.5996,-3.5996,-3.5996,-3.5996,-3.543,-3.4551,-3.3672,-3.2851,-3.2031,-3.1152,-3.0898,-3.0898,-3.0898,-3.0898,-3.0702,-2.9863,0.0,0.0,0.0,0.0,-2.9391,0.0,0.0,0.0,0.0,0.0,0.0,0.0,0.0,0.0,0.0,0.0,0.0,0.0,0.0,0.0,0.0,0.0,-2.1066,-2.2767,-2.2906,0.0,0.0,0.0,-2.7054,-2.7967,-2.883,-2.9675,-3.0485,-3.0439,-3.0349,-3.0215,-3.0155,-3.0078,-3.0003,-2.9948,-2.9874,-2.9816,-2.9735,-2.97,-2.9692,-2.9692,-2.9711,-2.9701,-2.9701,-2.9701,-2.9701,-2.9701,-2.9655,-2.9598,-2.5751,-2.6345,-2.6734,0.0,-2.5808,-2.6067,0.0,0.0,0.0,0.0,-3.5995,-3.7789,-3.8898,-3.9628,-4.0155,-4.0439,-3.9875,0.0,0.0,0.0,0.0,-3.5031,-3.2726,-3.1044,-3.018,-2.8491,0.0,-2.4955,0.0,0.0,-2.1474,0.0,0.0,0.0,0.0,0.0,-2.4883,-2.7285,-3.0156,-3.3242,-3.4961,-3.5664,0.0,0.0,-3.5996,-3.5996,-3.5996,-3.5996,-3.5996,-3.5996,-3.543,-3.4551,-3.3672,-3.2851,-3.2031,-3.1152,-3.0898,-3.0898,-3.0898,-3.0898,-3.0859,-3.0624,-3.0078,-2.9531,0.0,0.0,0.0,0.0,0.0,0.0,0.0,0.0,0.0,0.0,0.0,0.0,0.0,0.0,0.0,0.0,0.0,0.0,0.0,-2.0962,-2.1771,-2.281,-2.2901,0.0,0.0,0.0,0.0,-2.7879,-2.8816,-2.9665,-3.0428,-3.0458,-3.0425,-3.0349,-3.0323,-3.0299,-3.0219,-3.0101,-3.0011,-2.9932,-2.9885,-2.9789,-2.9709,-2.9709,-2.9701,-2.9701,-2.9701,-2.9701,-2.9701,-2.9701,-2.9692,-2.9655,-2.7499,0.0,0.0,-2.8956,0.0,0.0,-2.9529,0.0,0.0,-3.516,-3.739,0.0,-4.0023,-4.0625,-4.0964,-4.1003,-4.0591,0.0,-3.9786,0.0,0.0,-3.7072,-3.4919,-3.3312,-3.2444,-3.0395,0.0,-2.6172,0.0,0.0,-2.1788,0.0,0.0,0.0,0.0,-2.3613,0.0,-2.8008,-3.0976,-3.3516,-3.4883,0.0,0.0,-3.5996,-3.5996,-3.5996,-3.5996,-3.5996,-3.5996,-3.5996,-3.543,-3.4551,-3.3672,-3.2851,-3.2031,-3.1152,-3.0898,-3.0898,-3.0898,-3.0898,-3.0898,-3.0898,-3.0527,-3.0176,-3.0176,-3.0547,-3.0625,0.0,0.0,0.0,0.0,0.0,0.0,0.0,0.0,0.0,0.0,0.0,0.0,0.0,0.0,0.0,0.0,-2.0288,-2.1033,-2.2284,-2.2348,0.0,0.0,0.0,0.0,-2.7334,-2.8222,-2.9081,-2.991,-3.0316,-3.0474,-3.045,-3.045,-3.0416,-3.0349,-3.024,-3.0157,-3.0083,-3.0026,-2.9918,-2.9787,-2.9798,-2.9773,-2.9747,-2.971,-2.971,-2.9701,-2.9701,-2.9701,-2.9701,0.0,0.0,0.0,0.0,0.0,0.0,0.0,-3.3077,0.0,-3.6719,0.0,-3.9935,-4.0689,-4.082,-4.0878,-4.0887,0.0,-4.0643,-3.9883,-3.9747,-3.9334,-3.8572,-3.6878,-3.5561,-3.4672,-3.2158,0.0,0.0,0.0,0.0,0.0,0.0,0.0,0.0,0.0,0.0,0.0,-2.9199,-3.1875,0.0,-3.4473,-3.5312,-3.5996,-3.5996,-3.5996,-3.5996,-3.5996,-3.5996,-3.5996,-3.5996,-3.543,-3.457,-3.3809,-3.2949,-3.2051,-3.1289,-3.0996,-3.0898,-3.0898,-3.0898,-3.0898,-3.0898,-3.0898,-3.0898,-3.0898,-3.0898,-3.0898,-3.0898,-3.0293,-2.9961,0.0,0.0,0.0,0.0,0.0,0.0,0.0,0.0,0.0,0.0,0.0,0.0,0.0,-1.9575,-2.0093,-2.1443,0.0,0.0,0.0,0.0,0.0,-2.6672,-2.7479,0.0,-2.927,0.0,-3.05,-3.0504,-3.0504,-3.0477,-3.0416,-3.033,-3.0292,-3.0206,-3.0135,-3.0046,-2.994,-2.9918,-2.9859,-2.9771,-2.9726,-2.97,-2.9701,-2.9701,-2.9701,-2.9701,0.0,0.0,0.0,0.0,0.0,-3.5166,-3.5525,-3.5979,-3.6606,-3.7578,-3.9283,-4.0458,-4.0614,-4.07,-4.0761,-4.0809,-4.0826,0.0,0.0,0.0,0.0,-3.9305,-3.769,-3.6372,-3.5514,-3.2986,-3.0412,0.0,-2.5398,-2.3331,0.0,0.0,0.0,0.0,0.0,0.0,-2.7754,-2.9961,0.0,-3.3535,-3.5137,-3.5859,-3.5996,-3.5996,-3.5996,-3.5996,-3.5996,-3.5996,-3.5996,-3.5996,-3.543,-3.4668,-3.4512,-3.3437,-3.2168,-3.2012,-3.1465,-3.0898,-3.0898,-3.0898,-3.0898,-3.0898,-3.0898,-3.0898,-3.0898,-3.0898,-3.0898,-3.0898,-3.0781,-3.0508,-2.9922,0.0,0.0,0.0,0.0,0.0,0.0,0.0,0.0,0.0,0.0,0.0,0.0,0.0,-2.1919,0.0,0.0,0.0,0.0,0.0,0.0,0.0,-2.7489,0.0,0.0,0.0,-3.0509,-3.0504,-3.05,-3.0495,-3.0483,-3.0421,-3.0349,-3.0279,-3.0221,-3.0145,-3.0064,-3.0014,-2.9883,-2.9717,-2.9689,-2.97,-2.9701,-2.9701,-2.9701,-2.9701,0.0,0.0,0.0,0.0,0.0,0.0,0.0,-3.9435,0.0,-3.9933,-4.1077,-4.1732,-4.1262,-4.128,-4.1143,-4.0732,-4.0726,-4.0745,-4.0756,-4.0357,-4.0118,-4.013,-3.892,0.0,-3.6306,-3.422,-3.1671,-2.8613,-2.6072,-2.3936,0.0,0.0,0.0,0.0,0.0,-2.58,0.0,0.0,0.0,-3.3512,-3.4803,-3.5604,-3.5995,-3.5995,-3.5996,-3.5996,-3.5996,-3.5996,-3.5996,-3.5996,-3.5723,-3.5293,-3.4844,-3.4141,-3.3418,-3.2969,-3.2226,-3.1562,-3.1562,-3.123,-3.0898,-3.0898,-3.0898,-3.0898,-3.0898,-3.0898,-3.0898,-3.0898,-3.0898,-3.0625,-2.9765,-2.9258,0.0,0.0,0.0,0.0,0.0,0.0,0.0,0.0,0.0,0.0,0.0,0.0,0.0,0.0,0.0,0.0,0.0,0.0,0.0,0.0,0.0,0.0,0.0,0.0,0.0,-3.0458,-3.0449,-3.0449,-3.0458,-3.0408,-3.0385,-3.0352,-3.0317,-3.0267,-3.0195,-3.0101,-2.998,-2.9847,-2.9822,-2.978,-2.9756,-2.9756,-2.9728,-2.9701,0.0,-3.8219,0.0,0.0,-3.9931,0.0,-4.1054,-4.2508,-4.3258,-4.222,-4.2662,-4.2835,-4.2162,-4.1963,-4.1594,-4.09,-4.0728,-4.0666,-4.0666,-4.0666,-4.0666,-4.0666,-3.9841,-3.8651,-3.7083,-3.5406,-3.2889,0.0,0.0,0.0,0.0,0.0,-2.137,-2.2501,0.0,0.0,0.0,0.0,-3.2118,-3.3732,-3.4597,-3.5362,-3.5987,-3.5991,-3.5993,-3.5994,-3.5995,-3.5996,-3.5996,-3.5996,-3.5996,-3.5879,-3.5195,-3.4844,-3.457,-3.3887,-3.3105,-3.2422,-3.2246,-3.1699,-3.1133,-3.0957,-3.0898,-3.0898,-3.0898,-3.0898,-3.0898,-3.0898,-3.0898,-3.0684,-3.0,-2.9883,0.0,0.0,0.0,0.0,0.0,0.0,0.0,0.0,0.0,0.0,0.0,0.0,0.0,0.0,0.0,0.0,0.0,0.0,0.0,0.0,0.0,-2.7016,-2.7888,0.0,-2.9608,0.0,-3.0398,-3.0398,-3.0392,-3.0402,-3.0402,-3.0392,-3.0408,-3.0359,-3.0298,-3.018,-3.0072,-3.0014,-2.9948,-2.9883,-2.9815,-2.9815,-2.9798,-2.9744,0.0,0.0,0.0,0.0,0.0,0.0,0.0,-4.4278,-4.4786,-4.3181,-4.3047,-4.3066,-4.2989,-4.2277,-4.1777,-4.1681,-4.0966,-4.0512,-4.0512,-4.0512,-4.0512,-4.0512,-3.9734,-3.8869,-3.7899,-3.6245,-3.3712,0.0,0.0,0.0,0.0,0.0,-2.3388,-2.505,0.0,0.0,0.0,-3.1482,-3.2898,-3.4564,-3.5433,-3.5848,-3.5926,-3.5973,-3.6,-3.6006,-3.5991,-3.5993,-3.5995,-3.5996,-3.5996,-3.5996,-3.5898,-3.5332,-3.4687,-3.4609,-3.3965,-3.3125,-3.2402,-3.2148,-3.1894,-3.1094,-3.0898,-3.0898,-3.0898,-3.0898,-3.0898,-3.0898,-3.0898,-3.0879,-3.0781,-3.0781,-3.0234,0.0,0.0,0.0,0.0,0.0,0.0,0.0,0.0,0.0,0.0,0.0,0.0,0.0,0.0,0.0,0.0,0.0,0.0,-2.5348,0.0,-2.7016,-2.7888,-2.8755,-2.9608,-3.0398,-3.0398,-3.0398,-3.0392,-3.0402,-3.0402,-3.0398,-3.0392,-3.0358,-3.0298,-3.0214,-3.0161,-3.0087,-3.0022,-2.9948,-2.988,-2.988,-2.988,-2.9872,0.0,0.0,0.0,0.0,0.0,0.0,0.0,-4.5171,-4.5364,-4.469,-4.4605,-4.4393,-4.3874,-4.3508,-4.3104,-4.2624,-4.1777,-4.1277,-4.1277,-4.0785,-4.0496,-4.0496,-4.0189,-3.9631,-3.8796,-3.7103,-3.507,0.0,0.0,0.0,0.0,0.0,0.0,0.0,0.0,-2.9539,-3.1381,-3.2836,-3.3861,-3.462,-3.5499,-3.5841,-3.5853,-3.5912,-3.5942,-3.5931,-3.5931,-3.5939,-3.5941,-3.5986,-3.5993,-3.5996,-3.5996,-3.5762,-3.5488,-3.5488,-3.4863,-3.4101,-3.3789,-3.2969,-3.2129,-3.1777,-3.1289,-3.0898,-3.0898,-3.0898,-3.0898,-3.0898,-3.0898,-3.0898,-3.0898,-3.0898,-3.0508,0.0,0.0,0.0,0.0,0.0,0.0,0.0,0.0,0.0,0.0,0.0,0.0,0.0,0.0,-2.0646,-2.2141,0.0,0.0,-2.4574,0.0,-2.6526,-2.7887,-2.8252,-2.908,-3.0402,-3.0402,-3.0402,-3.0402,-3.041,-3.0414,-3.0463,-3.0463,-3.0439,-3.0409,-3.0354,-3.0292,-3.0266,-3.0214,-3.0154,-3.0138,-3.0097,-3.0056,-3.0026,-4.3778,0.0,-4.3297,0.0,-4.4201,-4.422,-4.5421,-4.5594,-4.5594,-4.5594,-4.5594,-4.5364,-4.4739,-4.4451,-4.4066,-4.3508,-4.2681,-4.2058,-4.1808,-4.1219,-4.0766,-4.0516,-4.0496,0.0,-3.9323,-3.8084,-3.6512,-3.4588,-3.1911,0.0,0.0,-2.804,0.0,0.0,-3.0551,-3.1457,-3.256,-3.3838,-3.4557,-3.4883,-3.5514,-3.5768,-3.5784,-3.5817,-3.585,-3.584,-3.586,-3.5877,-3.5882,-3.5935,-3.5956,-3.5972,-3.5994,-3.5995,-3.5995,-3.5996,-3.5566,-3.5039,-3.4766,-3.3652,-3.25,-3.2266,-3.1543,-3.0898,-3.0898,-3.0898,-3.0898,-3.0898,-3.0898,-3.0898,-3.0898,-3.0898,-3.0527,-2.9394,0.0,0.0,0.0,0.0,0.0,0.0,0.0,0.0,0.0,0.0,0.0,0.0,0.0,-2.1612,-2.2429,0.0,0.0,0.0,0.0,0.0,0.0,-2.7901,-2.8736,-3.0404,-3.0404,-3.0404,-3.0404,-3.0404,-3.0439,-3.0504,-3.0474,-3.0485,-3.0491,-3.0439,-3.04,-3.0396,-3.0348,-3.0323,-3.0318,-3.028,-3.0235,-3.0182,-4.5402,-4.5556,-4.5556,-4.5575,-4.5575,-4.5575,-4.5594,-4.5594,-4.5594,-4.5594,-4.5594,-4.5594,-4.5594,-4.4816,-4.4297,-4.4297,-4.3547,-4.272,-4.1865,-4.1788,-4.1393,0.0,0.0,-4.0131,-3.9323,-3.9284,-3.8027,-3.5481,0.0,0.0,-3.152,-3.0669,-3.0727,-3.1565,-3.1641,-3.2651,-3.4266,-3.4281,-3.4792,-3.5593,-3.5678,-3.5688,-3.5693,-3.5699,-3.5703,-3.5711,-3.578,-3.581,-3.5791,-3.5803,-3.5841,-3.5919,-3.5977,-3.6004,-3.6006,-3.5993,-3.5995,-3.58,-3.4922,-3.4062,-3.3184,-3.2402,-3.1543,-3.0898,-3.0898,-3.0898,-3.0898,-3.0898,-3.0898,-3.0898,-3.0898,-3.0898,-3.0332,-2.8593,0.0,0.0,0.0,0.0,0.0,0.0,0.0,0.0,0.0,0.0,0.0,0.0,0.0,0.0,-2.4239,0.0,0.0,-2.5404,-2.5431,0.0,-2.788,-2.7897,-2.8736,-3.0404,-3.0404,-3.0404,-3.0404,-3.0404,-3.0439,-3.0504,-3.0428,-3.0444,-3.0491,-3.0439,-3.0398,-3.0392,-3.0396,-3.0404,-3.0404,-3.0404,-3.0404,-3.0398,-4.5475,-4.5568,-4.5594,-4.5594,-4.5594,-4.5594,-4.5594,-4.5594,-4.5594,-4.5594,-4.5594,-4.5594,-4.5594,-4.5344,-4.519,0.0,-4.4412,-4.3797,0.0,-4.2989,-4.2297,-4.1412,-4.1393,-4.0989,-4.015,-3.9573,-3.89,-3.8084,0.0,0.0,0.0,-3.423,-3.4595,-3.5935,-3.5372,-3.5751,-3.6811,-3.6825,-3.698,-3.7244,-3.725,-3.7308,-3.7333,-3.7344,-3.7336,-3.7334,-3.7418,-3.7444,-3.7434,-3.7447,-3.7092,-3.6642,-3.6685,-3.6348,-3.5932,-3.5936,-3.5964,-3.593,-3.5659,-3.4957,-3.4079,-3.324,-3.2362,-3.1562,-3.1034,-3.0898,-3.0898,-3.0898,-3.0898,-3.0898,-3.0898,-3.0898,-3.0332,-2.8574,-2.8301,0.0,0.0,0.0,0.0,0.0,0.0,0.0,0.0,-2.4509,0.0,0.0,0.0,0.0,0.0,0.0,0.0,0.0,-2.581,0.0,-2.7954,-2.8513,-2.9332,-3.0404,-3.0404,-3.0404,-3.0404,-3.0404,-3.0439,-3.0504,-3.0474,-3.0519,-3.0564,-3.055,-3.054,-3.054,-3.053,-3.0544,-3.0525,-3.0485,-3.0474,-3.0469,-4.537,-4.5448,-4.5505,-4.5524,-4.5523,-4.5522,-4.5559,-4.5577,-4.5594,-4.5594,-4.5594,-4.5594,-4.5594,-4.5594,0.0,-4.5594,-4.5094,-4.4643,-4.4316,-4.3835,-4.3162,-4.2335,-4.2297,-4.1873,-4.1008,0.0,0.0,-3.9304,-3.7873,-3.7199,-3.718,-3.6673,-3.7007,-3.7988,-3.743,-3.7488,-3.8007,-3.8007,-3.8003,-3.7998,-3.7998,-3.8031,-3.8052,-3.8053,-3.806,-3.8073,-3.8106,-3.813,-3.813,-3.8141,-3.7823,-3.7365,-3.7033,-3.6636,-3.6216,-3.5946,-3.5912,-3.5967,-3.5952,-3.5334,-3.4576,-3.4029,-3.3233,-3.2379,-3.1541,-3.1113,-3.0898,-3.0898,-3.0898,-3.0898,-3.0898,-3.0898,-3.0332,-2.8574,-2.8301,-2.7695,-2.5957,0.0,0.0,0.0,0.0,0.0,0.0,-2.5019,0.0,0.0,0.0,0.0,0.0,0.0,0.0,-2.5273,-2.6346,0.0,-2.853,-2.9,-2.9648,-3.0436,-3.0402,-3.0404,-3.0404,-3.0404,-3.0439,-3.0504,-3.0504,-3.0535,-3.0598,-3.0598,-3.0598,-3.0598,-3.0598,-3.0598,-3.0598,-3.0559,-3.053,-3.0525,-4.514,-4.5224,0.0,0.0,-4.537,0.0,-4.5476,-4.5541,-4.5596,-4.5596,-4.5586,-4.5586,-4.5586,-4.5594,-4.5594,-4.5594,0.0,0.0,0.0,-4.4393,-4.4028,-4.322,-4.3181,-4.2777,-4.1904,-4.1827,-4.1008,-3.9381,-3.8565,-3.8161,-3.8161,-3.8161,-3.8161,-3.8161,-3.8161,-3.8161,-3.8161,-3.8161,-3.8161,-3.8161,-3.8161,-3.8161,-3.8161,-3.8161,-3.8161,-3.8169,-3.8178,-3.8173,-3.8173,-3.8246,-3.8234,-3.8041,-3.7231,-3.6928,-3.674,-3.6009,-3.583,-3.5889,-3.5892,-3.534,-3.4763,-3.4704,-3.4036,-3.3171,-3.2301,-3.1521,-3.0975,-3.0918,-3.0898,-3.0898,-3.0898,-3.0898,-3.0332,-2.8574,-2.8301,-2.7695,-2.5957,0.0,0.0,0.0,0.0,0.0,0.0,-2.537,-2.5527,0.0,0.0,0.0,0.0,0.0,-2.4548,-2.6933,-2.7008,-2.777,-2.9389,-2.9399,-2.9779,-3.0496,-3.0431,-3.0404,-3.0404,-3.0404,-3.0419,-3.0479,-3.0479,-3.053,-3.0593,-3.0593,-3.0593,-3.0593,-3.0593,-3.0593,-3.0593,-3.0598,-3.0598,-3.0598,0.0,0.0,-4.4946,-4.5004,-4.5052,-4.5126,-4.5248,-4.536,-4.5438,-4.5438,-4.5495,-4.5522,-4.5522,-4.5568,-4.5594,-4.5594,-4.5594,-4.5518,-4.5306,-4.5287,-4.4921,-4.4047,-4.4028,-4.3624,-4.2816,-4.2143,-4.1277,-4.0227,-4.0015,-3.9919,-3.9919,-3.9919,-3.9919,-3.9919,-3.9919,-3.9919,-3.9919,-3.9919,-3.9919,-3.9919,-3.9919,-3.9919,-3.9919,-3.9919,-3.9919,-3.9919,-3.9908,-3.9908,-3.9908,-3.9942,-3.9518,-3.8979,-3.8768,-3.7812,-3.6601,-3.5866,-3.5683,-3.5768,-3.5815,-3.568,-3.5386,-3.4714,-3.3935,-3.3106,-3.2296,-3.1949,-3.1621,-3.0968,-3.0816,-3.0838,-3.0897,-3.0898,-3.0332,-2.8574,-2.8301,-2.7695,-2.5957,-2.5703,0.0,0.0,-2.6289,-2.6601,-2.6406,-2.7168,-2.7324,0.0,0.0,0.0,0.0,-2.6562,-2.7049,-2.6992,-2.7635,-2.8456,-2.9473,-3.0068,-3.0413,-3.0496,-3.0433,-3.0406,-3.04,-3.0396,-3.0408,-3.0428,-3.0428,-3.0469,-3.0519,-3.0519,-3.0519,-3.0525,-3.052,-3.0525,-3.053,-3.0588,-3.0598,-3.0598,-4.4402,-4.4484,-4.4565,-4.4612,-4.4714,-4.4819,-4.4953,-4.5098,-4.5186,-4.5246,-4.5329,-4.5361,-4.5361,-4.5448,-4.5505,-4.5504,-4.5568,-4.5594,-4.5594,-4.5594,-4.5402,-4.4913,-4.4893,-4.4489,-4.3662,-4.3181,-4.2335,-4.1085,-4.1085,-4.0893,-4.0496,-4.0496,-4.0496,-4.0496,-4.0496,-4.0496,-4.0496,-4.0496,-4.0496,-4.0496,-4.0496,-4.0496,-4.0496,-4.0496,-4.0496,-4.0496,-4.0496,-4.0496,-4.0496,-4.0496,-4.0212,-3.9773,-3.9369,-3.86,-3.7685,-3.6883,-3.6167,-3.5625,-3.5689,-3.5727,-3.5642,-3.5166,-3.4431,-3.3722,-3.3295,-3.2903,-3.2409,-3.1528,-3.1365,-3.1276,-3.0929,-3.0855,-3.0291,-2.8573,-2.83,-2.7695,-2.5957,-2.6035,0.0,-2.6289,-2.7051,-2.7598,-2.7598,-2.8027,-2.8105,-2.7637,0.0,0.0,-2.6934,-2.7793,-2.8085,-2.7615,-2.8435,-2.9277,-3.0084,-3.0492,-3.0643,-3.0549,-3.0477,-3.0446,-3.043,-3.0406,-3.0425,-3.0439,-3.0403,-3.0433,-3.0504,-3.0504,-3.0504,-3.0504,-3.0495,-3.0505,-3.0496,-3.0535,-3.0569,-3.0598,-4.4033,-4.4091,-4.4166,-4.4236,-4.4346,-4.4465,-4.4585,-4.4714,-4.4843,-4.496,-4.5061,-4.5106,-4.5106,-4.5246,-4.5339,-4.5332,-4.5457,-4.5559,-4.5594,-4.5594,-4.5594,-4.5594,-4.5594,-4.5248,-4.4509,-4.4374,-4.3547,-4.2,-4.2,-4.1623,-4.09,-4.09,-4.09,-4.09,-4.0746,-4.0708,-4.0689,-4.0554,-4.0496,-4.0496,-4.0496,-4.0496,-4.0496,-4.0496,-4.0496,-4.0496,-4.0496,-4.0496,-4.0496,-4.0496,-4.0511,-4.0364,-3.9634,-3.93,-3.9061,-3.8312,-3.7041,-3.5849,-3.5789,-3.5726,-3.5683,-3.567,-3.5169,-3.4632,-3.4517,-3.3965,-3.3228,-3.2352,-3.222,-3.2007,-3.1142,-3.0976,-3.0398,-2.8588,-2.8297,-2.7733,-2.6113,0.0,-2.7051,-2.7187,-2.7969,-2.8496,-2.8496,-2.8613,-2.8691,-2.8691,-2.8691,-2.8633,0.0,-2.8613,-2.8632,-2.8495,-2.9218,-2.998,-3.0795,-3.0743,-3.0685,-3.0611,-3.0565,-3.0525,-3.0516,-3.0465,-3.0455,-3.0504,-3.0439,-3.0433,-3.0474,-3.0474,-3.0488,-3.0488,-3.0474,-3.049,-3.0486,-3.051,-3.0545,-3.0588,-4.3818,-4.3851,-4.3883,-4.3961,-4.4036,-4.4091,-4.4181,-4.4322,-4.4402,-4.4416,-4.4578,-4.4682,-4.4682,-4.4856,-4.4996,-4.5052,-4.5191,-4.5352,-4.5586,-4.5594,-4.5594,-4.5594,-4.5594,-4.5537,-4.5402,-4.4682,-4.3835,-4.2893,-4.2893,-4.2835,-4.2701,-4.2701,-4.2701,-4.2662,-4.1931,-4.1604,-4.1546,-4.0804,-4.0496,-4.0496,-4.0496,-4.0496,-4.0496,-4.0496,-4.0496,-4.0496,-4.0496,-4.0496,-4.0496,-4.0496,-4.0489,-4.0489,-4.0335,-3.9792,-3.9165,-3.9031,-3.8297,-3.7397,-3.6786,-3.6125,-3.5628,-3.5623,-3.5519,-3.5245,-3.4575,-3.4318,-3.3992,-3.3177,-3.3027,-3.2782,-3.1953,-3.1802,-3.104,-2.8679,-2.8295,-2.7947,-2.6933,0.0,-2.7266,-2.8008,-2.8867,-2.9394,-2.9394,-3.0059,-3.0508,-3.0508,-3.0508,-3.0176,-2.9434,-3.0098,-3.0156,-2.9414,-2.9531,-2.9999,-3.0784,-3.0783,-3.0752,-3.0689,-3.0662,-3.0642,-3.0579,-3.0576,-3.0535,-3.051,-3.0485,-3.0463,-3.0422,-3.0414,-3.0421,-3.0421,-3.0411,-3.0422,-3.0414,-3.0479,-3.0509,-3.0519,-4.3635,-4.3652,-4.3652,-4.3684,-4.3699,-4.3781,-4.3929,-4.4017,-4.4109,-4.4136,-4.425,-4.4336,-4.4336,-4.4484,-4.4624,-4.4726,-4.4849,-4.5019,-4.5211,-4.5429,-4.555,-4.555,-4.5577,-4.5594,-4.5594,-4.521,-4.4586,-4.3739,-4.3739,-4.3528,-4.3104,-4.3104,-4.3104,-4.3085,-4.2681,-4.2508,-4.247,-4.2066,-4.1893,-4.1893,-4.1893,-4.1893,-4.1893,-4.1893,-4.1604,-4.12,-4.12,-4.0893,-4.0496,-4.0496,-4.0496,-4.0496,-4.0496,-4.0212,-3.9896,-3.9896,-3.895,-3.7732,-3.6957,-3.6484,-3.61,-3.565,-3.5554,-3.5443,-3.5081,-3.5019,-3.4814,-3.3974,-3.3819,-3.3583,-3.2753,-3.2247,-3.1423,-2.9853,-2.9235,0.0,0.0,-2.808,-2.8552,-2.8945,-2.9765,-3.0293,-3.0293,-3.0664,-3.0898,-3.0898,-3.0898,-3.0723,-3.0312,-3.0684,-3.0723,-3.0312,-3.0293,-3.0467,-3.0791,-3.0803,-3.0789,-3.0747,-3.0743,-3.072,-3.0658,-3.0642,-3.0642,-3.0617,-3.0563,-3.053,-3.0506,-3.0476,-3.0455,-3.0458,-3.0439,-3.0444,-3.0444,-3.0458,-3.0469,-3.0504,-4.3551,-4.3515,-4.3515,-4.3515,-4.3515,-4.3549,-4.3703,-4.3767,-4.3832,-4.3878,-4.3939,-4.3968,-4.3968,-4.4121,-4.4246,-4.4374,-4.4511,-4.4624,-4.4751,-4.5096,-4.5322,-4.5429,-4.5514,-4.555,-4.5577,-4.5568,-4.5232,-4.4568,-4.456,-4.4252,-4.3665,-4.3665,-4.3673,-4.3662,-4.347,-4.3374,-4.3374,-4.3181,-4.3104,-4.3104,-4.3104,-4.3104,-4.3104,-4.3104,-4.2681,-4.2104,-4.2104,-4.1662,-4.1073,-4.0881,-4.0804,-4.0766,-4.0554,-4.0496,-4.0496,-4.0496,-3.955,-3.8278,-3.7288,-3.6846,-3.6538,-3.5923,-3.5643,-3.5496,-3.5496,-3.5534,-3.5397,-3.4722,-3.4621,-3.4394,-3.3548,-3.2874,-3.212,-3.1125,0.0,0.0,0.0,-2.9233,-2.9655,-2.9859,-3.0466,-3.0878,-3.0898,-3.0898,-3.0898,-3.0898,-3.0898,-3.0898,-3.0898,-3.0898,-3.0898,-3.0898,-3.0898,-3.0877,-3.0817,-3.0814,-3.0828,-3.082,-3.0812,-3.076,-3.0724,-3.0721,-3.0714,-3.0701,-3.0641,-3.0614,-3.0614,-3.0561,-3.051,-3.053,-3.0525,-3.051,-3.05,-3.0444,-3.0469,-3.0504,-4.3662,-4.3515,-4.3515,-4.3515,-4.3515,-4.3496,-4.3532,-4.3532,-4.3513,-4.3549,-4.3599,-4.3632,-4.3632,-4.3798,-4.3961,-4.4017,-4.4166,-4.4279,-4.4346,-4.4552,-4.4838,-4.5213,-4.5348,-4.5448,-4.5504,-4.5438,-4.54,-4.5408,-4.5342,-4.5323,-4.5312,-4.5312,-4.5358,-4.5383,-4.4566,-4.4201,-4.4162,-4.3412,-4.3104,-4.3104,-4.3104,-4.3104,-4.3104,-4.3104,-4.3066,-4.3008,-4.3008,-4.2951,-4.2797,-4.1989,-4.1692,-4.1566,-4.0746,-4.0496,-4.0496,-4.0496,-4.0419,-3.995,-3.8334,-3.7315,-3.6692,-3.6635,-3.6038,-3.5507,-3.5507,-3.5507,-3.5489,-3.5412,-3.5425,-3.5174,-3.4353,-3.4154,-3.3596,-3.1986,0.0,0.0,-3.0511,-2.9922,-2.9809,-3.0626,-3.0773,-3.0837,-3.0897,-3.0898,-3.0898,-3.0898,-3.0898,-3.0898,-3.0898,-3.0898,-3.0898,-3.0898,-3.0898,-3.0898,-3.0897,-3.0897,-3.0896,-3.0893,-3.083,-3.0805,-3.0798,-3.0791,-3.0758,-3.0696,-3.0691,-3.0689,-3.0691,-3.0618,-3.0595,-3.0587,-3.0589,-3.0558,-3.0492,-3.0482,-3.05,-3.0504,-4.4397,-4.3828,-4.3515,-4.3515,-4.3515,-4.3515,-4.3515,-4.3515,-4.3515,-4.3515,-4.3513,-4.3549,-4.3549,-4.3617,-4.3666,-4.3749,-4.3862,-4.3974,-4.4048,-4.421,-4.4498,-4.4981,-4.5184,-4.5277,-4.531,-4.5339,-4.5339,-4.531,-4.529,-4.529,-4.531,-4.5302,-4.5362,-4.5466,-4.5167,-4.5059,-4.5094,-4.4786,-4.4643,-4.4643,-4.4643,-4.4643,-4.4643,-4.4643,-4.4316,-4.3835,-4.3835,-4.3528,-4.3047,-4.272,-4.2604,-4.245,-4.1585,-4.1316,-4.12,-4.0669,-4.0496,-4.0362,-3.9727,-3.8931,-3.8046,-3.6962,-3.6462,-3.6115,-3.5615,-3.55,-3.5507,-3.5501,-3.5508,-3.5418,-3.5091,-3.4603,-3.4041,-3.3443,0.0,-3.2156,-3.2186,-3.1492,-3.1126,-3.1493,-3.111,-3.0816,-3.0848,-3.0836,-3.0858,-3.0898,-3.0898,-3.0898,-3.0898,-3.0898,-3.0898,-3.0898,-3.0898,-3.0898,-3.0898,-3.0898,-3.0898,-3.0898,-3.0878,-3.0857,-3.0853,-3.0852,-3.0827,-3.0756,-3.0765,-3.0755,-3.0765,-3.0723,-3.0708,-3.0656,-3.0665,-3.0651,-3.0618,-3.0582,-3.0567,-3.0559,-4.5241,-4.4433,-4.3883,-4.3883,-4.3663,-4.3515,-4.3515,-4.3515,-4.3515,-4.3515,-4.3515,-4.3515,-4.3515,-4.3515,-4.3513,-4.3565,-4.3651,-4.3736,-4.3767,-4.3926,-4.4206,-4.4688,-4.4862,-4.4972,-4.5007,-4.5072,-4.5084,-4.5042,-4.5038,-4.5049,-4.5114,-4.5109,-4.5188,-4.5331,-4.539,-4.5438,-4.5542,-4.5542,-4.5532,-4.555,-4.5568,-4.5568,-4.5568,-4.5586,-4.5229,-4.4701,-4.4701,-4.4355,-4.3835,-4.3566,-4.347,-4.3335,-4.2489,-4.2019,-4.1673,-4.1085,-4.0708,-4.0496,-4.0496,-4.0092,-3.9342,-3.7873,-3.7315,-3.6885,-3.6077,-3.5885,-3.5808,-3.5558,-3.55,-3.55,-3.55,-3.502,-3.4616,-3.468,-3.3977,-3.3448,-3.3465,-3.2787,-3.2202,-3.1988,-3.1501,-3.1068,-3.0804,-3.0784,-3.0812,-3.0874,-3.0877,-3.0878,-3.0898,-3.0898,-3.0898,-3.0898,-3.0898,-3.0898,-3.0898,-3.0898,-3.0898,-3.0898,-3.0898,-3.0898,-3.0898,-3.0898,-3.0877,-3.0834,-3.083,-3.0826,-3.0823,-3.0815,-3.0767,-3.0721,-3.0724,-3.0721,-3.0712,-3.0652,-3.0639,-3.0622,-4.6067,-4.5278,-4.4709,-4.4727,-4.4048,-4.3515,-4.3515,-4.3515,-4.3515,-4.3515,-4.3515,-4.3515,-4.3515,-4.3515,-4.3515,-4.3515,-4.3515,-4.3515,-4.3515,-4.3686,-4.3961,-4.4275,-4.436,-4.4452,-4.4591,-4.4661,-4.47,-4.4707,-4.47,-4.4757,-4.4883,-4.4883,-4.4991,-4.5192,-4.5192,-4.5275,-4.5398,-4.5408,-4.54,-4.541,-4.5476,-4.5504,-4.5504,-4.5577,-4.5594,-4.5594,-4.5594,-4.5594,-4.5479,-4.4605,-4.4316,-4.4162,-4.3355,-4.2508,-4.1808,-4.1788,-4.1181,-4.0516,-4.0496,-4.0496,-4.0304,-3.9496,-3.8642,-3.7777,-3.6904,-3.6692,-3.6462,-3.5673,-3.55,-3.55,-3.55,-3.55,-3.55,-3.55,-3.4777,-3.4231,-3.43,-3.3625,-3.2803,-3.2003,-3.1964,-3.1679,-3.0796,-3.0774,-3.0815,-3.08,-3.0807,-3.0832,-3.0897,-3.0898,-3.0898,-3.0898,-3.0898,-3.0898,-3.0898,-3.0898,-3.0898,-3.0898,-3.0898,-3.0898,-3.0898,-3.0898,-3.0898,-3.0898,-3.0898,-3.0897,-3.0897,-3.0832,-3.079,-3.081,-3.0804,-3.0792,-3.0799,-3.0721,-3.07,-3.0708,-4.6892,-4.6544,-4.6214,-4.5645,-4.4874,-4.4342,-4.4342,-4.3864,-4.3515,-4.3515,-4.3515,-4.3515,-4.3515,-4.3515,-4.3515,-4.3515,-4.3515,-4.3515,-4.3515,-4.3549,-4.3632,-4.3728,-4.4026,-4.4206,-4.425,-4.4308,-4.4327,-4.4279,-4.4283,-4.4298,-4.4341,-4.4435,-4.4552,-4.472,-4.49,-4.5007,-4.5068,-4.5194,-4.5256,-4.5258,-4.538,-4.5429,-4.5438,-4.5448,-4.5448,-4.5448,-4.5448,-4.5448,-4.5409,-4.516,-4.5111,-4.5003,-4.4192,-4.3374,-4.2585,-4.1981,-4.1623,-4.1277,-4.0669,-4.0496,-4.0304,-3.9496,-3.9111,-3.8681,-3.7815,-3.7142,-3.6635,-3.6385,-3.5885,-3.55,-3.55,-3.55,-3.55,-3.55,-3.5276,-3.5116,-3.5142,-3.4411,-3.3797,-3.3616,-3.3093,-3.246,-3.1623,-3.1598,-3.1383,-3.0784,-3.0768,-3.0804,-3.0832,-3.0836,-3.0858,-3.0898,-3.0898,-3.0898,-3.0898,-3.0898,-3.0898,-3.0898,-3.0898,-3.0898,-3.0898,-3.0898,-3.0898,-3.0898,-3.0898,-3.0898,-3.0898,-3.0878,-3.0878,-3.0878,-3.0875,-3.0834,-3.0793,-3.0771,-3.0761,-3.0765,-4.7663,-4.7314,-4.6947,-4.6471,-4.5718,-4.5076,-4.4746,-4.4287,-4.3864,-4.3551,-4.3515,-4.3515,-4.3515,-4.3515,-4.3515,-4.3515,-4.3515,-4.3515,-4.3515,-4.3515,-4.3515,-4.3515,-4.373,-4.3876,-4.3908,-4.3986,-4.4017,-4.3974,-4.3974,-4.3989,-4.4017,-4.4091,-4.4206,-4.4346,-4.4522,-4.4623,-4.4714,-4.4826,-4.4948,-4.5057,-4.5159,-4.5224,-4.5277,-4.531,-4.5341,-4.5361,-4.5361,-4.5361,-4.5361,-4.5361,-4.54,-4.539,-4.49,-4.4207,-4.3464,-4.2945,-4.2569,-4.2124,-4.1258,-4.1008,-4.0816,-3.9977,-3.9765,-3.9554,-3.87,-3.8104,-3.7526,-3.6846,-3.6308,-3.5885,-3.5558,-3.55,-3.55,-3.55,-3.55,-3.55,-3.55,-3.5052,-3.4597,-3.4301,-3.3853,-3.3246,-3.2416,-3.2395,-3.2232,-3.1737,-3.1436,-3.1267,-3.1277,-3.0979,-3.0811,-3.0853,-3.0856,-3.0878,-3.0898,-3.0898,-3.0898,-3.0898,-3.0898,-3.0898,-3.0898,-3.0898,-3.0898,-3.0898,-3.0898,-3.0898,-3.0898,-3.0898,-3.0898,-3.0898,-3.0898,-3.0879,-3.0839,-3.0839,-3.0837,-3.0832,-4.8306,-4.77,-4.7204,-4.7204,-4.6544,-4.5755,-4.5021,-4.4783,-4.4452,-4.3699,-4.3551,-4.3515,-4.3515,-4.3515,-4.3515,-4.3515,-4.3515,-4.3515,-4.3515,-4.3515,-4.3515,-4.3515,-4.3515,-4.3513,-4.3582,-4.3719,-4.3771,-4.3771,-4.3771,-4.3802,-4.3865,-4.3865,-4.3942,-4.4064,-4.406,-4.4177,-4.436,-4.4374,-4.4517,-4.4745,-4.4833,-4.4931,-4.5049,-4.5125,-4.5192,-4.5254,-4.5254,-4.5254,-4.5254,-4.5265,-4.5307,-4.5348,-4.5359,-4.4911,-4.4373,-4.4296,-4.3756,-4.2983,-4.2118,-4.183,-4.1588,-4.0796,-4.0546,-4.0304,-3.9573,-3.9361,-3.8854,-3.7257,-3.6865,-3.6577,-3.575,-3.5615,-3.5577,-3.5519,-3.55,-3.55,-3.55,-3.55,-3.5206,-3.4405,-3.4378,-3.4062,-3.3183,-3.3097,-3.3122,-3.3192,-3.2503,-3.2094,-3.2116,-3.1412,-3.1024,-3.1011,-3.0941,-3.0949,-3.1013,-3.0935,-3.0897,-3.0898,-3.0898,-3.0898,-3.0898,-3.0898,-3.0898,-3.0898,-3.0898,-3.0898,-3.0898,-3.0898,-3.0898,-3.0898,-3.0898,-3.0898,-3.0898,-3.0897,-3.0898,-3.0898,-4.8306,-4.8159,-4.8049,-4.8049,-4.7369,-4.6782,-4.6599,-4.5498,-4.4654,-4.447,-4.3883,-4.3515,-4.3515,-4.3515,-4.3515,-4.3515,-4.3515,-4.3515,-4.3515,-4.3515,-4.3515,-4.3515,-4.3515,-4.3515,-4.3513,-4.3549,-4.3566,-4.3566,-4.3566,-4.3566,-4.36,-4.3632,-4.3682,-4.3732,-4.3862,-4.3958,-4.402,-4.4121,-4.4196,-4.4269,-4.4448,-4.4525,-4.4565,-4.4739,-4.4827,-4.4821,-4.4821,-4.4821,-4.4852,-4.4943,-4.501,-4.5033,-4.5136,-4.5099,-4.4866,-4.4187,-4.3903,-4.3627,-4.2814,-4.2123,-4.1611,-4.1473,-4.0965,-4.0458,-4.0285,-3.9746,-3.9188,-3.8815,-3.818,-3.7469,-3.6596,-3.6442,-3.6231,-3.5596,-3.55,-3.55,-3.55,-3.55,-3.5423,-3.5238,-3.5225,-3.4899,-3.4025,-3.339,-3.3044,-3.3117,-3.2966,-3.2884,-3.2935,-3.2765,-3.2697,-3.2757,-3.2145,-3.1828,-3.1831,-3.1155,-3.0853,-3.0898,-3.0898,-3.0898,-3.0898,-3.0898,-3.0898,-3.0898,-3.0898,-3.0898,-3.0898,-3.0898,-3.0898,-3.0898,-3.0898,-3.0898,-3.0897,-3.0897,-3.0897,-3.0898,-4.8151,-4.8151,-4.8151,-4.8151,-4.7803,-4.742,-4.7092,-4.6341,-4.5517,-4.4801,-4.4342,-4.392,-4.3551,-4.3515,-4.3515,-4.3515,-4.3515,-4.3515,-4.3515,-4.3515,-4.3515,-4.3515,-4.3515,-4.3515,-4.3515,-4.3515,-4.3515,-4.3515,-4.3515,-4.3515,-4.3515,-4.3549,-4.3548,-4.3548,-4.3667,-4.3734,-4.3749,-4.3828,-4.3908,-4.4002,-4.4121,-4.4192,-4.4265,-4.4369,-4.443,-4.4472,-4.4472,-4.4472,-4.4467,-4.4535,-4.4589,-4.4629,-4.4707,-4.482,-4.4823,-4.4374,-4.4323,-4.4252,-4.3454,-4.2964,-4.2518,-4.1743,-4.1299,-4.0935,-4.0577,-4.0169,-3.9765,-3.9381,-3.8938,-3.8354,-3.7488,-3.7315,-3.7046,-3.6212,-3.6077,-3.5942,-3.5558,-3.55,-3.55,-3.55,-3.55,-3.5315,-3.4866,-3.4436,-3.4214,-3.4237,-3.3898,-3.3697,-3.3723,-3.3361,-3.3169,-3.3248,-3.2836,-3.2435,-3.2065,-3.1609,-3.1178,-3.0807,-3.0835,-3.0877,-3.0897,-3.0898,-3.0898,-3.0898,-3.0898,-3.0898,-3.0898,-3.0898,-3.0898,-3.0898,-3.0898,-3.0898,-3.0898,-3.0898,-3.0898,-3.0897,-4.7872,-4.7911,-4.7911,-4.7911,-4.7911,-4.7733,-4.7212,-4.7012,-4.6466,-4.5205,-4.4949,-4.4563,-4.3774,-4.3571,-4.357,-4.3681,-4.3588,-4.3515,-4.3515,-4.3515,-4.3515,-4.3515,-4.3515,-4.3515,-4.3515,-4.3515,-4.3515,-4.3515,-4.3515,-4.3515,-4.3515,-4.3515,-4.3515,-4.3515,-4.3515,-4.3513,-4.3582,-4.3582,-4.3666,-4.3832,-4.3849,-4.391,-4.4033,-4.4048,-4.4094,-4.4136,-4.4136,-4.4136,-4.4136,-4.4151,-4.4196,-4.4236,-4.4236,-4.4346,-4.4498,-4.4465,-4.4612,-4.4631,-4.398,-4.379,-4.3455,-4.2106,-4.1655,-4.1379,-4.0792,-4.0572,-4.0315,-3.965,-3.9515,-3.9246,-3.8373,-3.8219,-3.793,-3.7058,-3.6923,-3.6635,-3.5827,-3.5712,-3.5654,-3.5519,-3.55,-3.55,-3.55,-3.5495,-3.5496,-3.5496,-3.4885,-3.451,-3.4515,-3.3884,-3.3543,-3.361,-3.3486,-3.3076,-3.2425,-3.2269,-3.176,-3.0901,-3.0959,-3.0959,-3.0872,-3.0875,-3.0876,-3.0876,-3.0878,-3.0878,-3.0878,-3.0879,-3.0879,-3.0879,-3.0898,-3.0898,-3.0898,-3.0898,-3.0898,-3.0897,-4.741,-4.7493,-4.7575,-4.7575,-4.7575,-4.7582,-4.7596,-4.7044,-4.6579,-4.6361,-4.5934,-4.5334,-4.4547,-4.3867,-4.3773,-4.4488,-4.3901,-4.3515,-4.3515,-4.3515,-4.3515,-4.3515,-4.3515,-4.3515,-4.3515,-4.3515,-4.3515,-4.3515,-4.3515,-4.3515,-4.3515,-4.3515,-4.3515,-4.3515,-4.3515,-4.3515,-4.3496,-4.3496,-4.3532,-4.3566,-4.3615,-4.3649,-4.3682,-4.3802,-4.3853,-4.3851,-4.3851,-4.3851,-4.3867,-4.3913,-4.3961,-4.3942,-4.3942,-4.402,-4.4045,-4.3931,-4.4038,-4.4217,-4.4215,-4.3775,-4.3297,-4.3305,-4.2261,-4.1265,-4.1274,-4.087,-4.0468,-4.0354,-4.0342,-4.0092,-3.9265,-3.913,-3.8834,-3.7969,-3.7815,-3.7526,-3.6654,-3.6538,-3.6269,-3.5577,-3.55,-3.55,-3.55,-3.5507,-3.5507,-3.5507,-3.5398,-3.5348,-3.5342,-3.5283,-3.5261,-3.5276,-3.4603,-3.4187,-3.4081,-3.3328,-3.2543,-3.1734,-3.1744,-3.1412,-3.0817,-3.0803,-3.0804,-3.0805,-3.0805,-3.0806,-3.0806,-3.0811,-3.0812,-3.0813,-3.0877,-3.0897,-3.0897,-3.0898,-3.0898,-3.0898,-4.666,-4.6835,-4.6967,-4.6863,-4.6972,-4.7143,-4.7236,-4.7104,-4.6853,-4.6481,-4.6321,-4.5949,-4.5146,-4.4894,-4.4949,-4.5351,-4.4635,-4.4176,-4.4176,-4.3736,-4.3515,-4.3515,-4.3463,-4.3446,-4.3446,-4.3446,-4.3446,-4.3446,-4.348,-4.3515,-4.3515,-4.3515,-4.3515,-4.3515,-4.3515,-4.3515,-4.3515,-4.3515,-4.3515,-4.3496,-4.3531,-4.3531,-4.3548,-4.36,-4.3617,-4.3617,-4.3617,-4.3617,-4.3652,-4.3667,-4.3684,-4.3684,-4.3684,-4.3716,-4.3747,-4.3714,-4.3828,-4.4005,-4.4064,-4.3886,-4.3605,-4.3291,-4.2767,-4.2102,-4.1252,-4.0948,-4.0759,-4.0445,-4.0419,-4.034,-3.9975,-3.9917,-3.9637,-3.8816,-3.8662,-3.8381,-3.7538,-3.743,-3.7123,-3.6269,-3.5769,-3.55,-3.55,-3.55,-3.55,-3.55,-3.55,-3.5507,-3.5489,-3.5528,-3.5534,-3.5534,-3.521,-3.4803,-3.4351,-3.3967,-3.3354,-3.2512,-3.2555,-3.1937,-3.073,-3.0741,-3.0747,-3.0747,-3.0734,-3.0737,-3.0737,-3.0746,-3.0749,-3.075,-3.0823,-3.0849,-3.0831,-3.0833,-3.0835,-3.0837]},{"header":{"parameterUnit":"m.s-1","parameterCategory":1,"la1":30.6,"la2":28.766,"lo1":-90.7593,"lo2":-88.6598,"dy":0.0162,"dx":0.0183,"nx":116,"ny":114,"refTime":"2024-06-27T18:00:00:Z","depth":0,"parameterNumber":3,"parameterNumberName":"V-component_of_WINDS"},"data":[0.0,0.0,0.0,0.0,0.0,0.0,0.0,0.0,0.0,0.0,0.0,0.0,0.0,0.0,0.0,0.0,0.0,0.0,0.0,0.0,0.0,0.0,0.0,0.0,0.0,0.0,0.0,0.0,0.0,0.0,0.0,0.0,0.0,0.0,0.0,0.0,0.0,0.0,0.0,0.0,0.0,0.0,0.0,0.0,0.0,0.0,0.0,0.0,0.0,0.0,0.0,0.0,0.0,0.0,0.0,0.0,0.0,0.0,0.0,0.0,0.0,0.0,0.0,0.0,0.0,0.0,0.0,0.0,0.0,0.0,0.0,0.0,0.0,0.0,0.0,0.0,0.0,0.0,0.0,0.0,0.0,0.0,0.0,0.0,0.0,0.0,0.0,0.0,0.0,0.0,0.0,0.0,0.0,0.0,0.0,0.0,0.0,0.0,0.0,0.0,0.0,0.0,0.0,0.0,0.0,0.0,0.0,0.0,0.0,0.0,0.0,0.0,0.0,0.0,0.0,0.0,0.0,0.0,0.0,0.0,0.0,0.0,0.0,0.0,0.0,0.0,0.0,0.0,0.0,0.0,0.0,0.0,0.0,0.0,0.0,0.0,0.0,0.0,0.0,0.0,0.0,0.0,0.0,0.0,0.0,0.0,0.0,0.0,0.0,0.0,0.0,0.0,0.0,0.0,0.0,0.0,0.0,0.0,0.0,0.0,0.0,0.0,0.0,0.0,0.0,0.0,0.0,0.0,0.0,0.0,0.0,0.0,0.0,0.0,0.0,0.0,0.0,0.0,0.0,0.0,0.0,0.0,0.0,0.0,0.0,0.0,0.0,0.0,0.0,0.0,0.0,0.0,0.0,0.0,0.0,0.0,0.0,0.0,0.0,0.0,0.0,0.0,0.0,0.0,0.0,0.0,0.0,0.0,0.0,0.0,0.0,0.0,0.0,0.0,0.0,0.0,0.0,0.0,0.0,0.0,0.0,0.0,0.0,0.0,0.0,0.0,0.0,0.0,0.0,0.0,0.0,0.0,0.0,0.0,0.0,0.0,0.0,0.0,0.0,0.0,0.0,0.0,0.0,0.0,0.0,0.0,0.0,0.0,0.0,0.0,0.0,0.0,0.0,0.0,0.0,0.0,0.0,0.0,0.0,0.0,0.0,0.0,0.0,0.0,0.0,0.0,0.0,0.0,0.0,0.0,0.0,0.0,0.0,0.0,0.0,0.0,0.0,0.0,0.0,0.0,0.0,0.0,0.0,0.0,0.0,0.0,0.0,0.0,0.0,0.0,0.0,0.0,0.0,0.0,0.0,0.0,0.0,0.0,0.0,0.0,0.0,0.0,0.0,0.0,0.0,0.0,0.0,0.0,0.0,0.0,0.0,0.0,0.0,0.0,0.0,0.0,0.0,0.0,0.0,0.0,0.0,0.0,0.0,0.0,0.0,0.0,0.0,0.0,0.0,0.0,0.0,0.0,0.0,0.0,0.0,0.0,0.0,0.0,0.0,0.0,0.0,0.0,0.0,0.0,0.0,0.0,0.0,0.0,0.0,0.0,0.0,0.0,0.0,0.0,0.0,0.0,0.0,0.0,0.0,0.0,0.0,0.0,0.0,0.0,0.0,0.0,0.0,0.0,0.0,0.0,0.0,0.0,0.0,0.0,0.0,0.0,0.0,0.0,0.0,0.0,0.0,0.0,0.0,0.0,0.0,0.0,0.0,0.0,0.0,0.0,0.0,0.0,0.0,0.0,0.0,0.0,0.0,0.0,0.0,0.0,0.0,0.0,0.0,0.0,0.0,0.0,0.0,0.0,0.0,0.0,0.0,0.0,0.0,0.0,0.0,0.0,0.0,0.0,0.0,0.0,0.0,0.0,0.0,0.0,0.0,0.0,0.0,0.0,0.0,0.0,0.0,0.0,0.0,0.0,0.0,0.0,0.0,0.0,0.0,0.0,0.0,0.0,0.0,0.0,0.0,0.0,0.0,0.0,0.0,0.0,0.0,0.0,0.0,0.0,0.0,0.0,0.0,0.0,0.0,0.0,0.0,0.0,0.0,0.0,0.0,0.0,0.0,0.0,0.0,0.0,0.0,0.0,0.0,0.0,0.0,0.0,0.0,0.0,0.0,0.0,0.0,0.0,0.0,0.0,0.0,0.0,0.0,0.0,0.0,0.0,0.0,0.0,0.0,0.0,0.0,0.0,0.0,0.0,0.0,0.0,0.0,0.0,0.0,0.0,0.0,0.0,0.0,0.0,0.0,0.0,0.0,0.0,0.0,0.0,0.0,0.0,0.0,0.0,0.0,0.0,0.0,0.0,0.0,0.0,0.0,0.0,0.0,0.0,0.0,0.0,0.0,0.0,0.0,0.0,0.0,0.0,0.0,0.0,0.0,0.0,0.0,0.0,0.0,0.0,0.0,0.0,0.0,0.0,0.0,0.0,0.0,0.0,0.0,0.0,0.0,0.0,0.0,0.0,0.0,0.0,0.0,0.0,0.0,0.0,0.0,0.0,0.0,0.0,0.0,0.0,0.0,0.0,0.0,0.0,0.0,0.0,0.0,0.0,0.0,0.0,0.0,0.0,0.0,0.0,0.0,0.0,0.0,0.0,0.0,0.0,0.0,0.0,0.0,0.0,0.0,0.0,0.0,0.0,0.0,0.0,0.0,0.0,0.0,0.0,0.0,0.0,0.0,0.0,0.0,0.0,0.0,0.0,0.0,0.0,0.0,0.0,0.0,0.0,0.0,0.0,0.0,0.0,0.0,0.0,0.0,0.0,0.0,0.0,0.0,0.0,0.0,0.0,0.0,0.0,0.0,0.0,0.0,0.0,0.0,0.0,0.0,0.0,0.0,0.0,0.0,0.0,0.0,0.0,0.0,0.0,0.0,0.0,0.0,0.0,0.0,0.0,0.0,0.0,0.0,0.0,0.0,0.0,0.0,0.0,0.0,0.0,0.0,0.0,0.0,0.0,0.0,0.0,0.0,0.0,0.0,0.0,0.0,0.0,0.0,0.0,0.0,0.0,0.0,0.0,0.0,0.0,0.0,0.0,0.0,0.0,0.0,0.0,0.0,0.0,0.0,0.0,0.0,0.0,0.0,0.0,0.0,0.0,0.0,0.0,0.0,0.0,0.0,0.0,0.0,0.0,0.0,0.0,0.0,0.0,0.0,0.0,0.0,0.0,0.0,0.0,0.0,0.0,0.0,0.0,0.0,0.0,0.0,0.0,0.0,0.0,0.0,0.0,0.0,0.0,0.0,0.0,0.0,0.0,0.0,0.0,0.0,0.0,0.0,0.0,0.0,0.0,0.0,0.0,0.0,0.0,0.0,0.0,0.0,0.0,0.0,0.0,0.0,0.0,0.0,0.0,0.0,0.0,0.0,0.0,0.0,0.0,0.0,0.0,0.0,0.0,0.0,0.0,0.0,0.0,0.0,0.0,0.0,0.0,0.0,0.0,0.0,0.0,0.0,0.0,0.0,0.0,0.0,0.0,0.0,0.0,0.0,0.0,0.0,0.0,0.0,0.0,0.0,0.0,0.0,0.0,0.0,0.0,0.0,0.0,0.0,0.0,0.0,0.0,0.0,0.0,0.0,0.0,0.0,0.0,0.0,0.0,0.0,0.0,0.0,0.0,0.0,0.0,0.0,0.0,0.0,0.0,0.0,0.0,0.0,0.0,0.0,0.0,0.0,0.0,0.0,0.0,0.0,0.0,0.0,0.0,0.0,0.0,0.0,0.0,0.0,0.0,0.0,0.0,0.0,0.0,0.0,0.0,0.0,0.0,0.0,0.0,0.0,0.0,0.0,0.0,0.0,0.0,0.0,0.0,0.0,0.0,0.0,0.0,0.0,0.0,0.0,0.0,0.0,0.0,0.0,0.0,0.0,0.0,0.0,0.0,0.0,0.0,0.0,0.0,0.0,0.0,0.0,0.0,0.0,0.0,0.0,0.0,0.0,0.0,0.0,0.0,0.0,0.0,0.0,0.0,0.0,0.0,0.0,0.0,0.0,0.0,0.0,0.0,0.0,0.0,0.0,0.0,0.0,0.0,0.0,0.0,0.0,0.0,0.0,0.0,0.0,0.0,0.0,0.0,0.0,0.0,0.0,0.0,0.0,0.0,0.0,0.0,0.0,0.0,0.0,0.0,0.0,0.0,0.0,0.0,0.0,0.0,0.0,0.0,0.0,0.0,0.0,0.0,0.0,0.0,0.0,0.0,0.0,0.0,0.0,0.0,0.0,0.0,0.0,0.0,0.0,0.0,0.0,0.0,0.0,0.0,0.0,0.0,0.0,0.0,0.0,0.0,0.0,0.0,0.0,0.0,0.0,0.0,0.0,0.0,0.0,0.0,0.0,0.0,0.0,0.0,0.0,0.0,0.0,0.0,0.0,0.0,0.0,0.0,0.0,0.0,0.0,0.0,0.0,0.0,0.0,0.0,0.0,0.0,0.0,0.0,0.0,0.0,0.0,0.0,0.0,0.0,0.0,0.0,0.0,0.0,0.0,0.0,0.0,0.0,0.0,0.0,0.0,0.0,0.0,0.0,0.0,0.0,0.0,0.0,0.0,0.0,0.0,0.0,0.0,0.0,0.0,0.0,0.0,0.0,0.0,0.0,0.0,0.0,0.0,0.0,0.0,0.0,0.0,0.0,0.0,0.0,0.0,0.0,0.0,0.0,0.0,0.0,0.0,0.0,0.0,0.0,0.0,0.0,0.0,0.0,0.0,0.0,0.0,0.0,0.0,0.0,0.0,0.0,0.0,0.0,0.0,0.0,0.0,0.0,0.0,0.0,0.0,0.0,0.0,0.0,0.0,0.0,0.0,0.0,0.0,0.0,0.0,0.0,0.0,0.0,0.0,0.0,0.0,0.0,0.0,0.0,0.0,0.0,0.0,0.0,0.0,0.0,0.0,0.0,0.0,0.0,0.0,0.0,0.0,0.0,0.0,0.0,0.0,0.0,0.0,0.0,0.0,0.0,0.0,0.0,0.0,0.0,0.0,0.0,0.0,0.0,0.0,0.0,0.0,0.0,0.0,0.0,0.0,0.0,0.0,0.0,0.0,0.0,0.0,0.0,0.0,0.0,0.0,0.0,0.0,0.0,0.0,0.0,0.0,0.0,0.0,0.0,0.0,0.0,0.0,0.0,0.0,0.0,0.0,0.0,0.0,0.0,0.0,0.0,0.0,0.0,0.0,0.0,0.0,0.0,0.0,0.0,0.0,0.0,0.0,0.0,0.0,0.0,0.0,0.0,0.0,0.0,0.0,0.0,0.0,0.0,0.0,0.0,0.0,0.0,0.0,0.0,0.0,0.0,0.0,0.0,0.0,0.0,0.0,0.0,0.0,0.0,0.0,0.0,0.0,0.0,0.0,0.0,0.0,0.0,0.0,0.0,0.0,0.0,0.0,0.0,0.0,0.0,0.0,0.0,0.0,0.0,0.0,0.0,0.0,0.0,0.0,0.0,0.0,0.0,0.0,0.0,0.0,0.0,0.0,0.0,0.0,0.0,0.0,0.0,0.0,0.0,0.0,0.0,0.0,0.0,0.0,0.0,0.0,0.0,0.0,0.0,0.0,0.0,0.0,0.0,0.0,0.0,0.0,0.0,0.0,0.0,0.0,0.0,0.0,0.0,0.0,0.0,0.0,0.0,0.0,0.0,0.0,0.0,0.0,0.0,0.0,0.0,0.0,0.0,0.0,0.0,0.0,0.0,0.0,0.0,0.0,0.0,0.0,0.0,0.0,0.0,0.0,0.0,0.0,0.0,0.0,0.0,0.0,0.0,0.0,0.0,0.0,0.0,0.0,0.0,0.0,0.0,0.0,0.0,0.0,0.0,0.0,0.0,0.0,0.0,0.0,0.0,0.0,0.0,0.0,0.0,0.0,0.0,0.0,0.0,0.0,0.0,0.0,0.0,0.0,0.0,0.0,0.0,0.0,0.0,0.0,0.0,0.0,0.0,0.0,0.0,0.0,0.0,0.0,0.0,0.0,0.0,0.0,0.0,0.0,0.0,0.0,0.0,0.0,0.0,0.0,0.0,0.0,0.0,0.0,0.0,0.0,0.0,0.0,0.0,0.0,0.0,0.0,0.0,0.0,0.0,0.0,0.0,-1.2799,0.0,0.0,0.0,0.0,0.0,0.0,0.0,0.0,0.0,0.0,0.0,0.0,0.0,0.0,0.0,0.0,0.0,0.0,0.0,0.0,0.0,0.0,0.0,0.0,-0.5097,-0.525,-0.5832,-0.6018,-0.6126,-0.6238,0.0,0.0,0.0,0.0,0.0,-0.5113,-0.4851,-0.4836,-0.5098,-0.4795,-0.486,-0.5264,-0.5286,-0.4924,-0.4235,0.0,0.0,0.0,0.0,0.0,0.0,0.0,0.0,0.0,0.0,0.0,0.0,0.0,0.0,0.0,0.0,0.0,0.0,0.0,0.0,0.0,0.0,0.0,0.0,0.0,0.0,0.0,0.0,0.0,0.0,0.0,0.0,0.0,0.0,0.0,0.0,0.0,0.0,0.0,0.0,0.0,0.0,0.0,0.0,0.0,0.0,0.0,0.0,0.0,0.0,0.0,0.0,0.0,0.0,0.0,0.0,0.0,0.0,0.0,0.0,0.0,0.0,0.0,0.0,0.0,0.0,0.0,0.0,0.0,0.0,0.0,-1.3622,0.0,0.0,0.0,0.0,0.0,0.0,0.0,0.0,0.0,0.0,0.0,0.0,0.0,0.0,0.0,0.0,0.0,0.0,0.0,0.0,0.0,-0.4172,-0.5554,-0.5355,-0.5421,-0.6209,-0.6317,-0.6425,-0.6653,0.0,0.0,0.0,0.0,-0.5699,-0.5214,-0.4819,-0.4849,-0.5298,-0.5324,-0.5786,-0.6593,-0.6796,-0.6201,0.0,-0.4709,0.0,0.0,0.0,0.0,0.0,0.0,0.0,0.0,0.0,0.0,0.0,0.0,0.0,0.0,0.0,0.0,0.0,0.0,0.0,0.0,0.0,0.0,0.0,0.0,0.0,0.0,0.0,0.0,0.0,0.0,0.0,0.0,0.0,0.0,0.0,0.0,0.0,0.0,0.0,0.0,0.0,0.0,0.0,0.0,0.0,0.0,0.0,0.0,0.0,0.0,0.0,0.0,0.0,0.0,0.0,0.0,0.0,0.0,0.0,0.0,0.0,0.0,0.0,-1.7064,-1.7504,-1.7127,-1.7313,-1.7368,-1.7261,-1.6013,-1.5232,-1.4802,0.0,0.0,0.0,0.0,0.0,0.0,0.0,0.0,0.0,0.0,0.0,0.0,0.0,0.0,0.0,0.0,0.0,0.0,0.0,0.0,-0.4886,-0.5621,-0.6099,-0.6406,-0.6539,-0.676,-0.6906,-0.694,-0.6779,0.0,0.0,-0.6122,-0.5871,-0.5631,-0.5556,-0.5712,-0.6051,-0.6805,-0.7504,-0.8184,0.0,0.0,0.0,-0.6338,-0.5776,0.0,0.0,0.0,0.0,0.0,0.0,0.0,0.0,0.0,0.0,0.0,0.0,0.0,0.0,0.0,0.0,0.0,0.0,0.0,0.0,0.0,0.0,0.0,0.0,0.0,0.0,0.0,0.0,0.0,0.0,0.0,0.0,0.0,0.0,0.0,0.0,0.0,0.0,0.0,0.0,0.0,0.0,-0.8054,-0.8213,0.0,0.0,0.0,0.0,0.0,0.0,0.0,0.0,0.0,0.0,0.0,0.0,0.0,-1.62,-1.6407,-1.7291,-1.7863,-1.8138,-1.8365,-1.8596,-1.8879,-1.8676,-1.848,-1.8293,-1.7849,0.0,-1.5791,-1.5569,0.0,0.0,0.0,0.0,0.0,0.0,0.0,0.0,0.0,0.0,0.0,0.0,0.0,0.0,0.0,0.0,0.0,0.0,0.0,0.0,0.0,-0.6433,-0.674,-0.7075,-0.7361,-0.7439,0.0,0.0,0.0,-0.6422,-0.6153,-0.5911,-0.5701,-0.5985,-0.6562,-0.7368,-0.8221,-0.8781,0.0,0.0,0.0,0.0,-0.8151,-0.7471,0.0,0.0,0.0,0.0,0.0,0.0,0.0,0.0,0.0,0.0,0.0,0.0,0.0,0.0,0.0,0.0,0.0,0.0,0.0,0.0,0.0,0.0,0.0,0.0,0.0,0.0,0.0,0.0,0.0,0.0,0.0,0.0,0.0,0.0,0.0,0.0,0.0,0.0,0.0,0.0,0.0,-0.796,-0.9016,-0.9286,-0.9894,-1.0206,0.0,0.0,0.0,0.0,0.0,0.0,0.0,0.0,0.0,-1.5953,-1.7066,-1.7797,-1.8095,-1.8676,-1.9033,-1.9239,-1.9444,-1.9632,-1.9804,-1.9413,-1.919,-1.91,-1.8689,-1.8045,-1.7271,-1.6677,-1.57,-1.4572,0.0,0.0,0.0,0.0,-1.3905,-1.4053,0.0,0.0,0.0,0.0,0.0,0.0,0.0,0.0,0.0,0.0,0.0,0.0,-0.658,-0.6787,-0.7042,-0.7603,0.0,0.0,0.0,0.0,0.0,-0.6526,-0.6124,-0.5945,-0.6007,-0.6787,-0.7716,-0.8768,-0.9497,0.0,0.0,0.0,0.0,0.0,0.0,0.0,0.0,0.0,0.0,0.0,0.0,0.0,0.0,0.0,0.0,0.0,0.0,0.0,0.0,0.0,0.0,0.0,0.0,0.0,0.0,0.0,0.0,0.0,0.0,0.0,0.0,0.0,0.0,0.0,0.0,0.0,0.0,0.0,0.0,0.0,0.0,0.0,0.0,0.0,0.0,0.0,0.0,-0.8978,-1.0136,-1.0728,-1.1416,-1.1775,0.0,0.0,0.0,0.0,0.0,0.0,-1.484,-1.6196,-1.7229,-1.781,-1.871,-1.9358,-1.9744,-2.0026,-2.0084,-1.999,-2.0309,-2.0386,-2.0292,-1.9853,-1.9671,-1.9671,-1.9104,-1.8768,-1.8457,-1.7672,-1.6701,-1.5736,-1.5578,-1.5053,-1.445,-1.4946,-1.5181,-1.5373,0.0,0.0,0.0,0.0,0.0,0.0,0.0,0.0,0.0,0.0,0.0,-0.6073,0.0,0.0,0.0,0.0,0.0,0.0,0.0,0.0,0.0,-0.6787,-0.6106,-0.6062,-0.683,-0.8308,0.0,0.0,0.0,0.0,0.0,0.0,0.0,0.0,0.0,0.0,0.0,0.0,0.0,0.0,0.0,0.0,0.0,0.0,0.0,0.0,0.0,0.0,0.0,0.0,0.0,0.0,0.0,0.0,0.0,0.0,0.0,0.0,0.0,0.0,0.0,0.0,0.0,0.0,0.0,0.0,0.0,0.0,0.0,0.0,0.0,0.0,0.0,0.0,0.0,0.0,0.0,0.0,0.0,-1.2635,-1.2922,0.0,0.0,0.0,0.0,-1.4466,-1.5567,-1.6428,-1.6839,-1.7885,-1.8923,-1.983,-2.0465,-2.0934,-2.1293,-2.1319,-2.1156,-2.0823,-2.084,-2.0651,-2.0292,-2.0019,-1.9882,-1.9837,-1.9371,-1.918,-1.9131,-1.8473,-1.7811,-1.7175,-1.7193,-1.6913,-1.6539,-1.657,-1.6949,-1.748,0.0,0.0,0.0,-0.4141,-0.4141,-0.4141,-0.4141,-0.4456,-0.4898,-0.5484,-0.5997,0.0,0.0,0.0,0.0,0.0,0.0,0.0,0.0,0.0,-0.7655,-0.7828,-0.6953,-0.7109,-0.8488,-0.9421,-1.0257,0.0,0.0,0.0,0.0,0.0,0.0,0.0,0.0,0.0,0.0,0.0,0.0,0.0,0.0,0.0,0.0,0.0,0.0,0.0,0.0,0.0,0.0,0.0,0.0,0.0,0.0,0.0,0.0,0.0,0.0,0.0,0.0,0.0,0.0,0.0,0.0,0.0,0.0,0.0,0.0,0.0,0.0,0.0,0.0,0.0,0.0,0.0,0.0,0.0,0.0,0.0,0.0,-1.3742,-1.4498,0.0,-1.5375,-1.5939,-1.6362,-1.6596,-1.7245,-1.7995,-1.8893,-1.9398,-2.0059,-2.09,-2.1101,-2.1276,-2.1413,-2.1413,-2.1345,-2.1216,-2.0994,-2.0805,-2.066,-2.0129,-1.9882,-1.9882,-1.9571,-1.9442,-1.9433,-1.9211,-1.8689,-1.7938,-1.7938,-1.7715,-1.7397,-1.7397,-1.7742,-1.8189,-0.4047,-0.3936,0.0,-0.3978,-0.4072,-0.4161,-0.4261,-0.469,-0.5213,-0.5785,-0.6305,-0.6895,0.0,0.0,0.0,0.0,0.0,0.0,0.0,0.0,-0.8474,-0.8707,-0.8172,-0.8479,-0.9787,-1.0498,0.0,0.0,0.0,0.0,0.0,0.0,0.0,0.0,0.0,0.0,0.0,0.0,0.0,0.0,0.0,0.0,-0.7998,0.0,0.0,0.0,0.0,0.0,0.0,0.0,0.0,0.0,0.0,0.0,0.0,0.0,0.0,0.0,0.0,0.0,0.0,0.0,0.0,0.0,0.0,0.0,0.0,0.0,0.0,0.0,0.0,0.0,0.0,0.0,0.0,0.0,0.0,0.0,-1.4681,-1.5194,-1.6181,-1.6887,-1.7057,-1.768,-1.817,-1.8377,-1.8885,-1.9533,-2.028,-2.0691,-2.1097,-2.1593,-2.173,-2.179,-2.179,-2.179,-2.173,-2.1602,-2.1234,-2.0994,-2.0865,-2.0288,-2.0019,-2.0019,-1.9799,-1.9716,-1.9716,-1.9633,-1.9257,-1.8712,-1.8659,-1.8425,-1.8128,-1.8128,-1.8394,-1.8748,-0.3408,-0.3457,-0.361,-0.3931,-0.4221,-0.4482,-0.4748,-0.5143,-0.561,-0.6133,-0.651,0.0,0.0,0.0,0.0,0.0,0.0,0.0,0.0,-0.9647,-0.9303,-0.932,-0.9657,-1.0104,-1.0616,0.0,0.0,0.0,0.0,0.0,0.0,0.0,0.0,0.0,0.0,0.0,0.0,0.0,0.0,0.0,0.0,0.0,-0.9563,0.0,0.0,0.0,0.0,0.0,0.0,0.0,0.0,0.0,0.0,0.0,0.0,0.0,0.0,0.0,0.0,0.0,0.0,0.0,0.0,0.0,0.0,0.0,0.0,0.0,0.0,0.0,0.0,0.0,0.0,0.0,0.0,0.0,-1.3232,-1.4633,-1.6144,-1.7058,-1.7946,-1.8566,-1.8826,-1.9459,-1.9814,-1.9734,-2.0472,-2.09,-2.0917,-2.1602,-2.2004,-2.2013,-2.2414,-2.2594,-2.2594,-2.2594,-2.2414,-2.2004,-2.1619,-2.1242,-2.0883,-2.0489,-2.03,-2.0292,-2.0019,-1.9928,-1.9882,-1.9716,-1.9633,-1.9587,-1.9288,-1.905,-1.8827,-1.8781,-1.8966,-1.9279,-0.3398,-0.3457,-0.3532,-0.3623,-0.4056,-0.4442,-0.4563,-0.5246,-0.5879,-0.6222,-0.6895,0.0,0.0,0.0,0.0,0.0,0.0,0.0,-1.0411,0.0,-0.9621,-0.9654,-1.0447,0.0,0.0,0.0,0.0,0.0,0.0,0.0,0.0,0.0,0.0,0.0,0.0,0.0,0.0,0.0,0.0,0.0,0.0,0.0,-0.9943,0.0,0.0,0.0,0.0,0.0,0.0,0.0,0.0,0.0,0.0,0.0,0.0,0.0,0.0,0.0,0.0,0.0,0.0,0.0,0.0,0.0,0.0,0.0,0.0,0.0,0.0,0.0,0.0,0.0,0.0,0.0,0.0,-1.5026,-1.5096,-1.6532,-1.7928,-1.8939,-1.9263,-1.9687,-2.0332,-2.0635,-2.0824,-2.0778,-2.1088,-2.1388,-2.1679,-2.1884,-2.2124,-2.2439,-2.2542,-2.2594,-2.2594,-2.2594,-2.2542,-2.2439,-2.2013,-2.1636,-2.1251,-2.0883,-2.0566,-2.0292,-2.0201,-2.0201,-2.0201,-2.011,-1.9982,-1.9799,-1.9379,-1.9142,-1.9058,-1.8874,-1.8966,-1.9242,-0.3355,-0.3436,-0.3546,-0.3687,-0.4095,-0.4469,-0.4672,-0.5389,-0.5992,-0.6261,-0.7058,0.0,0.0,0.0,0.0,0.0,0.0,0.0,-1.0423,-1.0287,-1.0295,0.0,0.0,0.0,0.0,0.0,0.0,0.0,0.0,0.0,0.0,0.0,0.0,0.0,0.0,0.0,0.0,0.0,0.0,0.0,0.0,0.0,-1.099,-1.0763,-1.0222,-0.9459,-0.8489,-0.7743,-0.7053,-0.6195,0.0,0.0,0.0,0.0,0.0,0.0,0.0,0.0,0.0,0.0,0.0,0.0,0.0,0.0,0.0,0.0,0.0,0.0,0.0,0.0,0.0,0.0,0.0,0.0,-1.492,-1.6509,-1.7123,-1.8288,-1.9282,-1.9851,-2.0174,-2.0507,-2.1028,-2.1136,-2.1206,-2.1268,-2.1487,-2.1756,-2.1987,-2.2141,-2.2379,-2.2594,-2.2594,-2.2594,-2.2594,-2.2594,-2.2594,-2.2594,-2.2175,-2.179,-2.1396,-2.1045,-2.066,0.0,-2.0292,-2.0292,-2.0292,-2.0292,-2.0201,0.0,0.0,0.0,0.0,0.0,-1.892,-1.9058,-0.3302,-0.3451,-0.365,-0.3951,-0.4248,-0.4577,-0.4947,-0.5522,-0.601,-0.6272,0.0,0.0,0.0,0.0,0.0,0.0,0.0,0.0,0.0,0.0,0.0,-1.1491,0.0,0.0,0.0,0.0,0.0,0.0,0.0,0.0,0.0,0.0,0.0,0.0,0.0,0.0,0.0,0.0,0.0,0.0,0.0,0.0,-1.2285,-1.176,-1.1274,-1.0671,-0.9339,-0.8561,-0.8004,-0.6935,0.0,0.0,0.0,0.0,0.0,0.0,0.0,0.0,0.0,0.0,0.0,0.0,0.0,0.0,0.0,0.0,0.0,0.0,0.0,0.0,0.0,0.0,0.0,0.0,-1.6568,-1.8232,-1.8985,-1.9707,-2.0157,-2.0157,-2.0624,-2.1021,-2.1241,-2.1273,-2.1306,-2.1496,-2.1841,-2.2055,-2.2055,0.0,0.0,0.0,0.0,-2.2594,-2.2594,-2.2594,-2.2594,-2.2594,-2.2218,-2.1859,-2.1465,-2.1148,-2.0771,-2.036,-2.036,-2.0335,-2.0292,-2.0292,-2.0292,-2.0292,-2.0019,-1.9608,-1.9188,-1.892,-1.8827,-1.8827,-0.3368,-0.3658,-0.3925,-0.3985,-0.4402,-0.4798,-0.5046,-0.5592,-0.6079,-0.635,-0.6954,0.0,0.0,0.0,0.0,0.0,0.0,0.0,0.0,0.0,0.0,0.0,0.0,0.0,0.0,0.0,0.0,0.0,0.0,0.0,0.0,0.0,0.0,0.0,0.0,0.0,0.0,0.0,0.0,0.0,0.0,0.0,-1.2636,-1.217,-1.1654,-1.1031,-0.9751,-0.8969,-0.844,-0.7472,-0.685,-0.6489,-0.6312,0.0,0.0,0.0,0.0,0.0,0.0,0.0,0.0,0.0,0.0,0.0,0.0,0.0,0.0,0.0,0.0,0.0,0.0,0.0,0.0,-1.5624,-1.74,-1.8819,-1.9624,-2.0226,-2.0594,-2.0594,-2.0701,-2.0939,-2.1472,-2.1593,-2.18,-2.2085,-2.2367,-2.2491,-2.2491,-2.256,0.0,-2.2594,-2.2594,-2.2594,-2.2594,-2.2594,-2.2594,-2.2594,0.0,0.0,-2.1876,-2.1816,-2.1413,-2.0763,-2.0763,-2.0583,-2.0292,-2.0292,-2.0292,-2.0292,-2.0019,-1.9754,-1.9487,-1.9242,-1.9096,-1.9096,-0.3818,-0.4057,-0.4201,-0.4201,-0.4535,-0.4904,-0.5209,-0.5681,-0.604,-0.6177,-0.6848,0.0,0.0,0.0,0.0,0.0,0.0,0.0,0.0,0.0,0.0,0.0,0.0,0.0,0.0,0.0,0.0,0.0,0.0,0.0,0.0,0.0,0.0,0.0,0.0,0.0,0.0,0.0,0.0,0.0,0.0,0.0,-1.321,-1.2475,-1.1727,-1.0902,-0.985,-0.9074,-0.8506,-0.7834,-0.7294,-0.6852,-0.6659,-0.6383,-0.6142,0.0,0.0,0.0,0.0,0.0,0.0,0.0,0.0,0.0,0.0,0.0,0.0,0.0,0.0,-1.1436,0.0,0.0,-1.5298,-1.6847,-1.8013,-1.8962,-1.9658,-2.0164,-2.0564,-2.0699,-2.0699,-2.0972,-2.1643,-2.1635,-2.1838,-2.2417,-2.2533,-2.2594,-2.2594,-2.2594,-2.2594,-2.2594,-2.2594,-2.2594,-2.2594,-2.2594,-2.2594,-2.2594,-2.2594,-2.2405,-2.1996,-2.1996,-2.1593,-2.0883,-2.0883,-2.0651,-2.0292,-2.0292,-2.0292,-2.0292,-2.0155,-1.9982,-1.9708,-1.9479,-1.9333,-1.9188,-0.4093,-0.4361,-0.4501,-0.4482,-0.4715,-0.5003,-0.5352,-0.5681,-0.5921,-0.6001,-0.6617,-0.7065,-0.7045,-0.73,-0.7742,0.0,0.0,0.0,0.0,0.0,0.0,0.0,0.0,0.0,0.0,0.0,0.0,0.0,0.0,0.0,0.0,0.0,0.0,0.0,0.0,0.0,0.0,0.0,0.0,0.0,0.0,0.0,-1.3489,-1.2546,-1.1627,-1.0704,-0.98,-0.9046,-0.8414,-0.8028,-0.7537,-0.7081,-0.687,-0.6517,-0.6228,-0.6282,-0.6233,0.0,0.0,0.0,0.0,0.0,0.0,0.0,0.0,0.0,-1.0185,-1.1322,-1.2132,-1.3177,-1.4979,-1.5598,-1.6309,-1.7869,-1.855,-1.9044,-1.9546,-1.9982,-2.0382,-2.0609,-2.0609,-2.0878,-2.1574,-2.1514,-2.1696,-2.2439,-2.256,-2.2594,-2.2594,-2.2594,-2.2594,-2.2594,-2.2594,-2.2594,-2.2594,-2.2594,-2.2594,-2.2594,-2.2594,-2.2439,-2.2107,-2.2107,-2.1739,-2.1088,-2.0942,-2.0651,-2.0292,-2.0292,-2.0292,-2.0292,-2.0292,-2.0155,-1.9928,-1.9762,-1.9525,-1.9333,-0.3526,-0.4229,-0.483,-0.4757,-0.503,-0.5275,-0.5379,-0.5485,-0.566,-0.5956,-0.6141,-0.6293,-0.6461,-0.6631,-0.7105,-0.8055,0.0,0.0,0.0,0.0,0.0,0.0,0.0,0.0,0.0,0.0,0.0,0.0,0.0,0.0,0.0,0.0,0.0,0.0,0.0,0.0,0.0,0.0,0.0,0.0,0.0,0.0,-1.2819,-1.2123,-1.1491,-1.084,-0.9711,-0.8943,-0.8355,-0.8006,-0.7585,-0.7131,-0.6872,-0.6731,-0.6577,-0.6353,0.0,-0.6828,-0.6956,-0.731,0.0,-0.8533,-0.8608,-0.8967,0.0,0.0,-1.1293,-1.2909,-1.3767,-1.466,-1.6086,-1.6906,-1.759,-1.8318,-1.9018,-1.9538,-1.9579,-1.9982,-2.0292,-2.0337,-2.0337,-2.0509,-2.0938,-2.1225,-2.1593,-2.203,-2.2414,-2.2594,-2.2594,-2.2594,-2.2594,-2.2594,-2.2594,-2.2594,-2.2594,-2.2594,-2.2594,-2.2594,-2.2594,-2.2577,-2.2534,-2.2534,-2.2311,-2.1833,-2.1165,-2.0651,-2.0292,-2.0292,-2.0292,-2.0292,-2.0292,-2.0292,-2.0201,-1.9973,-1.9845,-1.9791,-0.3904,-0.4446,-0.4843,-0.4849,-0.5097,-0.5316,-0.5331,-0.5435,-0.5556,-0.5688,-0.5937,-0.6133,-0.6226,-0.6454,-0.6921,-0.7735,-0.8401,0.0,0.0,0.0,0.0,0.0,0.0,0.0,0.0,0.0,0.0,0.0,0.0,0.0,0.0,0.0,0.0,0.0,0.0,0.0,0.0,0.0,0.0,0.0,0.0,0.0,-1.2375,-1.1606,-1.0812,-0.9991,-0.9313,-0.8768,0.0,0.0,-0.7608,-0.727,-0.7095,-0.6885,-0.6712,-0.6807,-0.7065,0.0,-0.8005,0.0,0.0,0.0,-1.0035,-1.064,-1.1625,-1.196,-1.2413,-1.3726,-1.4458,-1.5245,-1.6568,-1.7274,-1.7842,0.0,-1.8982,-1.9387,-1.9387,-1.9662,-1.9891,-1.9891,-1.9982,-2.0309,-2.084,-2.1199,-2.1576,-2.197,-2.2388,-2.2594,-2.2594,-2.2594,-2.2594,-2.2594,-2.2594,-2.2594,-2.2594,-2.2594,-2.2594,-2.2594,-2.2594,-2.2594,-2.2594,-2.2594,-2.2397,-2.1953,-2.1208,-2.0788,-2.0617,-2.0386,-2.0292,-2.0292,-2.0292,-2.0292,-2.0292,-2.0155,-2.0019,-1.9891,-0.4016,-0.4332,-0.4565,-0.4685,-0.4924,-0.5159,-0.5286,-0.5404,-0.5482,-0.5491,-0.5781,-0.5991,-0.6008,-0.6258,-0.6665,-0.7246,-0.7744,-0.8431,0.0,0.0,0.0,0.0,0.0,0.0,0.0,0.0,0.0,0.0,0.0,0.0,0.0,0.0,0.0,0.0,0.0,0.0,0.0,0.0,0.0,0.0,0.0,0.0,-1.1611,-1.0895,-1.0046,-0.915,-0.89,-0.856,0.0,0.0,-0.7579,-0.7394,-0.7124,-0.6947,-0.6882,-0.7268,-0.774,-0.8255,-0.8759,0.0,0.0,-1.0304,-1.1047,-1.1781,-1.2046,-1.249,-1.305,-1.3914,-1.4545,-1.5343,-1.6473,-1.7145,0.0,-1.8288,-1.8789,-1.9096,-1.9188,-1.9433,-1.9587,-1.9587,-1.9716,-2.0046,-2.0555,-2.1092,-2.1525,-2.1816,-2.2328,-2.2645,-2.2748,-2.2654,-2.2645,-2.2748,-2.2654,-2.2594,-2.2594,-2.2594,-2.2594,-2.2594,-2.2594,-2.2594,-2.2594,-2.2594,-2.2397,-2.1961,-2.1311,-2.0968,-2.0848,-2.0454,-2.0292,-2.0292,-2.0292,-2.0292,-2.0292,-2.0292,-2.0201,-2.0019,-0.3446,-0.3647,-0.3918,-0.4175,-0.4447,-0.4771,-0.5237,-0.5363,-0.5426,-0.5498,-0.5622,-0.5741,-0.5794,-0.5939,-0.615,-0.6501,-0.6834,-0.755,-0.8746,-0.927,0.0,0.0,0.0,0.0,0.0,0.0,0.0,0.0,0.0,0.0,0.0,0.0,0.0,0.0,0.0,0.0,0.0,0.0,0.0,0.0,0.0,0.0,-1.039,-0.9936,-0.9285,-0.8626,-0.862,0.0,0.0,0.0,-0.7511,-0.7406,-0.6878,-0.6881,0.0,-0.7713,-0.8657,0.0,0.0,0.0,-1.0565,-1.0581,-1.1165,-1.1822,-1.2285,-1.2592,-1.2959,-1.3434,-1.416,-1.4927,-1.5689,-1.648,-1.7279,-1.7994,-1.8504,-1.892,-1.9142,-1.9433,-1.9587,-1.9587,-1.9587,-1.9679,0.0,-2.0836,-2.1413,-2.1422,-2.2173,-2.2757,-2.3074,-2.28,-2.2766,-2.3083,-2.2791,-2.2594,-2.2594,-2.2594,-2.2594,-2.2594,-2.2594,-2.2594,-2.2594,-2.2594,-2.2397,-2.197,-2.1567,-2.1199,-2.0848,-2.0454,-2.0292,-2.0292,-2.0292,-2.0292,-2.0292,-2.0292,-2.0292,-2.0292,-0.3466,-0.3531,-0.361,-0.388,-0.4311,-0.4657,-0.4812,-0.5164,-0.547,-0.5667,-0.6044,0.0,0.0,0.0,0.0,0.0,-0.6805,-0.7078,-0.7762,-0.8454,0.0,0.0,0.0,0.0,0.0,0.0,0.0,0.0,0.0,0.0,0.0,0.0,0.0,0.0,0.0,0.0,0.0,0.0,0.0,0.0,0.0,0.0,-0.9721,-0.9465,-0.8842,-0.8143,0.0,0.0,0.0,0.0,0.0,0.0,-0.7261,0.0,0.0,-0.8073,0.0,0.0,0.0,0.0,-1.0977,-1.1456,-1.1876,-1.2258,-1.2576,-1.2742,-1.2816,-1.2978,-1.3383,-1.3837,-1.4259,-1.5315,-1.6287,-1.6776,-1.7606,-1.8338,-1.8673,-1.8805,-1.8944,-1.9066,-1.9414,0.0,0.0,0.0,0.0,-2.1413,-2.2165,-2.2766,-2.3091,-2.2989,-2.3091,-2.3468,-2.3409,-2.334,-2.334,-2.3049,-2.2929,-2.292,-2.2723,-2.2594,-2.2594,-2.2594,-2.2397,-2.1978,-2.1576,-2.1208,-2.0848,-2.0454,-2.0292,-2.0292,-2.0292,-2.0292,-2.0292,-2.0292,-2.0292,-2.0292,-0.3336,-0.3351,-0.3367,-0.3528,-0.3926,0.0,0.0,0.0,0.0,0.0,0.0,0.0,0.0,0.0,0.0,0.0,0.0,-0.6556,-0.6951,0.0,0.0,0.0,0.0,0.0,0.0,0.0,0.0,0.0,0.0,0.0,0.0,0.0,0.0,0.0,0.0,0.0,0.0,0.0,0.0,0.0,0.0,0.0,-0.8966,-0.8874,-0.8514,0.0,0.0,0.0,0.0,0.0,0.0,0.0,0.0,0.0,0.0,0.0,0.0,-0.9824,0.0,-1.1052,-1.1538,-1.2089,-1.2361,-1.2576,-1.2775,-1.2748,-1.2645,-1.2636,-1.2741,-1.2883,-1.3162,-1.4242,-1.5272,-1.5739,-1.6809,-1.7711,-1.8133,-1.8396,-1.8559,-1.8691,-1.9273,-1.9686,0.0,0.0,0.0,-2.1425,-2.2143,-2.2766,-2.3091,-2.2989,-2.3143,-2.3701,-2.3537,-2.3468,-2.3468,-2.3237,-2.3049,-2.2903,-2.2714,-2.2594,-2.2594,-2.2594,-2.2397,-2.1978,-2.1576,-2.1208,-2.0848,-2.0454,-2.0292,-2.0292,-2.0292,-2.0292,-2.0292,-2.0292,-2.0292,-2.0292,-0.3069,-0.3132,-0.3186,0.0,0.0,0.0,0.0,0.0,0.0,0.0,0.0,0.0,0.0,0.0,0.0,0.0,0.0,0.0,0.0,0.0,0.0,0.0,0.0,0.0,-0.8323,-0.8806,0.0,0.0,0.0,0.0,0.0,0.0,0.0,0.0,0.0,0.0,0.0,0.0,0.0,0.0,0.0,0.0,-0.8213,-0.8224,0.0,0.0,0.0,0.0,0.0,0.0,0.0,0.0,0.0,0.0,0.0,0.0,0.0,-1.0977,-1.1025,-1.1586,-1.217,-1.2371,-1.2603,-1.2807,-1.2797,-1.2565,-1.2388,-1.235,-1.2155,-1.2081,0.0,0.0,-1.4208,-1.4867,-1.605,-1.7108,-1.763,-1.817,-1.8598,0.0,0.0,0.0,0.0,0.0,0.0,-2.1577,0.0,-2.2766,-2.3091,-2.2826,-2.2972,-2.3718,-2.3331,-2.3151,-2.3177,-2.3134,-2.2929,-2.2594,-2.2594,-2.2594,-2.2594,-2.2594,-2.2388,-2.1944,-2.1576,-2.1199,-2.0823,-2.0446,-2.0292,-2.0292,-2.0292,-2.0292,-2.0292,-2.0292,-2.0292,-2.0292,0.0,0.0,0.0,0.0,0.0,0.0,0.0,0.0,0.0,0.0,0.0,0.0,0.0,0.0,0.0,0.0,0.0,0.0,0.0,0.0,0.0,0.0,0.0,0.0,0.0,0.0,0.0,0.0,0.0,0.0,0.0,0.0,0.0,0.0,0.0,0.0,0.0,0.0,0.0,0.0,0.0,0.0,-0.8364,0.0,0.0,0.0,0.0,0.0,0.0,0.0,0.0,0.0,0.0,0.0,-0.9244,0.0,0.0,-1.088,-1.1629,-1.2089,-1.2377,-1.2662,-1.277,-1.2764,-1.2544,-1.2312,-1.2035,-1.1462,-1.1154,-1.0881,-1.0592,0.0,0.0,-1.3298,-1.4701,0.0,-1.7308,-1.7766,0.0,0.0,0.0,-1.9867,-1.9917,-2.0726,0.0,0.0,-2.224,-2.2766,-2.3091,-2.3023,-2.3314,-2.4068,-2.3717,-2.3665,-2.3948,-2.3391,-2.2929,-2.2594,-2.2594,-2.2594,-2.2594,-2.2594,-2.2234,-2.155,-2.1456,-2.1037,-2.0437,-2.0335,-2.0292,-2.0292,-2.0292,-2.0292,-2.0292,-2.0292,-2.0292,-2.0292,0.0,0.0,0.0,0.0,0.0,0.0,0.0,0.0,0.0,0.0,0.0,0.0,0.0,0.0,0.0,0.0,0.0,0.0,0.0,0.0,0.0,0.0,0.0,0.0,0.0,0.0,0.0,0.0,0.0,0.0,0.0,0.0,0.0,0.0,0.0,0.0,0.0,0.0,0.0,0.0,0.0,0.0,0.0,0.0,0.0,0.0,0.0,0.0,0.0,0.0,0.0,-0.8885,-0.9315,-0.9608,-0.9893,-1.0536,0.0,-1.1397,-1.2038,-1.2388,-1.2603,-1.278,-1.2732,-1.2522,-1.2178,-1.1833,-1.1424,-1.0751,-1.0376,0.0,0.0,0.0,0.0,0.0,0.0,0.0,-1.6737,-1.7267,-1.7809,0.0,-1.9318,0.0,-1.9862,-2.0652,-2.1173,0.0,-2.2138,-2.2792,-2.31,-2.3117,-2.3383,-2.3965,-2.3622,-2.3528,-2.3742,-2.316,-2.2808,-2.2594,-2.2594,-2.2594,-2.2594,-2.2431,-2.1978,-2.1396,0.0,-2.084,-2.0292,-2.0292,-2.0292,-2.0292,-2.0292,-2.0292,-2.0292,-2.0292,-2.0292,-2.0292,0.0,0.0,0.0,0.0,0.0,0.0,0.0,0.0,0.0,0.0,0.0,0.0,0.0,0.0,0.0,0.0,0.0,0.0,0.0,0.0,0.0,0.0,0.0,0.0,0.0,0.0,0.0,0.0,0.0,0.0,0.0,0.0,0.0,0.0,0.0,0.0,0.0,0.0,0.0,0.0,0.0,0.0,0.0,0.0,0.0,0.0,0.0,0.0,0.0,0.0,-0.897,-0.9331,-0.9846,-1.0302,-1.0785,-1.1262,-1.1752,-1.2197,-1.2393,-1.2608,-1.2813,-1.2813,-1.2565,-1.2242,-1.1763,-1.123,-1.0684,-1.0051,0.0,0.0,-0.9041,0.0,-1.1067,-1.1626,0.0,-1.4616,-1.5959,-1.6652,-1.733,-1.8252,-1.8927,-1.9428,-1.968,-2.0403,-2.0873,-2.0925,-2.1925,-2.2677,-2.2937,-2.2989,-2.3186,-2.3555,-2.3254,-2.3091,-2.304,-2.2766,-2.2594,-2.2594,-2.2594,-2.2568,-2.2508,-2.2141,-2.1756,-2.1319,0.0,0.0,-2.0292,-2.0292,-2.0292,-2.0292,-2.0292,-2.0292,-2.0292,-2.0292,-2.0292,-2.0292,0.0,0.0,0.0,0.0,0.0,0.0,0.0,0.0,0.0,0.0,0.0,0.0,0.0,0.0,0.0,0.0,0.0,0.0,0.0,0.0,0.0,0.0,0.0,0.0,0.0,0.0,0.0,0.0,0.0,0.0,0.0,0.0,0.0,0.0,0.0,0.0,0.0,0.0,0.0,0.0,0.0,0.0,0.0,0.0,0.0,0.0,0.0,0.0,0.0,0.0,-0.9428,-1.0138,-1.0412,-1.0801,-1.1273,-1.179,-1.2129,-1.2404,-1.2641,-1.278,-1.2813,-1.2813,-1.2483,-1.1989,-1.1477,-1.0694,0.0,0.0,0.0,-0.8614,-0.8386,-0.9189,0.0,-1.0983,0.0,0.0,0.0,0.0,-1.6914,0.0,0.0,0.0,0.0,0.0,0.0,0.0,0.0,-2.2103,-2.2291,-2.2536,-2.2723,-2.2791,-2.298,-2.2963,-2.2697,-2.2628,-2.2594,-2.2594,-2.2594,-2.2439,-2.209,-2.203,-2.1619,-2.0968,-2.0908,0.0,-2.0292,-2.0292,-2.0292,-2.0292,-2.0292,-2.0292,-2.0292,-2.0292,-2.0292,-2.0292,0.0,0.0,0.0,0.0,0.0,0.0,0.0,-0.3443,-0.3815,-0.4859,-0.4997,-0.5141,-0.5467,-0.5722,0.0,0.0,0.0,0.0,0.0,0.0,0.0,0.0,0.0,0.0,0.0,0.0,0.0,0.0,0.0,0.0,0.0,0.0,0.0,0.0,0.0,0.0,0.0,0.0,0.0,0.0,0.0,0.0,0.0,0.0,0.0,0.0,0.0,0.0,0.0,0.0,-0.8885,-0.9729,-1.0655,-1.1123,-1.1423,-1.2064,-1.2323,-1.2468,-1.2748,-1.2813,-1.278,-1.2614,-1.2221,-1.1682,-1.0966,0.0,0.0,0.0,0.0,-0.8101,-0.7976,0.0,0.0,0.0,0.0,0.0,0.0,0.0,0.0,0.0,0.0,0.0,0.0,0.0,0.0,0.0,0.0,-2.1593,-2.2168,-2.2485,-2.2545,-2.2342,-2.2672,-2.2783,-2.2594,-2.2594,-2.2594,-2.2594,-2.2405,-2.2167,-2.1987,-2.1593,-2.1216,-2.0874,-2.066,0.0,-2.0292,-2.0292,-2.0292,-2.0292,-2.0292,-2.0292,-2.0292,-2.0292,-2.0292,-2.0292,0.0,0.0,0.0,0.0,0.0,0.0,0.0,-0.3196,-0.3635,-0.4755,-0.5213,-0.5403,-0.5335,-0.5682,-0.5875,0.0,0.0,0.0,0.0,0.0,0.0,0.0,0.0,0.0,0.0,0.0,0.0,0.0,0.0,0.0,0.0,0.0,0.0,0.0,0.0,0.0,0.0,0.0,0.0,0.0,0.0,0.0,0.0,0.0,0.0,0.0,0.0,0.0,0.0,0.0,-0.8023,-0.882,-1.0162,-1.09,-1.1337,-1.1946,-1.2253,-1.2457,-1.2641,-1.2775,-1.2759,-1.2474,-1.2016,-1.1381,-1.0473,-0.9615,0.0,0.0,0.0,-0.7712,-0.772,0.0,0.0,0.0,0.0,0.0,0.0,0.0,0.0,0.0,0.0,0.0,0.0,0.0,0.0,0.0,0.0,0.0,-2.2154,-2.237,-2.2391,-2.2089,-2.2342,-2.2544,-2.2594,-2.2594,-2.256,-2.2474,-2.2133,-2.1919,-2.1739,-2.1148,-2.0831,-2.0737,-2.0429,0.0,0.0,-2.0292,-2.0292,-2.0292,-2.0292,-2.0292,-2.0292,-2.0292,-2.0292,-2.0292,0.0,0.0,0.0,0.0,0.0,0.0,0.0,-0.364,-0.4129,-0.4489,-0.5512,-0.5843,-0.4873,-0.5354,-0.563,0.0,0.0,0.0,0.0,0.0,0.0,0.0,0.0,0.0,0.0,0.0,0.0,0.0,0.0,0.0,0.0,0.0,0.0,0.0,0.0,0.0,0.0,0.0,0.0,0.0,0.0,0.0,0.0,0.0,0.0,0.0,0.0,0.0,0.0,0.0,0.0,-0.7631,-0.8127,-0.9552,-1.1031,-1.1095,0.0,0.0,-1.2441,-1.2603,-1.2759,-1.2474,-1.1847,-1.1133,-1.0302,0.0,0.0,0.0,-0.7563,-0.7514,-0.776,-0.8194,0.0,0.0,0.0,0.0,0.0,0.0,0.0,0.0,0.0,0.0,0.0,0.0,0.0,0.0,0.0,0.0,-2.1724,-2.1775,-2.1911,-2.208,-2.2131,-2.2283,-2.2594,-2.2594,-2.2431,-2.2047,-2.2013,-2.1645,-2.0985,-2.0908,-2.0686,-2.0343,-2.0309,0.0,0.0,-2.0292,-2.0292,-2.0292,-2.0292,-2.0292,-2.0292,-2.0292,-2.0292,-2.0292,0.0,0.0,0.0,0.0,0.0,0.0,-0.303,-0.3349,-0.3849,-0.4626,-0.5166,-0.5441,-0.5369,-0.5276,-0.5148,-0.5021,0.0,0.0,0.0,0.0,0.0,0.0,0.0,0.0,0.0,0.0,0.0,0.0,0.0,0.0,0.0,0.0,0.0,0.0,0.0,0.0,0.0,0.0,0.0,0.0,0.0,0.0,0.0,0.0,0.0,0.0,0.0,0.0,0.0,0.0,0.0,0.0,-0.6725,-0.7655,0.0,0.0,-1.1144,-1.1677,-1.2258,-1.2377,-1.2359,-1.2267,-1.1655,-1.0918,-1.0149,0.0,0.0,-0.7868,-0.7576,-0.7498,-0.7758,-0.807,-0.8544,0.0,0.0,0.0,0.0,0.0,0.0,0.0,0.0,0.0,0.0,0.0,0.0,0.0,0.0,0.0,-2.0396,-2.088,-2.1105,-2.104,-2.1328,-2.1573,-2.168,-2.1818,-2.179,-2.1645,-2.143,-2.1165,-2.0874,-2.0634,-2.0437,-2.0292,-2.0292,0.0,0.0,-2.0292,-2.0292,-2.0292,-2.0292,-2.0292,-2.0292,-2.0292,-2.0292,-2.0292,0.0,0.0,0.0,0.0,0.0,-0.2681,-0.2936,-0.3179,-0.363,-0.4454,-0.4758,-0.4995,-0.5251,-0.5006,-0.4744,-0.453,-0.4463,0.0,0.0,0.0,0.0,0.0,0.0,0.0,0.0,0.0,0.0,0.0,0.0,0.0,0.0,0.0,0.0,0.0,0.0,0.0,0.0,0.0,0.0,0.0,0.0,0.0,0.0,0.0,0.0,0.0,0.0,0.0,0.0,0.0,0.0,0.0,0.0,0.0,0.0,0.0,-1.0237,-1.0816,-1.157,-1.1874,-1.1908,-1.1724,-1.1252,-1.0595,0.0,0.0,-0.8291,-0.7941,-0.7612,-0.7514,-0.7844,-0.8068,-0.837,0.0,-0.9019,-0.9452,-1.0396,0.0,0.0,0.0,0.0,0.0,0.0,0.0,0.0,0.0,0.0,0.0,0.0,-1.994,-2.0264,-2.0184,-2.0709,-2.0998,-2.1094,-2.1326,-2.1353,-2.1251,-2.1002,-2.0823,-2.0694,-2.042,-2.0292,-2.0292,0.0,0.0,0.0,-2.0292,-2.0292,-2.0292,-2.0292,-2.0292,-2.0292,-2.0292,-2.0292,-2.0292,0.0,0.0,0.0,0.0,0.0,0.0,-0.2881,-0.3296,-0.3661,-0.3795,-0.4457,-0.4688,-0.4072,-0.4431,-0.4466,-0.3859,-0.3686,0.0,0.0,0.0,0.0,0.0,0.0,0.0,0.0,0.0,0.0,0.0,0.0,0.0,0.0,0.0,0.0,0.0,0.0,0.0,0.0,0.0,0.0,0.0,0.0,0.0,-0.5083,0.0,0.0,0.0,0.0,0.0,0.0,0.0,0.0,0.0,0.0,0.0,0.0,0.0,-0.8971,-0.9907,-1.0248,-1.1001,-1.1547,-1.0863,-1.0527,-1.0154,0.0,-0.8766,-0.8173,-0.8017,-0.7665,-0.7562,-0.809,-0.8207,-0.837,-0.8819,-0.9295,0.0,0.0,0.0,0.0,0.0,0.0,0.0,0.0,0.0,0.0,0.0,0.0,0.0,0.0,-1.9019,-1.9271,-1.9901,-2.041,-2.0805,-2.1094,-2.1326,-2.1234,-2.0929,-2.0883,-2.0677,-2.03,-2.0292,-2.0292,0.0,0.0,0.0,0.0,-2.0292,-2.0292,-2.0292,-2.0292,-2.0292,-2.0292,-2.0292,-2.0292,-2.0292,0.0,0.0,0.0,0.0,0.0,0.0,0.0,-0.3086,-0.3341,-0.3741,-0.3998,-0.4117,-0.4009,-0.4048,-0.3999,-0.3815,-0.3682,0.0,0.0,0.0,0.0,0.0,0.0,0.0,0.0,0.0,0.0,-0.5391,-0.5375,0.0,0.0,0.0,0.0,0.0,0.0,0.0,0.0,0.0,0.0,0.0,0.0,-0.4972,-0.5093,0.0,0.0,0.0,0.0,0.0,0.0,0.0,0.0,0.0,0.0,0.0,0.0,-0.6023,0.0,0.0,-0.9168,-0.9636,-0.9801,-0.9907,-0.9793,-0.9537,-0.9133,-0.8602,-0.8191,-0.8142,-0.8039,-0.8003,-0.8186,-0.8317,-0.8549,-0.9023,0.0,0.0,0.0,0.0,0.0,0.0,0.0,0.0,0.0,0.0,0.0,0.0,0.0,0.0,0.0,-1.8442,-1.891,-1.9426,-1.9778,-2.0057,-2.0281,-2.0513,-2.0591,-2.048,-2.048,-2.0412,-2.0292,-2.0292,0.0,0.0,0.0,0.0,0.0,-2.0292,-2.0292,-2.0292,-2.0292,-2.0292,-2.0292,-2.0292,-2.0292,-2.0292,0.0,0.0,0.0,0.0,0.0,0.0,0.0,-0.3036,-0.324,-0.3576,-0.3673,-0.3768,-0.3917,-0.3799,-0.3754,-0.387,-0.3744,0.0,0.0,0.0,0.0,0.0,0.0,0.0,0.0,-0.3972,-0.4399,-0.5026,-0.4991,-0.5133,-0.5478,0.0,0.0,0.0,0.0,0.0,0.0,0.0,0.0,0.0,-0.48,-0.4826,-0.495,0.0,0.0,0.0,0.0,0.0,0.0,0.0,0.0,0.0,0.0,0.0,0.0,0.0,-0.5495,-0.6208,0.0,-0.837,-0.866,-0.877,-0.8856,-0.8845,-0.8657,-0.8244,-0.7953,-0.8171,-0.8111,-0.8101,-0.8284,-0.8409,-0.8576,-0.8787,0.0,0.0,0.0,0.0,0.0,0.0,0.0,0.0,0.0,0.0,0.0,0.0,0.0,0.0,0.0,-1.7908,-1.852,-1.9188,-1.9525,-1.9799,-2.0065,-2.0374,-2.051,-2.0473,-2.0473,-2.0382,-2.0292,-2.0292,0.0,0.0,0.0,0.0,0.0,-2.0292,-2.0292,-2.0292,-2.0292,-2.0292,-2.0292,-2.0292,-2.0292,-2.0292,0.0,0.0,0.0,0.0,0.0,0.0,0.0,-0.3063,-0.3283,-0.3303,-0.3473,-0.3641,-0.3761,-0.3682,-0.369,-0.394,0.0,0.0,0.0,0.0,0.0,0.0,0.0,0.0,0.0,-0.4123,-0.4332,-0.4591,-0.4778,-0.4861,-0.4827,-0.4667,-0.447,0.0,0.0,0.0,0.0,0.0,0.0,0.0,-0.4397,-0.4565,0.0,0.0,0.0,0.0,0.0,0.0,0.0,0.0,0.0,0.0,0.0,0.0,0.0,0.0,0.0,0.0,0.0,-0.7159,-0.7894,-0.7493,-0.7754,-0.8118,-0.8102,-0.7744,0.0,-0.8063,-0.7993,-0.7968,-0.8431,-0.8468,-0.8414,-0.832,0.0,0.0,0.0,0.0,0.0,0.0,0.0,0.0,0.0,0.0,0.0,0.0,0.0,0.0,0.0,-1.738,-1.8087,-1.9096,-1.9608,-2.0019,-2.0337,-2.0781,-2.0907,-2.0699,-2.0699,-2.0564,-2.0337,-2.0292,0.0,0.0,0.0,0.0,0.0,-2.0292,-2.0292,-2.0292,-2.0292,-2.0292,-2.0292,-2.0292,-2.0292,-2.0292,0.0,0.0,0.0,0.0,0.0,0.0,0.0,0.0,0.0,0.0,-0.334,-0.3438,-0.3634,-0.3621,-0.3631,0.0,0.0,0.0,0.0,0.0,0.0,0.0,0.0,0.0,0.0,-0.4092,-0.4356,-0.4683,-0.4665,-0.479,-0.5024,-0.483,-0.4621,-0.436,-0.4242,0.0,0.0,0.0,0.0,0.0,-0.4196,-0.439,0.0,0.0,0.0,0.0,-0.4213,-0.4245,0.0,0.0,0.0,0.0,0.0,0.0,0.0,0.0,-0.4462,-0.4503,-0.4883,0.0,-0.6074,-0.6187,-0.6705,-0.7195,0.0,-0.731,0.0,0.0,0.0,-0.8187,-0.8458,-0.8239,-0.837,0.0,0.0,0.0,0.0,0.0,0.0,0.0,0.0,0.0,0.0,0.0,0.0,0.0,0.0,0.0,0.0,-1.6763,-1.7606,-1.8573,-1.9271,-1.9965,-2.0609,-2.0862,-2.0997,-2.0907,-2.0781,-2.0654,-2.0609,-2.0382,0.0,0.0,0.0,0.0,-2.0292,-2.0292,-2.0292,-2.0292,-2.0292,-2.0292,-2.0292,-2.0292,-2.0292,-2.0292,0.0,0.0,0.0,0.0,0.0,0.0,0.0,0.0,0.0,0.0,0.0,0.0,0.0,0.0,0.0,0.0,0.0,0.0,0.0,0.0,0.0,0.0,0.0,0.0,0.0,-0.4227,-0.443,-0.4644,-0.4712,-0.4793,-0.4858,-0.4758,-0.4555,-0.4296,-0.4177,0.0,0.0,0.0,0.0,0.0,-0.4077,0.0,0.0,0.0,0.0,0.0,-0.3973,-0.4036,0.0,-0.4319,-0.45,-0.461,0.0,0.0,0.0,0.0,-0.4356,-0.4356,-0.4356,-0.4912,-0.5524,-0.5661,-0.6316,-0.6898,-0.6866,0.0,0.0,0.0,0.0,0.0,-0.828,0.0,0.0,0.0,0.0,0.0,0.0,0.0,0.0,0.0,0.0,0.0,0.0,0.0,0.0,0.0,0.0,0.0,0.0,-1.5913,-1.6702,-1.7684,-1.8473,-1.9492,-2.0699,-2.1015,-2.1195,-2.1195,-2.1069,-2.097,-2.0826,-2.0609,-2.0473,0.0,0.0,0.0,-2.0292,-2.0292,-2.0292,-2.0292,-2.0292,-2.0292,-2.0292,-2.0292,-2.0292,-2.0292,0.0,0.0,0.0,0.0,0.0,0.0,0.0,0.0,0.0,0.0,0.0,0.0,0.0,0.0,0.0,0.0,0.0,0.0,0.0,0.0,0.0,0.0,0.0,0.0,-0.4247,-0.4399,-0.4562,-0.4666,-0.4854,-0.4858,-0.4691,-0.4712,-0.454,-0.4232,-0.4136,0.0,0.0,0.0,0.0,-0.3996,-0.3996,0.0,0.0,0.0,0.0,0.0,0.0,0.0,0.0,-0.4157,-0.4347,-0.4508,-0.4589,0.0,0.0,0.0,0.0,0.0,-0.4265,-0.498,-0.5662,-0.5487,-0.6126,-0.6798,0.0,0.0,0.0,0.0,0.0,0.0,0.0,0.0,0.0,0.0,0.0,0.0,0.0,0.0,0.0,0.0,0.0,0.0,0.0,0.0,0.0,0.0,0.0,0.0,0.0,-1.4962,-1.5669,-1.6601,-1.7397,-1.8603,-2.0238,-2.0888,-2.1257,-2.1347,-2.1347,-2.1248,-2.1042,-2.0826,-2.0699,0.0,0.0,0.0,-2.0292,-2.0292,-2.0292,-2.0292,-2.0292,-2.0292,-2.0292,-2.0292,-2.0292,-2.0292,0.0,0.0,0.0,0.0,0.0,0.0,0.0,0.0,0.0,0.0,0.0,0.0,0.0,0.0,0.0,0.0,0.0,0.0,0.0,0.0,0.0,0.0,0.0,-0.423,-0.4453,-0.4481,-0.467,-0.5034,-0.5058,-0.5045,-0.5024,-0.5145,-0.489,-0.4382,-0.4406,-0.427,0.0,0.0,0.0,-0.3996,0.0,0.0,0.0,0.0,0.0,0.0,0.0,0.0,0.0,-0.3868,-0.4148,-0.447,-0.4321,0.0,0.0,0.0,0.0,0.0,-0.4495,-0.5352,-0.5906,-0.5052,-0.5589,-0.6288,0.0,0.0,0.0,0.0,0.0,0.0,0.0,0.0,0.0,0.0,0.0,0.0,0.0,0.0,0.0,0.0,0.0,0.0,0.0,0.0,0.0,0.0,0.0,0.0,0.0,-1.4154,-1.4717,-1.5276,-1.6089,-1.703,-1.8149,-1.9683,-2.0654,-2.1042,-2.1042,-2.115,-2.1302,-2.088,-2.0699,0.0,0.0,-2.0292,-2.0292,-2.0292,-2.0292,-2.0292,-2.0292,-2.0292,-2.0292,-2.0292,-2.0292,-2.0292,0.0,0.0,0.0,0.0,0.0,0.0,0.0,0.0,0.0,0.0,0.0,0.0,0.0,0.0,0.0,0.0,0.0,0.0,0.0,0.0,0.0,0.0,-0.3872,-0.3938,-0.4065,-0.414,-0.4303,-0.4562,-0.4825,-0.4894,-0.4821,-0.4902,-0.476,-0.4503,-0.4493,-0.4416,-0.427,0.0,0.0,-0.4107,0.0,0.0,0.0,0.0,0.0,0.0,0.0,0.0,0.0,0.0,-0.4033,-0.4308,-0.4217,0.0,0.0,0.0,0.0,0.0,-0.4095,-0.4635,-0.5109,-0.5259,-0.6402,-0.7456,0.0,0.0,0.0,0.0,0.0,0.0,0.0,0.0,0.0,0.0,0.0,0.0,0.0,0.0,0.0,0.0,0.0,0.0,0.0,0.0,0.0,0.0,0.0,0.0,0.0,0.0,-1.3859,-1.4376,-1.5057,-1.5818,-1.6669,-1.8017,-1.9401,-2.0772,-2.1105,-2.1338,-2.1571,-2.1248,-2.1015,-2.0871,0.0,-2.0428,-2.0292,-2.0292,-2.0292,-2.0292,-2.0292,-2.0292,-2.0292,-2.0292,-2.0292,-2.0266,0.0,0.0,0.0,0.0,0.0,0.0,0.0,0.0,0.0,0.0,0.0,0.0,0.0,0.0,0.0,0.0,0.0,0.0,0.0,0.0,-0.3522,-0.3553,-0.3462,-0.3506,-0.3704,-0.3797,-0.3918,-0.4062,-0.4449,-0.4595,-0.4589,-0.4675,-0.4681,-0.461,-0.4562,-0.4525,0.0,-0.4328,-0.4276,-0.4276,0.0,0.0,0.0,0.0,0.0,0.0,0.0,0.0,0.0,0.0,0.0,0.0,0.0,0.0,0.0,-0.3824,-0.355,-0.3372,-0.3738,-0.4073,-0.4565,-0.5576,0.0,-0.7907,0.0,0.0,0.0,0.0,0.0,0.0,0.0,0.0,0.0,0.0,0.0,0.0,0.0,0.0,0.0,0.0,0.0,0.0,0.0,0.0,0.0,0.0,0.0,0.0,0.0,0.0,-1.3238,-1.3619,-1.4154,-1.4783,-1.5547,-1.6527,-1.8102,-2.0175,-2.0789,-2.1203,-2.1463,-2.1338,-2.1195,-2.0997,-2.0826,-2.0654,-2.0382,-2.0382,-2.0382,-2.0292,-2.0292,-2.024,-2.0163,-2.0163,-2.0103,-1.9992,0.0,0.0,0.0,0.0,0.0,0.0,0.0,0.0,0.0,0.0,0.0,0.0,0.0,0.0,0.0,0.0,0.0,0.0,0.0,0.0,-0.2748,-0.287,-0.2865,-0.3123,-0.3701,-0.37,-0.3811,-0.4018,-0.4056,-0.4261,-0.4622,-0.4932,-0.4938,-0.4704,0.0,0.0,0.0,0.0,-0.4491,-0.4491,-0.4491,0.0,0.0,0.0,0.0,0.0,0.0,0.0,0.0,0.0,0.0,0.0,0.0,0.0,-0.3486,-0.3593,-0.3348,-0.3164,-0.3738,-0.4456,-0.5165,-0.5755,0.0,0.0,0.0,0.0,0.0,0.0,0.0,0.0,0.0,0.0,0.0,0.0,0.0,0.0,0.0,0.0,0.0,0.0,0.0,0.0,0.0,0.0,0.0,0.0,0.0,0.0,0.0,0.0,0.0,-1.2856,-1.3346,-1.3968,-1.4783,-1.5771,-1.7163,-1.8926,-1.9646,-2.0292,-2.0789,-2.0961,-2.0997,-2.0997,-2.0997,-2.0871,-2.0654,-2.0654,-2.0518,-2.0292,-2.0292,-2.0078,-1.9734,-1.9734,-1.9564,-1.9299,0.0,0.0,0.0,0.0,0.0,0.0,0.0,0.0,0.0,0.0,0.0,0.0,0.0,0.0,0.0,0.0,0.0,0.0,0.0,0.0,-0.2623,-0.2801,-0.2645,-0.2699,-0.3018,-0.3222,-0.335,-0.3391,-0.3626,-0.3987,-0.4417,-0.4485,0.0,0.0,0.0,0.0,0.0,0.0,-0.4491,-0.4491,-0.4491,-0.431,0.0,0.0,0.0,0.0,0.0,0.0,0.0,0.0,-0.3605,-0.3721,-0.3618,-0.3515,-0.3389,-0.3359,-0.3163,-0.2999,-0.3269,-0.3739,-0.4404,-0.5347,0.0,0.0,0.0,0.0,0.0,0.0,0.0,0.0,0.0,0.0,0.0,0.0,0.0,0.0,0.0,0.0,0.0,0.0,0.0,0.0,0.0,0.0,0.0,0.0,0.0,0.0,0.0,0.0,0.0,-1.3001,-1.3298,-1.3877,-1.4688,-1.5391,-1.6285,-1.7458,-1.8665,-1.9538,-2.0221,-2.0456,-2.0645,-2.0826,-2.0952,-2.073,-2.035,-2.035,-2.0034,-1.9642,-1.9642,-1.9513,-1.9384,-1.9384,-1.9299,-1.9136,0.0,0.0,0.0,0.0,0.0,0.0,0.0,0.0,0.0,0.0,0.0,0.0,0.0,0.0,0.0,0.0,0.0,0.0,0.0,0.0,-0.2385,-0.2576,-0.2465,-0.2422,-0.2509,-0.2823,-0.2973,-0.2906,-0.3443,-0.3792,-0.402,0.0,0.0,0.0,0.0,0.0,0.0,0.0,0.0,-0.4491,-0.4491,-0.431,0.0,0.0,0.0,0.0,0.0,0.0,0.0,0.0,-0.3597,-0.3668,-0.3572,-0.3455,-0.3323,-0.3226,-0.3175,-0.3184,-0.3366,-0.3542,-0.4004,0.0,0.0,0.0,0.0,0.0,0.0,0.0,0.0,0.0,0.0,0.0,0.0,0.0,0.0,0.0,0.0,0.0,0.0,0.0,0.0,0.0,0.0,0.0,0.0,0.0,0.0,0.0,0.0,0.0,0.0,0.0,-1.3346,-1.3775,-1.4448,-1.4914,-1.5534,-1.6251,-1.7162,-1.8226,-1.9355,-1.9783,-2.0087,-2.0292,-2.0597,-2.043,-2.0,-1.9948,-1.9627,-1.9213,-1.9213,-1.9136,-1.9033,-1.9033,-1.8913,-1.8776,0.0,0.0,0.0,0.0,0.0,0.0,0.0,0.0,0.0,0.0,0.0,0.0,0.0,0.0,0.0,0.0,0.0,0.0,0.0,-0.2048,-0.1954,0.0,0.0,-0.2365,-0.2285,-0.2614,-0.2765,-0.271,-0.3485,-0.3723,-0.3414,-0.4426,0.0,0.0,0.0,0.0,0.0,0.0,0.0,0.0,-0.4487,-0.4307,-0.3994,0.0,0.0,0.0,0.0,0.0,0.0,0.0,-0.3398,-0.3398,-0.3399,-0.3301,-0.3197,-0.319,-0.3444,-0.3776,-0.4186,-0.4049,0.0,0.0,0.0,0.0,0.0,0.0,0.0,0.0,0.0,0.0,0.0,0.0,0.0,0.0,0.0,0.0,0.0,0.0,0.0,0.0,0.0,0.0,0.0,0.0,0.0,0.0,0.0,0.0,0.0,0.0,0.0,0.0,-1.3244,-1.3624,-1.3902,-1.4436,-1.4914,-1.5378,-1.5198,-1.6142,-1.8125,-1.8858,-1.9257,-1.9409,-1.9859,-2.0,-1.9759,-1.9571,-1.9367,-1.9204,-1.9204,-1.8964,-1.8579,-1.8579,-1.8348,-1.8,0.0,0.0,0.0,0.0,0.0,0.0,0.0,0.0,0.0,0.0,0.0,0.0,0.0,0.0,0.0,0.0,0.0,0.0,0.0,0.0,0.0,0.0,0.0,0.0,0.0,0.0,-0.2516,-0.2915,-0.3062,-0.312,0.0,0.0,0.0,-0.3891,0.0,0.0,0.0,0.0,0.0,0.0,-0.4244,-0.4102,-0.387,0.0,0.0,0.0,0.0,0.0,0.0,0.0,0.0,0.0,-0.3539,-0.3504,-0.3444,-0.3245,-0.3346,-0.3503,-0.3574,0.0,0.0,0.0,0.0,0.0,0.0,0.0,0.0,0.0,0.0,0.0,0.0,0.0,0.0,0.0,0.0,0.0,0.0,0.0,0.0,0.0,0.0,0.0,0.0,0.0,0.0,0.0,0.0,0.0,0.0,0.0,0.0,0.0,-1.2986,-1.3229,-1.3691,-1.3653,-1.3881,-1.4329,-1.4292,-1.5087,-1.6706,-1.7071,-1.7627,-1.8324,-1.8978,-1.9256,-1.9228,-1.8856,-1.8579,-1.8374,-1.8374,-1.8264,-1.8162,-1.8162,-1.8094,-1.8,0.0,0.0,0.0,0.0,0.0,0.0,0.0,0.0,0.0,0.0,0.0,-0.1682,0.0,0.0,0.0,0.0,0.0,0.0,0.0,0.0,0.0,0.0,0.0,0.0,0.0,-0.1593,-0.1928,0.0,0.0,0.0,0.0,0.0,0.0,-0.4076,0.0,-0.465,0.0,0.0,0.0,0.0,-0.3888,-0.3835,-0.3778,0.0,0.0,0.0,0.0,0.0,0.0,0.0,0.0,0.0,-0.3604,-0.3597,-0.3569,-0.34,-0.3489,-0.3706,-0.401,0.0,0.0,0.0,0.0,0.0,0.0,0.0,0.0,0.0,0.0,0.0,0.0,0.0,0.0,0.0,0.0,0.0,0.0,0.0,0.0,0.0,0.0,0.0,0.0,0.0,0.0,0.0,0.0,0.0,0.0,0.0,0.0,0.0,-1.2673,-1.2782,-1.3095,-1.3089,-1.319,-1.345,-1.3444,-1.3969,-1.4947,-1.5686,-1.6382,-1.7117,-1.8009,-1.8505,-1.862,-1.8539,-1.8362,-1.8161,-1.8161,-1.8072,-1.8,-1.8,-1.8,-1.8,0.0,0.0,-0.1195,-0.1195,0.0,0.0,0.0,0.0,0.0,0.0,-0.1176,-0.1212,0.0,0.0,0.0,-0.118,0.0,0.0,0.0,0.0,0.0,0.0,0.0,0.0,0.0,0.0,0.0,0.0,0.0,0.0,0.0,0.0,-0.4445,-0.4753,0.0,-0.4911,0.0,0.0,0.0,-0.388,-0.3423,-0.3447,-0.3678,-0.3269,0.0,0.0,0.0,0.0,0.0,0.0,0.0,0.0,-0.3604,-0.361,-0.3622,-0.3582,-0.3776,-0.4167,0.0,0.0,0.0,0.0,0.0,0.0,0.0,0.0,0.0,0.0,0.0,0.0,0.0,0.0,0.0,0.0,0.0,0.0,0.0,0.0,0.0,0.0,0.0,0.0,0.0,0.0,0.0,0.0,0.0,0.0,0.0,0.0,0.0,-1.2094,-1.2255,-1.233,-1.233,-1.2541,-1.2666,0.0,-1.2711,-1.2871,-1.3135,-1.4573,-1.5463,-1.5946,-1.7146,-1.774,-1.8,-1.8451,-1.8531,-1.8402,-1.8402,-1.8233,-1.804,-1.804,-1.804,-1.8,0.0,0.0,-0.1179,-0.1128,0.0,0.0,0.0,0.0,-0.0647,-0.0454,-0.0247,-0.0138,-0.0159,-0.0311,0.0,-0.0427,-0.0813,0.0,0.0,0.0,0.0,0.0,0.0,0.0,0.0,0.0,0.0,0.0,0.0,0.0,0.0,0.0,0.0,-0.3679,0.0,-0.4661,0.0,0.0,0.0,-0.3192,-0.2924,-0.296,-0.3176,-0.3237,-0.3405,0.0,0.0,0.0,0.0,0.0,0.0,0.0,-0.3604,-0.3679,-0.3704,-0.3511,-0.3699,-0.4046,0.0,0.0,0.0,0.0,0.0,0.0,0.0,0.0,0.0,0.0,0.0,0.0,0.0,0.0,0.0,0.0,0.0,0.0,0.0,0.0,0.0,0.0,0.0,0.0,0.0,0.0,0.0,0.0,0.0,0.0,0.0,0.0,0.0,-1.2094,-1.1961,-1.1863,-1.1863,-1.1679,-1.1805,0.0,-1.2146,-1.2506,-1.3102,-1.3765,-1.469,-1.5789,-1.6795,-1.7343,-1.7554,-1.7959,-1.8241,-1.8402,-1.8402,-1.8362,-1.8313,-1.8313,-1.8201,-1.8,0.0,0.0,0.0,0.0,0.0,0.0,0.0,0.0,-0.031,-0.0036,0.0078,0.0201,0.0335,0.0184,0.0,0.0,-0.0301,-0.0482,0.0,0.0,0.0,0.0,0.0,0.0,0.0,0.0,0.0,0.0,0.0,0.0,0.0,0.0,0.0,-0.3561,0.0,-0.4323,0.0,0.0,-0.3234,-0.2729,-0.2406,-0.2463,-0.2776,-0.2814,-0.3027,-0.3328,-0.3534,0.0,0.0,0.0,0.0,0.0,0.0,0.0,-0.369,-0.3612,-0.3704,-0.3884,0.0,0.0,0.0,0.0,0.0,0.0,0.0,0.0,0.0,0.0,0.0,0.0,0.0,0.0,0.0,0.0,0.0,0.0,0.0,0.0,0.0,0.0,0.0,0.0,0.0,0.0,0.0,0.0,0.0,0.0,0.0,-1.1715,-1.1715,-1.1715,-1.1596,-1.1488,-1.1488,-1.15,-1.1613,-1.1871,-1.208,-1.2546,-1.327,-1.3695,-1.437,-1.5276,-1.6064,-1.6681,-1.7106,-1.7627,-1.8072,-1.8402,-1.8523,-1.8523,-1.8531,-1.8442,-1.8313,-1.8152,0.0,0.0,0.0,0.0,0.0,0.0,0.0,0.0,0.0,0.0203,0.02,0.0248,0.0434,0.0387,0.0311,0.0,0.0,0.0,-0.0397,0.0,0.0,0.0,0.0,0.0,0.0,0.0,0.0,0.0,0.0,0.0,0.0,0.0,0.0,-0.3673,0.0,0.0,0.0,0.0,-0.311,-0.2373,-0.1904,-0.2038,-0.2482,-0.237,-0.2657,-0.3148,-0.349,-0.3604,-0.3604,-0.3604,0.0,0.0,0.0,0.0,-0.3624,-0.3744,-0.3679,-0.3714,0.0,0.0,0.0,0.0,0.0,0.0,0.0,0.0,0.0,0.0,0.0,0.0,0.0,0.0,0.0,0.0,0.0,0.0,0.0,0.0,0.0,0.0,0.0,0.0,0.0,0.0,0.0,0.0,0.0,0.0,-1.1305,-1.1305,-1.1305,-1.1305,-1.1305,-1.1305,-1.1305,-1.157,-1.1699,-1.1742,-1.2283,-1.2796,-1.3349,-1.3786,-1.4201,-1.4692,-1.5318,-1.5948,-1.6566,-1.7172,-1.774,-1.8322,-1.8442,-1.8612,-1.87,-1.8482,-1.8402,-1.8362,0.0,0.0,0.0,0.0,0.0,0.0,0.0,0.0,0.0,0.0,0.0408,0.0414,0.0336,0.0217,0.0136,0.0112,0.0058,0.0,0.0,0.0,0.0,0.0,0.0,0.0,0.0,0.0,0.0,0.0,0.0,0.0,0.0,0.0,0.0,-0.313,0.0,0.0,0.0,0.0,-0.264,-0.204,-0.1614,-0.188,-0.2504,-0.2482,-0.2907,-0.3534,-0.3578,-0.3604,-0.3604,-0.3604,-0.3604,0.0,0.0,0.0,0.0,0.0,0.0,0.0,0.0,0.0,0.0,0.0,0.0,0.0,0.0,0.0,0.0,0.0,0.0,0.0,0.0,0.0,0.0,0.0,0.0,0.0,0.0,0.0,0.0,0.0,0.0,0.0,0.0,0.0,0.0,0.0,0.0,0.0,-1.1305,-1.1305,-1.1305,-1.1305,-1.1305,-1.1305,-1.1305,-1.157,-1.1785,-1.1957,-1.2674,-1.3052,-1.3137,-1.3398,-1.3857,-1.4482,-1.4957,-1.5416,-1.5858,-1.6162,-1.6894,-1.7781,-1.7821,-1.8193,-1.87,-1.8482,-1.8402,-1.8362,0.0,0.0,0.0,0.0,0.0,0.0,0.0,0.0,0.0,0.0,0.0,0.0313,0.0246,0.012,0.0039,0.0038,0.0019,0.0,0.0,0.0,0.0,0.0,0.0,0.0,0.0,0.0,0.0,0.0,0.0,0.0,0.0,-0.09,-0.169,0.0,0.0,0.0,0.0,0.0,0.0,-0.1681,-0.1767,-0.2047,-0.2479,-0.2683,-0.3104,-0.3546,-0.3594,-0.3604,-0.3604,-0.3604,-0.3524,-0.3445,-0.3554,0.0,0.0,0.0,0.0,0.0,0.0,0.0,0.0,0.0,0.0,0.0,0.0,0.0,0.0,0.0,0.0,0.0,0.0,0.0,0.0,0.0,0.0,0.0,0.0,0.0,0.0,0.0,0.0,0.0,0.0,0.0,0.0,0.0,0.0,-1.1305,-1.1305,-1.1305,-1.1305,-1.1305,-1.1305,-1.1305,-1.1305,-1.157,-1.1755,-1.182,-1.2141,-1.2317,-1.2317,-1.2646,-1.3182,-1.3857,-1.4195,-1.4573,-1.5005,-1.5163,-1.5822,-1.6685,-1.676,-1.7195,-1.7717,-1.7631,-1.7622,-1.767,0.0,0.0,0.0,0.0,0.0,0.0,0.0,0.0,0.0,0.0,0.0,0.0189,0.0147,0.0,0.0,0.0,0.0,0.0,0.0,0.0,0.0,0.0,0.0,0.0,0.0,0.0,0.0,0.0,0.0,0.0,0.0,-0.0193,-0.0714,0.0,-0.1768,0.0,0.0,0.0,0.0,-0.1526,-0.2022,-0.2366,-0.2632,-0.3061,-0.3447,-0.3739,-0.3705,0.0,0.0,0.0,0.0,0.0,0.0,0.0,0.0,0.0,0.0,0.0,0.0,0.0,0.0,0.0,0.0,0.0,0.0,0.0,0.0,0.0,0.0,0.0,0.0,0.0,0.0,0.0,0.0,0.0,0.0,0.0,0.0,0.0,0.0,0.0,0.0,0.0,0.0,0.0,0.0,-1.1123,-1.1123,-1.1123,-1.1123,-1.1123,-1.1123,-1.1123,-1.1123,-1.1383,-1.1542,-1.1599,-1.1618,-1.1611,-1.1611,-1.1926,-1.2388,-1.2973,-1.3272,-1.364,-1.4021,-1.4115,-1.466,-1.54,-1.5576,-1.6049,-1.6619,-1.6619,-1.6779,-1.6977,0.0,0.0,0.0,0.0,0.0,0.0,0.0,0.0,0.0,0.0,0.0,0.0147,0.0021,0.0,0.0,0.0,0.0,0.0,0.0,0.0,0.0,0.0,0.0,0.0,0.0,0.0,0.0,0.0,0.0,0.0,0.0,0.0,-0.0182,-0.0515,-0.154,-0.2195,-0.2486,0.0,0.0,-0.174,-0.2346,-0.2759,-0.3114,-0.3645,-0.4097,-0.4402,0.0,0.0,0.0,0.0,0.0,0.0,0.0,0.0,0.0,0.0,0.0,0.0,0.0,0.0,0.0,0.0,0.0,0.0,0.0,0.0,0.0,0.0,0.0,0.0,0.0,0.0,0.0,0.0,0.0,0.0,0.0,0.0,0.0,0.0,0.0,0.0,0.0,0.0,0.0,0.0,0.0,-1.063,-1.063,-1.063,-1.063,-1.063,-1.063,-1.063,-1.063,-1.0919,-1.1116,-1.1301,-1.133,-1.1324,-1.1324,-1.1324,-1.1496,-1.1721,-1.2369,-1.2763,-1.2982,-1.3008,-1.3391,-1.4013,-1.4233,-1.4809,-1.5611,-1.5797,-1.6111,-1.6446,0.0,0.0,0.0,0.0,0.0,0.0,0.0,0.0,0.0,0.0,0.0,0.0,0.0,0.0,0.0,0.0,0.0,0.0,0.0,0.0,0.0,0.0,0.0,0.0,0.0,0.0,0.0,0.0,0.0,0.0,0.0,0.0,-0.0138,-0.0417,-0.0926,-0.1269,-0.1428,-0.1761,0.0,0.0,-0.2503,-0.3094,-0.342,-0.4042,-0.4472,-0.4718,0.0,0.0,0.0,0.0,0.0,0.0,0.0,-0.3239,-0.3158,-0.3172,0.0,0.0,0.0,0.0,0.0,0.0,0.0,0.0,0.0,0.0,0.0,0.0,0.0,0.0,0.0,0.0,0.0,0.0,0.0,0.0,0.0,0.0,0.0,0.0,0.0,0.0,0.0,0.0,0.0,0.0,0.0,0.0,-1.0597,-1.0597,-1.0597,-1.0597,-1.0597,-1.0597,-1.0597,-1.0572,-1.0576,-1.0655,-1.0484,-1.0407,-1.0407,-1.0523,-1.0716,-1.0902,-1.1292,-1.1834,-1.2506,-1.2289,-1.2518,-1.2988,-1.2989,-1.3402,-1.4037,-1.426,-1.463,-1.5043,0.0,0.0,0.0,-0.0064,0.0,-0.0139,-0.017,-0.015,-0.0114,-0.008,0.0,0.0,0.0,0.0,0.0,0.0,0.0,0.0,0.0,0.0,0.0,0.0,0.0,0.0,0.0,0.0,0.0,0.0,0.0,0.0,0.0,0.0,-0.0101,-0.0278,-0.0511,-0.0681,0.0,0.0,0.0,-0.1236,0.0,0.0,-0.3357,0.0,-0.4626,0.0,0.0,0.0,0.0,0.0,0.0,0.0,0.0,-0.3119,-0.299,-0.3135,0.0,0.0,0.0,0.0,0.0,0.0,0.0,0.0,0.0,0.0,0.0,0.0,0.0,0.0,0.0,0.0,0.0,0.0,0.0,0.0,0.0,0.0,0.0,0.0,0.0,0.0,0.0,0.0,0.0,0.0,0.0,0.0,-1.0356,-1.0356,-1.0356,-1.0356,-1.0435,-1.0435,-1.0356,-1.0245,-1.0169,-1.0169,-1.0003,-0.9884,-0.9922,-1.003,-1.0218,-1.0406,-1.0556,-1.105,-1.1799,-1.1621,-1.1726,-1.1929,-1.1963,-1.2268,-1.2746,-1.3069,-1.347,-1.3833,0.0022,0.0112,0.0044,-0.0425,-0.0337,-0.0269,-0.0476,-0.0335,-0.02,-0.0209,0.0,0.0,0.0,0.0,0.0,0.0,0.0,0.0,0.0,0.0,0.0,0.0,0.0,0.0,0.0,0.0,0.0,0.0,0.0,0.0,0.0,0.0,0.0,0.0,-0.0266,-0.0521,-0.0795,0.0,-0.0982,-0.1073,0.0,-0.2734,-0.2913,0.0,0.0,0.0,-0.4332,-0.4254,0.0,0.0,0.0,0.0,0.0,-0.3108,-0.3131,-0.3256,-0.3306,0.0,0.0,0.0,0.0,0.0,0.0,0.0,0.0,0.0,0.0,0.0,0.0,0.0,0.0,0.0,0.0,0.0,0.0,0.0,0.0,0.0,0.0,0.0,0.0,0.0,0.0,0.0,0.0,0.0,0.0,-0.9884,-0.9884,-0.9884,-0.9884,-0.9884,-1.0105,-1.0105,-0.9922,-0.9884,-0.9884,-0.9884,-0.9884,-0.9884,-0.9884,-0.9884,-0.9992,-1.0218,-1.0218,-1.0406,-1.0812,-1.0999,-1.0962,-1.085,-1.1223,-1.1521,-1.1744,-1.2378,-1.2709,-1.2936,0.0135,0.0022,-0.0157,-0.0398,-0.043,-0.044,-0.0497,-0.0372,-0.0291,0.0,0.0,0.0,-0.027,-0.0195,-0.0105,0.0,0.0,0.0,0.0,0.0,0.0,0.0,0.0,0.0,0.0,0.0,0.0,0.0,0.0,0.0,0.0,0.0,0.0,0.0,-0.0087,-0.0157,-0.0236,-0.0618,0.0,0.0,-0.1589,-0.2246,0.0,0.0,0.0,0.0,0.0,-0.4168,0.0,0.0,-0.374,-0.3779,0.0,0.0,0.0,-0.3151,-0.332,0.0,-0.3517,0.0,0.0,0.0,0.0,0.0,0.0,0.0,0.0,0.0,0.0,0.0,0.0,0.0,0.0,0.0,0.0,0.0,0.0,0.0,0.0,0.0,0.0,0.0,0.0,0.0,0.0,0.0,-0.9695,-0.9733,-0.9879,-0.9884,-0.9884,-0.9884,-0.9954,-0.9954,-0.9922,-0.9884,-0.9884,-0.9884,-0.9884,-0.9884,-0.9884,-0.9884,-0.9992,-1.0218,-1.0218,-1.0255,-1.0368,-1.0588,-1.07,-1.0812,-1.0925,-1.1186,-1.1521,-1.1818,-1.215,-1.2489,0.0269,0.0067,-0.0181,-0.0368,-0.0384,-0.0403,-0.0455,-0.0342,-0.0274,0.0,0.0,0.0,-0.0209,-0.0203,-0.0155,-0.0022,0.0,0.0,0.0,0.0,0.0,0.0,0.0,0.0,0.0,0.0,0.0,0.0,0.0,0.0,0.0,0.0,0.0,0.0,0.0,0.0,-0.0021,-0.0284,0.0,0.0,-0.1263,0.0,0.0,-0.3297,-0.3968,0.0,0.0,0.0,-0.4164,-0.4,-0.3928,0.0,0.0,-0.3393,-0.3357,-0.3232,-0.3432,0.0,0.0,0.0,0.0,0.0,0.0,0.0,0.0,0.0,0.0,0.0,0.0,0.0,0.0,0.0,0.0,0.0,0.0,0.0,0.0,0.0,0.0,0.0,0.0,0.0,0.0,0.0,0.0,-0.9203,-0.9311,-0.9425,-0.962,-0.9809,-0.9846,-0.9771,-0.9922,-0.9992,-0.9922,-0.9825,-0.9776,-0.9776,-0.9669,-0.9674,-0.9776,-0.9776,-0.9905,-1.0067,-1.0067,-1.0067,-1.0067,-1.0218,-1.0368,-1.0556,-1.0738,-1.0925,-1.1186,-1.1484,-1.1781,-1.2077,0.0,0.0293,0.0046,-0.0239,-0.0192,-0.0195,-0.0378,-0.0278,-0.0202,0.0,-0.0127,-0.005,-0.0024,-0.0144,-0.0165,-0.0023,0.0,0.0,0.0,0.0,0.0,0.0,0.0,0.0,0.0,0.0,0.0,0.0,0.0,0.0,0.0,0.0,0.0,0.0,0.0,0.0,0.0,0.0,0.0,-0.0081,-0.1085,-0.1715,0.0,0.0,-0.4051,0.0,-0.4489,-0.4375,-0.4261,-0.4257,-0.4067,0.0,0.0,-0.3655,-0.3758,-0.3467,-0.361,0.0,-0.3826,-0.3927,0.0,0.0,0.0,0.0,-0.3636,-0.3723,0.0,0.0,0.0,0.0,0.0,0.0,0.0,0.0,0.0,0.0,0.0,0.0,0.0,0.0,0.0,0.0,0.0,-0.8519,-0.8519,-0.8557,-0.8741,-0.8972,-0.917,-0.9541,-0.9654,-0.9546,-0.9879,-0.9991,-0.9841,-0.9637,-0.954,-0.9534,-0.9314,-0.9324,-0.954,-0.954,-0.9647,-0.9841,-0.9868,-0.9884,-0.9884,-0.9911,-1.003,-1.0255,-1.0588,-1.0738,-1.0812,-1.1223,-1.1484,-1.1669,0.1028,0.1012,0.0834,0.0396,0.0349,0.0202,-0.0314,-0.0283,-0.0229,-0.0341,-0.0437,-0.0412,-0.019,-0.0277,-0.0313,-0.0172,-0.0069,0.0,0.0,0.0,0.0,0.0,0.0,0.0,0.0,0.0,0.0,0.0,0.0,0.0,0.0,0.0,0.0,0.0,0.0,0.0,0.0,0.0,0.0,-0.0053,-0.0517,0.0,-0.2088,-0.2639,-0.3295,-0.4014,-0.4234,-0.4254,-0.4147,0.0,-0.3813,-0.3551,0.0,0.0,0.0,-0.3877,0.0,-0.4307,-0.4039,-0.4062,-0.4119,-0.3897,0.0,0.0,0.0,-0.3778,0.0,0.0,0.0,0.0,0.0,0.0,0.0,0.0,0.0,0.0,0.0,0.0,0.0,0.0,0.0,0.0,0.0,-0.7343,-0.7415,-0.7555,-0.792,-0.8212,-0.8387,-0.8597,-0.8811,-0.9102,-0.9209,-0.928,-0.9346,-0.9297,-0.9276,-0.9276,-0.9227,-0.9227,-0.9276,-0.9276,-0.9303,-0.9357,-0.9556,-0.9642,-0.9658,-0.9841,-1.003,-1.0218,-1.0293,-1.0406,-1.0625,-1.0999,-1.1186,-1.1298,0.1447,0.133,0.1166,0.0927,0.0907,0.0734,0.0217,0.0215,0.0108,-0.0307,-0.047,-0.0437,-0.0137,-0.0209,-0.0251,-0.0123,-0.0047,0.0,0.0,0.0,0.0,0.0,0.0,0.0,0.0,0.0,0.0,0.0,0.0,0.0,0.0,0.0,0.0,0.0,0.0,0.0,0.0,0.0,-0.0046,-0.013,-0.0615,0.0,-0.2123,-0.2737,-0.3478,-0.4239,-0.4427,-0.4467,-0.435,-0.3883,-0.3714,0.0,0.0,-0.3771,-0.3649,0.0,-0.3719,-0.3666,0.0,0.0,-0.3482,-0.3668,0.0,0.0,0.0,0.0,0.0,0.0,0.0,0.0,0.0,0.0,0.0,0.0,0.0,0.0,0.0,0.0,0.0,0.0,0.0,0.0,0.0,-0.6702,-0.6774,-0.6877,-0.7095,-0.7304,-0.7477,-0.7828,-0.8181,-0.8544,-0.8825,-0.9071,-0.9206,-0.9093,-0.9034,-0.9034,-0.8915,-0.8921,-0.9034,-0.9034,-0.9098,-0.9211,-0.9335,-0.9394,-0.941,-0.9653,-0.9824,-0.9909,-1.0136,-1.0255,-1.0406,-1.07,-1.0925,-1.1149,0.181,0.1646,0.1477,0.139,0.144,0.133,0.0893,0.0785,0.0483,-0.0207,-0.0384,-0.0348,-0.0111,-0.0164,-0.016,-0.0051,-0.0025,0.0,0.0,0.0,0.0,0.0,0.0,0.0,0.0,0.0,0.0,0.0,0.0,0.0,0.0,0.0,0.0,0.0,0.0,0.0,0.0,0.0,0.0,-0.021,0.0,-0.133,-0.2027,-0.29,-0.3672,-0.4328,-0.4537,-0.4467,-0.4237,-0.3722,0.0,-0.3706,-0.3841,-0.358,0.0,0.0,0.0,0.0,0.0,0.0,0.0,0.0,0.0,-0.3425,0.0,0.0,0.0,-0.4059,0.0,0.0,0.0,0.0,0.0,0.0,0.0,0.0,0.0,0.0,0.0,0.0,0.0,0.0,0.0,-0.6091,-0.6087,-0.6117,-0.6155,-0.6275,-0.6511,-0.7028,-0.7504,-0.7927,-0.8453,-0.8835,-0.8997,-0.8888,-0.883,-0.8825,-0.8603,-0.8614,-0.883,-0.883,-0.8894,-0.9077,-0.912,-0.9141,-0.9157,-0.9405,-0.9507,-0.957,-0.9995,-1.0115,-1.0114,-1.0295,-1.0564,-1.0856,0.2233,0.2256,0.2145,0.1725,0.19,0.1922,0.1398,0.1064,0.0602,-0.0183,-0.027,-0.03,0.0,0.0,0.0,0.0,0.0,0.0,0.0,0.0,0.0,0.0,0.0,0.0,0.0,0.0,0.0,0.0,0.0,0.0,0.0,0.0,0.0,0.0,0.0,0.0,0.0,0.0,0.0,0.0,-0.0303,-0.0743,0.0,-0.2593,-0.3147,-0.3349,-0.3936,-0.3686,-0.3066,0.0,-0.3093,-0.2682,0.0,-0.352,0.0,0.0,0.0,0.0,0.0,0.0,0.0,0.0,-0.2824,0.0,0.0,0.0,-0.3716,-0.397,0.0,0.0,0.0,0.0,0.0,0.0,0.0,0.0,0.0,0.0,0.0,0.0,0.0,0.0,0.0,0.0,-0.484,-0.4721,-0.4954,-0.5234,-0.5528,-0.6023,-0.6602,-0.7272,-0.7668,-0.7997,-0.8309,-0.8462,-0.8554,-0.8554,-0.8528,-0.8528,-0.8554,-0.8554,-0.8571,-0.8603,-0.8846,-0.8938,-0.8954,-0.9152,-0.9249,-0.9292,-0.9744,-0.983,-0.9694,-0.9907,-0.9948,-1.0037,0.2364,0.2429,0.2444,0.2269,0.2405,0.2283,0.1518,0.0726,0.0122,-0.009,-0.028,0.0,0.0,0.0,0.0,0.0,0.0,0.0,0.0,0.0,0.0,0.0,0.0,0.0,0.0,0.0,0.0,0.0,0.0,0.0,0.0,0.0,0.0,0.0,0.0,0.0,0.0,0.0,0.0,0.0,0.0,0.0,0.0,-0.1585,-0.23,-0.2804,-0.3216,-0.3032,-0.2638,0.0,-0.2433,0.0,0.0,0.0,0.0,0.0,0.0,0.0,0.0,0.0,0.0,0.0,0.0,0.0,-0.285,0.0,-0.3006,0.0,0.0,0.0,0.0,0.0,0.0,0.0,0.0,0.0,0.0,0.0,0.0,0.0,0.0,0.0,0.0,0.0,0.0,0.0,0.0,-0.4494,-0.481,-0.5292,-0.5849,-0.6412,-0.6975,-0.74,-0.7782,-0.8084,-0.8247,-0.8339,-0.8447,-0.8517,-0.8517,-0.8517,-0.8517,-0.8522,-0.8619,-0.8662,-0.8678,-0.891,-0.9041,-0.9073,-0.9373,-0.9443,-0.9362,-0.9469,-0.955,-0.9694,0.2717,0.0,0.267,0.2594,0.2632,0.2339,0.1414,0.0564,0.0,-0.0061,0.0,0.0,-0.0099,-0.0165,0.0,0.0,0.0,0.0,0.0,0.0,0.0,0.0,0.0,0.0,0.0,0.0,0.0,0.0,0.0,0.0,0.0,0.0,0.0,0.0,0.0,0.0,0.0,0.0,0.0,0.0,0.0,0.0,-0.0094,-0.0823,-0.1609,-0.2335,-0.2456,-0.225,-0.1982,-0.1955,-0.174,0.0,-0.2162,0.0,0.0,0.0,0.0,0.0,-0.0549,0.0,0.0,0.0,0.0,0.0,0.0,0.0,0.0,0.0,0.0,0.0,0.0,0.0,0.0,0.0,0.0,0.0,0.0,0.0,0.0,0.0,0.0,0.0,0.0,0.0,0.0,0.0,0.0,0.0,-0.4289,-0.4775,-0.525,-0.5687,-0.6355,-0.6872,-0.7265,-0.7657,-0.7949,-0.8139,-0.8344,-0.8447,-0.8517,-0.8517,-0.8517,-0.8517,-0.8517,-0.8517,-0.8528,-0.87,-0.8803,-0.8819,-0.8947,-0.9012,-0.9023,-0.9087,-0.9215,-0.9348,0.3469,0.321,0.0,0.0,0.0,0.201,0.1073,0.0881,0.0572,0.0,0.0,0.0,0.0,0.0,0.0,0.0,0.0,0.0,0.0,0.0,0.0,0.0,0.0,0.0,0.0,0.0,0.0,0.0,0.0,0.0,0.0,0.0,0.0,0.0,0.0,0.0,0.0,0.0,0.0,0.0,0.0,0.0,-0.007,0.0,-0.1314,-0.188,-0.1724,0.0,0.0,-0.1337,-0.1074,0.0,0.0,0.0,0.0,0.0,0.0,0.0,0.0,0.0,0.0,-0.0658,0.0,0.0,0.0,0.0,-0.1974,0.0,0.0,0.0,0.0,0.0,0.0,0.0,0.0,0.0,0.0,0.0,0.0,0.0,0.0,0.0,0.0,0.0,0.0,0.0,0.0,0.0,-0.4019,-0.439,-0.4817,-0.5205,-0.5799,-0.6309,-0.6708,-0.726,-0.7689,-0.8019,-0.8139,-0.8306,-0.8517,-0.8517,-0.8517,-0.8517,-0.8517,-0.8517,-0.8517,-0.8522,-0.8528,-0.8528,-0.8533,-0.8538,-0.8565,-0.8825,-0.8859,-0.8891,0.0,0.0,0.0,0.0,0.0,0.3008,0.2156,0.1648,0.0,0.0,0.0,0.0,0.0,0.0,-0.0157,0.0,0.0,0.0,0.0,0.0,0.0,0.0,0.0,-0.0081,0.0,0.0,-0.0092,0.0,0.0,0.0,0.0,0.0,0.0,0.0,0.0,0.0,0.0,0.0,0.0,0.0,0.0,0.0,-0.0037,0.0,0.0,-0.0845,-0.0898,-0.0699,0.0,-0.0651,-0.0565,-0.044,-0.0814,-0.0692,-0.0406,-0.0548,-0.0258,0.0,0.0,0.0,0.0033,-0.0289,0.0,0.0,0.0,0.0,0.0,0.0,0.0,0.0,0.0,0.0,0.0,0.0,0.0,0.0,0.0,0.0,0.0,0.0,0.0,0.0,0.0,0.0,0.0,0.0,0.0,0.0,0.0,-0.4151,-0.4443,-0.4658,-0.5179,-0.5617,-0.598,-0.6371,-0.6802,-0.7274,-0.7591,-0.7819,-0.7992,-0.8214,-0.8306,-0.8306,-0.8447,-0.8517,-0.8517,-0.8517,-0.8517,-0.8517,-0.8517,-0.8517,-0.8522,-0.8603,-0.8614,-0.8652,0.4741,0.0,0.0,0.0,0.0,0.0,0.0,0.0,0.0,0.0,0.062,0.0,0.0277,0.0,0.0205,0.0,0.0164,0.0119,0.0,0.0,0.0,0.0,-0.0093,0.0,0.0,0.0,-0.0049,0.0117,0.0045,0.0,0.0,0.0,0.0,0.0,0.0,0.0,0.0,0.0,0.0,0.0,0.0,0.0,0.0,0.0,-0.0194,-0.0192,0.0,-0.0311,-0.0192,-0.0195,-0.0191,-0.0184,-0.0183,-0.0177,-0.017,-0.0033,0.0098,0.0164,0.0033,0.0133,0.0,-0.013,-0.0095,0.0,-0.0332,0.0,0.0,0.0,0.0,0.0,0.0,0.0,0.0,0.0,0.0,0.0,0.0,0.0,0.0,0.0,0.0,0.0,0.0,0.0,-0.3459,-0.3705,0.0,0.0,0.0,0.0,-0.4114,-0.421,-0.4622,-0.5009,-0.5322,-0.5683,-0.6115,-0.6609,-0.6966,-0.726,-0.7531,-0.7814,-0.8009,-0.8139,-0.8312,-0.8447,-0.8517,-0.8517,-0.8517,-0.8517,-0.8517,-0.8517,-0.8517,-0.8517,-0.8544,-0.8641,0.0,0.0,0.0,0.0,0.3939,0.0,0.0,0.0,0.2394,0.0,0.1757,0.1513,0.0894,0.1022,0.1032,0.0759,0.0591,0.0,0.0079,0.0077,0.0,0.0,0.0033,0.0128,0.0341,0.0,0.0,0.0,0.0122,0.0,0.0,0.0,0.0,0.0,0.0,0.0,0.0,0.0,0.0,0.0,0.0,0.0,0.0,0.0,0.0,0.0,0.0,0.0,0.0,0.0,0.0,0.0,0.0,0.0,0.0,0.0,0.0,0.0,0.0,0.0135,0.0201,-0.0098,0.0,0.0,0.0,0.0,-0.0449,0.0,0.0,0.0,0.0,0.0,0.0,0.0,0.0,0.0,0.0,0.0,0.0,0.0,0.0,0.0,0.0,0.0,-0.3573,-0.358,-0.3577,0.0,0.0,0.0,-0.3832,-0.3931,-0.4244,-0.4534,-0.4794,-0.5196,-0.5591,-0.6079,-0.6272,-0.6634,-0.7134,-0.7363,-0.7657,-0.7954,-0.8107,-0.8306,-0.8479,-0.8479,-0.8484,-0.8517,-0.8517,-0.8517,-0.8517,-0.8517,-0.8608,-0.8802,0.5093,0.521,0.5257,0.0,0.49,0.4684,0.0,0.0,0.0,0.0,0.3149,0.2767,0.2592,0.2164,0.1797,0.1545,0.148,0.0,0.0,0.0,0.0,0.0764,0.075,0.0813,0.0955,0.0528,0.0,0.1117,0.0,0.0,0.0656,0.0,0.0,0.0,0.0,0.0,0.0,0.0,0.0,0.0,0.0,0.0,0.0,0.0,0.0,0.0,0.0,0.0,0.0,0.0,0.0,0.0,0.0,0.0,0.0,0.0,0.0,0.0,0.0,0.0034,0.0101,0.0167,0.0164,0.0097,0.0,0.0,0.0,0.0,0.0,0.0,0.0,0.0,0.0,0.0,0.0,0.0,0.0,0.0,0.0,0.0,0.0,0.0,0.0,-0.283,-0.3108,-0.3155,-0.3346,0.0,0.0,0.0,0.0,-0.426,-0.4339,-0.4599,-0.5024,-0.496,-0.516,-0.5591,-0.562,-0.5855,-0.6251,-0.6708,-0.7101,-0.7428,-0.7694,-0.7982,-0.8274,-0.8274,-0.8376,-0.8517,-0.8517,-0.8517,-0.8517,-0.8517,-0.8549,-0.8608,0.5314,0.0,0.0,0.5596,0.0,0.0,0.5406,0.0,0.0,0.4668,0.4301,0.0,0.3722,0.3331,0.2999,0.2732,0.2438,0.0,0.1737,0.0,0.0,0.1659,0.1715,0.1782,0.1913,0.146,0.0,0.1744,0.0,0.0,0.1118,0.0,0.0,0.0,0.0,0.018,0.0,0.0,0.0,0.0,0.0,0.0,0.0,0.0,0.0,0.0,0.0,0.0,0.0,0.0,0.0,0.0,0.0,0.0,0.0,0.0,0.0,0.0,0.0,0.0,0.0034,0.0135,0.0133,0.0099,0.0033,-0.0033,-0.01,0.0,0.0,0.0,0.0,0.0,0.0,0.0,0.0,0.0,0.0,0.0,0.0,0.0,0.0,0.0,0.0,-0.2559,-0.3026,-0.281,-0.3215,0.0,0.0,0.0,0.0,-0.4207,-0.4344,-0.4541,-0.4804,-0.4734,-0.4861,-0.513,-0.513,-0.5329,-0.5693,-0.6152,-0.6548,-0.6876,-0.7209,-0.7563,-0.7912,-0.7949,-0.8117,-0.8284,-0.8344,-0.8414,-0.8517,-0.8517,-0.8517,-0.8517,0.0,0.0,0.0,0.0,0.0,0.0,0.0,0.587,0.0,0.5365,0.0,0.5213,0.4681,0.4561,0.4387,0.4117,0.0,0.3109,0.2789,0.2779,0.2794,0.2782,0.2902,0.2955,0.3033,0.2637,0.0,0.0,0.0,0.0,0.0,0.0,0.0,0.0,0.0,0.0,0.0,0.0,0.0,0.0,0.0,0.0,0.0,0.0,0.0,0.0,0.0,0.0,0.0,0.0,0.0,0.0,0.0,0.0,0.0,0.0,0.0,0.0,0.0,0.0,0.0,0.0,0.0,0.0,0.0,0.0,0.0,0.0,-0.0099,-0.0131,0.0,0.0,0.0,0.0,0.0,0.0,0.0,0.0,0.0,0.0,0.0,0.0,0.0,-0.2274,-0.298,-0.2443,0.0,0.0,0.0,0.0,0.0,-0.4016,-0.4291,0.0,-0.4472,0.0,-0.4694,-0.4797,-0.4797,-0.4964,-0.5329,-0.569,-0.5991,-0.6317,-0.6646,-0.704,-0.7396,-0.7563,-0.7792,-0.8047,-0.8139,-0.8306,-0.8517,-0.8517,-0.8517,-0.8517,0.0,0.0,0.0,0.0,0.0,0.628,0.6384,0.6506,0.6661,0.688,0.6662,0.6498,0.6387,0.5811,0.5366,0.5146,0.5013,0.0,0.0,0.0,0.0,0.4218,0.4253,0.4265,0.4203,0.3613,0.3431,0.0,0.2753,0.2426,0.0,0.0,0.0,0.0,0.0,0.0,0.0,0.0,0.0,0.0,0.0,0.0,0.0,0.0,0.0,0.0,0.0,0.0,0.0,0.0,0.0,0.0,0.0,0.0,0.0,0.0,0.0,0.0,0.0,0.0,0.0,0.0,0.0,0.0,0.0,0.0,0.0,0.0,-0.0034,0.0,0.0131,0.0,0.0,0.0,0.0,0.0,0.0,0.0,0.0,0.0,0.0,0.0,0.0,0.0,-0.2014,0.0,0.0,0.0,0.0,0.0,0.0,0.0,-0.4477,0.0,0.0,0.0,-0.4764,-0.4797,-0.4694,-0.4728,-0.493,-0.5296,-0.5591,-0.5749,-0.6148,-0.6511,-0.6872,-0.7171,-0.7624,-0.8172,-0.8199,-0.8306,-0.8517,-0.8517,-0.8517,-0.8517,0.0,0.0,0.0,0.0,0.0,0.0,0.0,0.7042,0.0,0.7356,0.7289,0.7171,0.7137,0.6677,0.6287,0.6133,0.5905,0.5636,0.5411,0.5447,0.546,0.5372,0.5427,0.0,0.5224,0.4771,0.4522,0.45,0.3664,0.3284,0.0,0.0,0.0,0.0,0.0,0.1014,0.0,0.0,0.0,0.0475,0.0342,0.0311,0.0314,0.0196,0.0157,0.0157,0.0039,0.0,0.0,0.0,0.0,0.0,0.0,0.0,0.0,0.0,0.0,0.0,0.0,0.0,0.0,0.0,0.0,0.0,0.0,0.0,0.0,0.0,0.0,0.0033,0.0097,0.0096,0.0,0.0,0.0,0.0,0.0,0.0,0.0,0.0,0.0,0.0,0.0,0.0,0.0,0.0,0.0,0.0,0.0,0.0,0.0,0.0,0.0,0.0,0.0,0.0,0.0,-0.496,-0.4891,-0.4891,-0.496,-0.5259,-0.5392,-0.5352,-0.5653,-0.5918,-0.6178,-0.6708,-0.7232,-0.7684,-0.7782,-0.8014,-0.8252,-0.8252,-0.8279,-0.8376,0.0,0.6739,0.0,0.0,0.7041,0.0,0.7193,0.7495,0.7628,0.7444,0.7522,0.7553,0.7434,0.7211,0.7054,0.6936,0.6542,0.6305,0.6305,0.6305,0.6305,0.6305,0.6399,0.6295,0.6081,0.5806,0.5467,0.0,0.0,0.0,0.0,0.0,0.3409,0.2962,0.0,0.0,0.0,0.0,0.0841,0.1104,0.0906,0.081,0.0785,0.0589,0.0471,0.0393,0.0196,0.0118,0.0039,0.0,0.0,0.0,0.0,0.0,0.0,0.0,0.0,0.0,0.0,0.0,0.0,0.0,0.0,0.0,0.0,0.0,0.0,0.0,0.0,0.0,0.0,0.0098,0.0,0.0,0.0,0.0,0.0,0.0,0.0,0.0,0.0,0.0,0.0,0.0,0.0,0.0,0.0,0.0,0.0,0.0,0.0,0.0,0.0,-0.4703,-0.4698,0.0,-0.4955,0.0,-0.5087,-0.5087,-0.512,-0.5292,-0.5292,-0.512,-0.5259,-0.5422,-0.565,-0.6346,-0.6839,-0.7171,-0.7363,-0.7624,-0.7884,-0.7884,-0.7949,-0.8074,0.0,0.0,0.0,0.0,0.0,0.0,0.0,0.7807,0.7847,0.7614,0.759,0.7594,0.758,0.7455,0.7366,0.735,0.7131,0.7007,0.7007,0.7007,0.7007,0.7007,0.6917,0.6766,0.664,0.635,0.5982,0.0,0.0,0.0,0.0,0.0,0.4019,0.3353,0.0,0.0,0.0,0.196,0.1832,0.1774,0.1586,0.1487,0.149,0.1295,0.1061,0.0825,0.0628,0.0432,0.0236,0.0079,0.0,0.0,0.0,0.0,0.0,0.0,0.0,0.0,0.0,0.0,0.0,0.0,0.0,0.0,0.0,0.0,0.0,0.0,0.0,0.0,0.0,0.0,0.0066,0.0,0.0,0.0,0.0,0.0,0.0,0.0,0.0,0.0,0.0,0.0,0.0,0.0,0.0,0.0,0.0,0.0,0.0,-0.4015,0.0,-0.4703,-0.4698,-0.4844,-0.4955,-0.5087,-0.5087,-0.5087,-0.512,-0.5292,-0.5292,-0.5087,-0.512,-0.5319,-0.565,-0.6181,-0.6618,-0.6946,-0.7138,-0.7363,-0.7554,-0.7554,-0.7554,-0.7587,0.0,0.0,0.0,0.0,0.0,0.0,0.0,0.7914,0.7948,0.783,0.7865,0.7828,0.7736,0.7672,0.76,0.7516,0.7366,0.7278,0.7278,0.7146,0.7095,0.7095,0.7041,0.6943,0.6841,0.6542,0.6263,0.0,0.0,0.0,0.0,0.0,0.0,0.0,0.0,0.3823,0.3888,0.3162,0.2888,0.2953,0.2755,0.2624,0.2468,0.2157,0.1962,0.1804,0.1372,0.1137,0.1059,0.0864,0.0432,0.0,0.0,0.0,0.0,0.0,0.0,0.0,0.0,0.0,0.0,0.0,0.0,0.0,0.0,0.0,0.0,0.0,0.0,0.0,0.0,0.0,0.0033,0.0,0.0,0.0,0.0,0.0,0.0,0.0,0.0,0.0,0.0,0.0,0.0,0.0,0.0,-0.124,-0.2352,0.0,0.0,-0.3782,0.0,-0.4439,-0.4823,-0.4886,-0.503,-0.5292,-0.5292,-0.5292,-0.5292,-0.5362,-0.5226,-0.4927,-0.4927,-0.4957,-0.502,-0.5455,-0.5785,-0.602,-0.6181,-0.6375,-0.6544,-0.6638,-0.6732,-0.6863,0.7719,0.0,0.7634,0.0,0.7794,0.7797,0.7958,0.7988,0.7988,0.7988,0.7988,0.7948,0.7889,0.7838,0.777,0.7672,0.7526,0.7463,0.7419,0.7268,0.7142,0.7098,0.7095,0.0,0.6889,0.6715,0.652,0.6294,0.5842,0.0,0.0,0.5292,0.0,0.0,0.4873,0.4771,0.5048,0.423,0.3975,0.4051,0.385,0.368,0.3524,0.3173,0.3018,0.2899,0.235,0.2077,0.1998,0.1726,0.1216,0.0589,0.0353,0.0275,0.0236,0.0118,0.0078,0.0076,0.0,0.0,0.0,0.0,0.0,0.0,0.0,0.0,0.0,0.0,0.0,0.0,0.0,0.0,0.0,0.0064,0.0,0.0,0.0,0.0,0.0,0.0,0.0,0.0,0.0,0.0,0.0,0.0,0.0,-0.0613,-0.179,0.0,0.0,0.0,0.0,0.0,0.0,-0.4857,-0.5067,-0.5395,-0.5395,-0.5395,-0.5395,-0.5395,-0.5196,-0.4797,-0.4861,-0.4794,-0.4625,-0.4957,-0.519,-0.5326,-0.5488,-0.562,-0.5756,-0.5851,-0.598,-0.6141,0.7955,0.7982,0.7982,0.7985,0.7985,0.7985,0.7988,0.7988,0.7988,0.7988,0.7988,0.7988,0.7988,0.7902,0.7811,0.7811,0.7678,0.7533,0.7429,0.7415,0.7299,0.0,0.0,0.7031,0.6889,0.6883,0.6705,0.6296,0.0,0.0,0.5806,0.5788,0.5799,0.5779,0.5579,0.5464,0.5389,0.5162,0.5045,0.4963,0.4776,0.4698,0.4659,0.4462,0.4265,0.4029,0.3563,0.3251,0.3013,0.2621,0.2349,0.204,0.1178,0.0904,0.0825,0.0432,0.0314,0.0234,0.0038,0.0,0.0,0.0,0.0,0.0,0.0,0.0,0.0,0.0,0.0,0.0,0.0,0.0,0.0033,0.0187,0.0,0.0,0.0,0.0,0.0,0.0,0.0,0.0,0.0,0.0,0.0,0.0,0.0,0.0,-0.0952,0.0,0.0,-0.2698,-0.2982,0.0,-0.4509,-0.4762,-0.5067,-0.5395,-0.5395,-0.5395,-0.5395,-0.5395,-0.5196,-0.4797,-0.5024,-0.4924,-0.4625,-0.4957,-0.5087,-0.512,-0.5326,-0.5395,-0.5395,-0.5395,-0.5395,-0.5428,0.8326,0.8137,0.7988,0.7988,0.7988,0.7988,0.7988,0.7988,0.7988,0.7988,0.7988,0.7988,0.7988,0.7944,0.7917,0.0,0.7831,0.7723,0.0,0.758,0.7458,0.7302,0.7299,0.7227,0.7034,0.6933,0.6815,0.6715,0.0,0.0,0.0,0.619,0.6256,0.6417,0.6237,0.6224,0.6284,0.6204,0.6105,0.5941,0.59,0.5784,0.5621,0.5415,0.533,0.5205,0.4719,0.4515,0.4431,0.4142,0.398,0.377,0.3331,0.2382,0.1333,0.1216,0.0942,0.0706,0.0622,0.0496,0.0409,0.0399,0.0318,0.0207,0.0203,0.0101,0.0,0.0,0.0,0.0,0.0,0.0,0.0,0.0062,0.0062,0.0,0.0,0.0,0.0,0.0,0.0,0.0,0.0,0.0348,0.0,0.0,0.0,0.0,0.0,0.0,0.0,0.0,-0.189,0.0,-0.4022,-0.3976,-0.4449,-0.5395,-0.5395,-0.5395,-0.5395,-0.5395,-0.5196,-0.4797,-0.4861,-0.4697,-0.4398,-0.4498,-0.4564,-0.4564,-0.4631,-0.4667,-0.4664,-0.4794,-0.4861,-0.4894,0.9076,0.8783,0.8588,0.8489,0.8386,0.8283,0.8187,0.8088,0.7988,0.7988,0.7988,0.7988,0.7988,0.7988,0.0,0.7988,0.7901,0.7872,0.7814,0.7729,0.7611,0.7465,0.7458,0.7383,0.7231,0.0,0.0,0.6886,0.6678,0.6559,0.6556,0.6508,0.6525,0.6698,0.66,0.661,0.6702,0.6702,0.6615,0.6529,0.6529,0.645,0.6325,0.6197,0.6156,0.6073,0.5737,0.5571,0.5571,0.536,0.5232,0.5127,0.4958,0.4012,0.285,0.2238,0.1803,0.1452,0.1334,0.1118,0.0981,0.0965,0.0761,0.0495,0.0344,0.0204,0.0101,0.0,0.0,0.0,0.0,0.0,0.0,0.0,0.0,0.003,0.0113,0.0,0.0,0.0,0.0,0.0,0.0,0.0191,0.0,0.0,0.0,0.0,0.0,0.0,0.0,-0.0993,-0.1064,0.0,-0.3219,-0.34,-0.4035,-0.5093,-0.5292,-0.5395,-0.5395,-0.5395,-0.5196,-0.4797,-0.4797,-0.4597,-0.43,-0.43,-0.43,-0.43,-0.43,-0.43,-0.43,-0.4431,-0.4495,-0.4528,1.0162,0.9871,0.0,0.0,0.9076,0.0,0.8531,0.8287,0.8091,0.8091,0.8038,0.8038,0.8038,0.7988,0.7988,0.7988,0.0,0.0,0.0,0.7828,0.7763,0.7621,0.7614,0.7543,0.7436,0.7422,0.7231,0.69,0.68,0.6729,0.6729,0.6729,0.6729,0.6729,0.6729,0.6729,0.6729,0.6729,0.6729,0.6729,0.6729,0.6729,0.6729,0.6729,0.6729,0.6687,0.6517,0.6431,0.6431,0.6229,0.6184,0.6153,0.6022,0.5684,0.5082,0.3428,0.2781,0.251,0.2156,0.1891,0.1708,0.1705,0.1337,0.0905,0.0493,0.0378,0.0338,0.0101,0.0034,0.0034,0.0034,0.0,0.0,0.0,0.0,0.0,0.0,0.0,0.0,0.0,0.0,0.0,0.0,0.0194,0.0139,0.0,0.0,0.0,0.0,0.0,0.0348,-0.0147,-0.0442,-0.1121,-0.2216,-0.2993,-0.3788,-0.4592,-0.5126,-0.5395,-0.5395,-0.5395,-0.5193,-0.4827,-0.4827,-0.4631,-0.4334,-0.4334,-0.4334,-0.4334,-0.4334,-0.4334,-0.4334,-0.43,-0.43,-0.43,0.0,0.0,1.0739,1.0493,1.0194,0.9953,0.9669,0.9229,0.8935,0.8935,0.8535,0.8283,0.8283,0.8137,0.7988,0.7988,0.7988,0.7975,0.7938,0.7934,0.787,0.7767,0.7763,0.7692,0.755,0.7431,0.7278,0.7048,0.7011,0.6994,0.6994,0.6994,0.6994,0.6994,0.6994,0.6994,0.6994,0.6994,0.6994,0.6994,0.6994,0.6994,0.6994,0.6994,0.6994,0.6994,0.6947,0.6947,0.6947,0.6863,0.6791,0.6698,0.6662,0.6455,0.6002,0.4841,0.4105,0.368,0.3409,0.3161,0.294,0.277,0.2447,0.1952,0.134,0.122,0.1104,0.071,0.0504,0.0336,0.0236,0.0101,0.0,0.0,0.0,0.0,0.0,0.0,0.0,0.0,0.0057,0.0058,0.0058,0.0059,0.003,0.0,0.0,0.0,0.0,0.0174,0.0266,0.0177,0.0301,-0.0248,-0.1512,-0.2037,-0.3062,-0.4592,-0.499,-0.5156,-0.519,-0.5326,-0.5259,-0.5024,-0.5024,-0.4894,-0.4697,-0.4697,-0.4697,-0.4664,-0.4561,-0.4528,-0.4495,-0.4367,-0.43,-0.43,1.2732,1.2441,1.215,1.1901,1.1512,1.1175,1.0792,1.0256,0.9862,0.9772,0.9377,0.9126,0.9126,0.8783,0.8485,0.8382,0.8137,0.7988,0.7988,0.7988,0.7955,0.7919,0.7916,0.7845,0.7699,0.7614,0.7465,0.7244,0.7244,0.721,0.7095,0.7095,0.7095,0.7095,0.7095,0.7095,0.7095,0.7095,0.7095,0.7095,0.7095,0.7095,0.7095,0.7095,0.7095,0.7095,0.7095,0.7095,0.7095,0.7095,0.7136,0.7147,0.7075,0.6937,0.673,0.6089,0.5365,0.473,0.454,0.4229,0.3943,0.3619,0.3315,0.2913,0.2365,0.2084,0.184,0.148,0.1164,0.0887,0.0709,0.0505,0.033,0.0249,0.0185,0.0121,0.0085,0.0028,0.0,0.0,0.0,0.0,0.0,0.0,0.0,0.0,0.0,0.0,0.0,0.0121,0.0245,0.0301,0.0403,0.0032,-0.0919,-0.1832,-0.2917,-0.4225,-0.4589,-0.4788,-0.4888,-0.5156,-0.516,-0.4957,-0.5054,-0.499,-0.4797,-0.4797,-0.4797,-0.4797,-0.4728,-0.4661,-0.4592,-0.4461,-0.4364,-0.43,1.4148,1.3902,1.3661,1.3366,1.2926,1.2436,1.1999,1.1512,1.1077,1.0846,1.0507,1.031,1.031,0.9772,0.9327,0.9069,0.8528,0.8187,0.7988,0.7988,0.7988,0.7988,0.7988,0.7928,0.7848,0.7824,0.7678,0.7453,0.7453,0.7339,0.7166,0.7166,0.7166,0.7166,0.7139,0.7132,0.7129,0.7105,0.7095,0.7095,0.7095,0.7095,0.7095,0.7095,0.7095,0.7095,0.7095,0.7095,0.7095,0.7095,0.7234,0.739,0.7256,0.7239,0.724,0.7101,0.6448,0.5758,0.5509,0.514,0.4737,0.438,0.4124,0.3831,0.3438,0.3046,0.2725,0.2404,0.2041,0.1677,0.136,0.1116,0.0862,0.0593,0.0432,0.0303,0.0171,0.0,0.0,0.0,0.0,0.0,0.0,0.0,0.0,0.0,0.0,0.0,0.0,0.0094,0.0187,0.0249,0.0223,-0.0065,-0.0571,-0.188,-0.2887,-0.3589,-0.3956,-0.4256,-0.4459,-0.4791,-0.4858,-0.4797,-0.4957,-0.499,-0.4861,-0.4861,-0.4897,-0.4897,-0.4861,-0.4761,-0.4658,-0.4628,-0.4531,-0.4367,1.4981,1.4885,1.479,1.4496,1.4202,1.3902,1.3613,1.3076,1.2732,1.2684,1.2101,1.1712,1.1712,1.1028,1.044,1.0194,0.9657,0.897,0.8038,0.7988,0.7988,0.7988,0.7988,0.7978,0.7955,0.7879,0.7729,0.7563,0.7563,0.7553,0.7529,0.7529,0.7529,0.7522,0.7394,0.7336,0.7326,0.7149,0.7095,0.7095,0.7095,0.7095,0.7095,0.7095,0.7095,0.7095,0.7095,0.7095,0.7095,0.7095,0.7139,0.7139,0.7112,0.7151,0.7215,0.719,0.6968,0.6678,0.6197,0.5762,0.5404,0.5165,0.5071,0.4914,0.4475,0.4328,0.4098,0.3487,0.3217,0.2904,0.2234,0.1841,0.1457,0.0845,0.0587,0.0366,0.0059,0.0,0.0,0.0,0.0,0.0,0.0,0.0,0.0,0.0,0.0,0.0,0.0,0.0033,0.0033,0.0032,0.0161,-0.0196,-0.1008,-0.1512,-0.2049,-0.2618,-0.3121,-0.3491,-0.3687,-0.4025,-0.4325,-0.4628,-0.4794,-0.4927,-0.5057,-0.5226,-0.5296,-0.5296,-0.5123,-0.5057,-0.4987,-0.4827,-0.4764,-0.4697,1.5506,1.5458,1.5458,1.5309,1.5207,1.4968,1.4592,1.4196,1.3908,1.3757,1.3318,1.3028,1.3028,1.2441,1.1853,1.1463,1.0974,1.0342,0.9558,0.8676,0.8237,0.8237,0.8088,0.7988,0.7988,0.7921,0.7862,0.7712,0.7712,0.7675,0.76,0.76,0.76,0.7597,0.7526,0.7495,0.7489,0.7417,0.7387,0.7387,0.7387,0.7387,0.7387,0.7387,0.7336,0.7265,0.7265,0.721,0.7095,0.7095,0.7095,0.7095,0.7095,0.7136,0.7125,0.7125,0.7087,0.6908,0.6475,0.6228,0.6041,0.5886,0.575,0.5574,0.536,0.5116,0.4893,0.4548,0.4227,0.3901,0.3406,0.2963,0.2508,0.2022,0.1564,0.0,0.0,0.0551,0.0374,0.0189,0.0162,0.0132,0.0,0.0,0.0,0.0,0.0,0.0,0.0,0.0,0.0,0.0,-0.0033,-0.0299,-0.0773,-0.1042,-0.1378,-0.1813,-0.2183,-0.2485,-0.275,-0.3119,-0.3491,-0.3861,-0.4125,-0.4359,-0.4525,-0.4725,-0.4858,-0.496,-0.4957,-0.4924,-0.4924,-0.496,-0.4894,-0.4797,1.5798,1.5784,1.5784,1.5784,1.5784,1.5689,1.5315,1.507,1.4879,1.4682,1.4436,1.4286,1.4286,1.3806,1.3264,1.2829,1.2344,1.1853,1.1365,0.9998,0.9118,0.8779,0.8435,0.8237,0.8088,0.8137,0.8128,0.7959,0.8007,0.7952,0.7798,0.7798,0.775,0.7699,0.7665,0.7648,0.7648,0.7614,0.76,0.76,0.76,0.76,0.76,0.76,0.7526,0.7424,0.7424,0.7346,0.7196,0.7162,0.7149,0.7142,0.7105,0.7095,0.7095,0.7095,0.7063,0.6965,0.6617,0.6538,0.6484,0.6375,0.6165,0.598,0.598,0.5747,0.5488,0.5383,0.5136,0.4795,0.4491,0.4073,0.3624,0.3203,0.0,0.0,0.0,0.1212,0.0874,0.0521,0.0399,0.0269,0.0101,0.0034,0.0,0.0,0.0,0.0,0.0,0.0,0.0,0.0,-0.0135,-0.0303,-0.0437,-0.0605,-0.0841,-0.111,-0.1312,-0.1578,-0.1879,-0.2216,-0.2552,-0.2922,-0.3322,-0.3556,-0.3725,-0.399,-0.422,-0.4359,-0.4528,-0.4628,-0.4694,-0.4924,-0.4894,-0.4797,1.5838,1.5784,1.5784,1.5784,1.5784,1.5778,1.5737,1.5737,1.573,1.5689,1.5493,1.5397,1.5397,1.4921,1.4496,1.4196,1.3661,1.3221,1.2926,1.2198,1.1179,0.992,0.9381,0.8886,0.8382,0.8627,0.8619,0.8365,0.8609,0.8605,0.8347,0.8347,0.8202,0.7951,0.7858,0.7794,0.7787,0.7655,0.76,0.76,0.76,0.76,0.76,0.76,0.7594,0.7584,0.7584,0.7573,0.7546,0.7404,0.7398,0.7329,0.7139,0.7095,0.7095,0.7095,0.7082,0.7044,0.6759,0.658,0.6511,0.6501,0.6395,0.6261,0.6261,0.6261,0.6138,0.5886,0.5809,0.565,0.5211,0.4952,0.4572,0.3927,0.0,0.0,0.2401,0.1863,0.1432,0.1069,0.0705,0.0437,0.0303,0.0101,0.0,0.0,0.0,0.0,0.0,0.0,0.0,0.0,0.0,-0.0101,-0.0303,-0.0337,-0.0404,-0.0573,-0.0774,-0.0975,-0.1176,-0.1344,-0.1612,-0.2012,-0.2348,-0.2618,-0.282,-0.3353,-0.3553,-0.362,-0.3925,-0.4159,-0.4353,-0.4556,-0.4694,-0.4797,1.6159,1.5952,1.5784,1.5784,1.5784,1.5784,1.5784,1.5784,1.5784,1.5784,1.573,1.5689,1.5689,1.5499,1.5302,1.5064,1.4729,1.4394,1.41,1.3516,1.2393,1.0592,0.9965,0.9624,0.9373,0.9327,0.9327,0.9373,0.9472,0.9472,0.9373,0.9217,0.892,0.8478,0.8269,0.8097,0.7901,0.7847,0.7872,0.7872,0.7872,0.7872,0.7872,0.7872,0.7814,0.7729,0.7729,0.7675,0.759,0.7533,0.7512,0.7485,0.7333,0.7285,0.7265,0.7125,0.7095,0.7071,0.696,0.6865,0.6709,0.6559,0.647,0.6409,0.632,0.63,0.6261,0.618,0.6141,0.6086,0.5912,0.5635,0.5315,0.4961,0.0,0.3984,0.3561,0.3067,0.2552,0.2099,0.163,0.1211,0.0841,0.0505,0.0269,0.0202,0.0067,0.0,0.0,0.0,0.0,0.0,0.0,-0.0034,-0.0101,-0.0101,-0.0135,-0.0202,-0.0269,-0.0404,-0.0606,-0.0673,-0.0875,-0.1242,-0.1478,-0.1679,-0.1848,-0.2182,-0.2383,-0.2547,-0.2885,-0.3222,-0.3522,-0.3823,-0.4092,-0.4295,1.6466,1.6172,1.5972,1.5972,1.5892,1.5784,1.5784,1.5784,1.5784,1.5784,1.5784,1.5784,1.5784,1.5784,1.573,1.5588,1.5404,1.522,1.507,1.4538,1.3463,1.1609,1.1082,1.0797,1.065,1.0458,1.0408,1.0502,1.0605,1.0556,1.0364,1.0207,0.976,0.9171,0.8977,0.873,0.8389,0.8389,0.8336,0.8237,0.8137,0.8137,0.8137,0.8038,0.7924,0.7882,0.7882,0.7821,0.7729,0.7682,0.7665,0.7641,0.7492,0.7456,0.7395,0.7244,0.7132,0.7095,0.7095,0.7024,0.6893,0.6678,0.658,0.6545,0.6402,0.6368,0.6354,0.631,0.63,0.63,0.63,0.6096,0.5909,0.5765,0.5343,0.4924,0.4666,0.4135,0.3598,0.301,0.2514,0.2002,0.148,0.1008,0.0706,0.0573,0.0371,0.0202,0.0101,0.0034,0.0,0.0,0.0,0.0,0.0,0.0,0.0,0.0,0.0,-0.0067,-0.0202,-0.0202,-0.0337,-0.0572,-0.0774,-0.0908,-0.1009,-0.1244,-0.1444,-0.1576,-0.1879,-0.2216,-0.2586,-0.2817,-0.3153,-0.3489,1.6767,1.648,1.6328,1.6279,1.6032,1.5784,1.5784,1.5784,1.5784,1.5784,1.5784,1.5784,1.5784,1.5784,1.5784,1.5784,1.5784,1.5784,1.5784,1.5363,1.4496,1.3167,1.2877,1.2484,1.2052,1.2019,1.1873,1.1614,1.1873,1.1731,1.1243,1.1243,1.0801,1.0019,1.0019,0.9727,0.9236,0.9187,0.9031,0.8775,0.8531,0.8382,0.8382,0.8088,0.7988,0.7988,0.7988,0.7988,0.7968,0.7865,0.7814,0.7787,0.7645,0.7495,0.7419,0.7415,0.7261,0.7098,0.7095,0.7095,0.7061,0.692,0.6814,0.6661,0.6549,0.6511,0.647,0.633,0.63,0.63,0.63,0.63,0.63,0.63,0.6015,0.5728,0.5548,0.5063,0.4464,0.3788,0.3254,0.2737,0.2255,0.168,0.1244,0.1109,0.0908,0.0673,0.0337,0.0101,0.0,0.0,0.0,0.0,0.0,0.0,0.0,0.0,0.0,0.0,0.0,0.0,0.0,0.0,-0.0202,-0.0303,-0.0337,-0.0673,-0.0806,-0.0807,-0.1008,-0.1311,-0.158,-0.1576,-0.1945,-0.2383,1.7125,1.6998,1.6878,1.6613,1.6333,1.6139,1.6139,1.5965,1.5784,1.5784,1.5784,1.5784,1.5784,1.5784,1.5784,1.5784,1.5784,1.5784,1.5784,1.5689,1.5397,1.5003,1.404,1.3463,1.3318,1.3125,1.313,1.3221,1.3275,1.3227,1.3082,1.2689,1.2198,1.1565,1.1091,1.065,1.0301,0.9916,0.9723,0.962,0.913,0.8985,0.8935,0.868,0.8577,0.8577,0.8577,0.8577,0.857,0.8523,0.8361,0.8189,0.7842,0.7648,0.7509,0.745,0.7339,0.7278,0.7125,0.7095,0.7061,0.692,0.6852,0.682,0.6668,0.6549,0.6501,0.6457,0.6368,0.63,0.63,0.63,0.63,0.63,0.622,0.6113,0.6078,0.572,0.5353,0.4987,0.4504,0.3914,0.3324,0.2764,0.2263,0.1849,0.1411,0.1008,0.0673,0.0471,0.0303,0.0202,0.0067,0.0,0.0,0.0,0.0,0.0,0.0,0.0,0.0,0.0,0.0,0.0,-0.0067,-0.0101,-0.0101,-0.0202,-0.0236,-0.0269,-0.0472,-0.0605,-0.0706,-0.0806,-0.1108,-0.1478,1.7407,1.728,1.7146,1.6914,1.664,1.6406,1.6342,1.6119,1.5965,1.5798,1.5784,1.5784,1.5784,1.5784,1.5784,1.5784,1.5784,1.5784,1.5784,1.5784,1.5784,1.5784,1.5057,1.4627,1.4532,1.4292,1.4196,1.4394,1.4394,1.4346,1.4196,1.3902,1.3463,1.2926,1.2452,1.2009,1.1512,1.1228,1.0895,1.0609,1.0167,0.9871,0.9624,0.9373,0.9225,0.9126,0.9126,0.9126,0.9126,0.9126,0.8928,0.8669,0.8423,0.8093,0.7811,0.7717,0.7602,0.7428,0.7275,0.7231,0.7197,0.7004,0.6967,0.693,0.6824,0.6719,0.6617,0.6538,0.6443,0.6368,0.631,0.63,0.63,0.63,0.63,0.63,0.63,0.6141,0.5906,0.5663,0.5248,0.482,0.4268,0.3798,0.3317,0.2742,0.206,0.1604,0.14,0.1014,0.074,0.0606,0.0438,0.0269,0.0135,0.0135,0.0067,0.0,0.0,0.0,0.0,0.0,0.0,0.0,0.0,0.0,0.0,0.0,0.0,0.0,-0.0034,-0.0101,-0.0168,-0.0168,-0.0404,-0.0673,1.7582,1.742,1.7239,1.7239,1.6941,1.6653,1.6442,1.6355,1.6179,1.5905,1.5798,1.5784,1.5784,1.5784,1.5784,1.5784,1.5784,1.5784,1.5784,1.5784,1.5784,1.5784,1.5784,1.573,1.554,1.5267,1.5178,1.5178,1.5178,1.5029,1.4783,1.4783,1.449,1.4052,1.3998,1.3559,1.2877,1.2829,1.2398,1.178,1.1438,1.1047,1.0556,1.0314,1.0019,0.9826,0.9826,0.9826,0.9826,0.9776,0.9579,0.9381,0.9331,0.8882,0.8374,0.836,0.806,0.7724,0.7569,0.7517,0.7427,0.7193,0.7149,0.7061,0.6933,0.6896,0.6851,0.6569,0.6542,0.6491,0.6344,0.632,0.6313,0.6303,0.63,0.63,0.63,0.63,0.6168,0.5873,0.5676,0.5433,0.5107,0.4762,0.4287,0.3708,0.2951,0.2455,0.2422,0.1818,0.1388,0.1218,0.0979,0.0709,0.0406,0.0371,0.0236,0.0,0.0,0.0,0.0,0.0,0.0,0.0,0.0,0.0,0.0,0.0,0.0,0.0034,0.0202,0.0169,0.0034,0.0236,0.0169,0.0034,1.7582,1.7528,1.7488,1.7488,1.73,1.7085,1.7018,1.6616,1.6253,1.6186,1.5972,1.5784,1.5784,1.5784,1.5784,1.5784,1.5784,1.5784,1.5784,1.5784,1.5784,1.5784,1.5784,1.5784,1.573,1.5689,1.5642,1.5642,1.5642,1.5642,1.5547,1.5397,1.5255,1.5112,1.4729,1.4442,1.425,1.3806,1.3565,1.3323,1.264,1.2296,1.215,1.1727,1.1541,1.1487,1.1487,1.1487,1.1443,1.0998,1.0806,1.0708,1.0265,0.9895,0.9588,0.9493,0.9232,0.8926,0.8613,0.8283,0.7947,0.7733,0.7362,0.7088,0.7058,0.6964,0.6866,0.6844,0.6732,0.6607,0.6494,0.6467,0.6429,0.6317,0.63,0.63,0.63,0.63,0.6286,0.6213,0.6172,0.5997,0.5656,0.5177,0.4718,0.4323,0.4121,0.3819,0.3353,0.2867,0.2502,0.2219,0.1649,0.132,0.1251,0.102,0.0606,0.0,0.0,0.0,0.0,0.0,0.0,0.0,0.0,0.0,0.0,0.0,0.0,0.0,0.0034,0.0135,0.0236,0.027,0.027,0.0202,1.8003,1.8003,1.8003,1.8003,1.7873,1.7671,1.7432,1.7096,1.6792,1.6362,1.6139,1.5985,1.5798,1.5784,1.5784,1.5784,1.5784,1.5784,1.5784,1.5784,1.5784,1.5784,1.5784,1.5784,1.5784,1.5784,1.5784,1.5784,1.5784,1.5784,1.5784,1.5689,1.5635,1.5635,1.5356,1.5166,1.5064,1.4771,1.4532,1.4244,1.3806,1.3511,1.327,1.2985,1.2845,1.27,1.27,1.27,1.2646,1.2403,1.2209,1.2063,1.177,1.1331,1.0916,1.0858,1.0488,1.0013,0.9733,0.9328,0.8892,0.8588,0.8121,0.7633,0.72,0.7038,0.6967,0.69,0.6822,0.6763,0.661,0.658,0.6532,0.6426,0.6402,0.6378,0.631,0.63,0.63,0.63,0.63,0.6227,0.6069,0.5685,0.5343,0.5193,0.4953,0.4698,0.4365,0.3949,0.3559,0.3165,0.2728,0.2339,0.2031,0.1795,0.1429,0.0908,0.0538,0.0337,0.0236,0.0169,0.0135,0.0135,0.0034,0.0,0.0,0.0,0.0,0.0,0.0,0.0067,0.0169,0.0169,0.0202,0.027,1.8677,1.8632,1.8632,1.8632,1.8632,1.8442,1.7946,1.7811,1.7489,1.6733,1.6527,1.633,1.5986,1.5858,1.5804,1.5899,1.5811,1.5784,1.5784,1.5784,1.5784,1.5784,1.5784,1.5784,1.5784,1.5784,1.5784,1.5784,1.5784,1.5784,1.5784,1.5784,1.5784,1.5784,1.5784,1.573,1.554,1.554,1.5302,1.4879,1.4831,1.4586,1.4148,1.41,1.3956,1.3757,1.3757,1.3757,1.3757,1.3709,1.3565,1.3366,1.3366,1.2926,1.2393,1.2436,1.1901,1.1283,1.1067,1.0614,1.0082,0.9673,0.9187,0.8513,0.7652,0.7337,0.7109,0.6947,0.6923,0.6876,0.6766,0.6739,0.6688,0.6576,0.6552,0.6501,0.6358,0.6337,0.6327,0.6303,0.63,0.63,0.63,0.6099,0.598,0.598,0.5603,0.535,0.5312,0.4913,0.4528,0.4164,0.3889,0.3513,0.2944,0.2717,0.2465,0.2161,0.1521,0.1047,0.064,0.0505,0.0438,0.0438,0.0269,0.0202,0.0202,0.0135,0.0135,0.0135,0.0067,0.0067,0.0034,0.0,0.0101,0.027,1.982,1.9672,1.9524,1.9524,1.9524,1.9406,1.9109,1.865,1.8231,1.8145,1.746,1.6893,1.66,1.6129,1.5932,1.6192,1.5979,1.5784,1.5784,1.5784,1.5784,1.5784,1.5784,1.5784,1.5784,1.5784,1.5784,1.5784,1.5784,1.5784,1.5784,1.5784,1.5784,1.5784,1.5784,1.5784,1.5778,1.5778,1.5737,1.5642,1.5445,1.535,1.5255,1.5029,1.4939,1.4885,1.4885,1.4885,1.4838,1.464,1.4496,1.449,1.449,1.425,1.4046,1.4274,1.3938,1.336,1.2887,1.2294,1.1601,1.0948,1.0292,0.9669,0.9103,0.8176,0.7363,0.7115,0.7068,0.7024,0.6879,0.6856,0.6848,0.6695,0.6668,0.6617,0.6504,0.6484,0.6436,0.6313,0.63,0.63,0.63,0.6261,0.6261,0.6261,0.6202,0.6034,0.5835,0.5588,0.5348,0.5115,0.4709,0.4425,0.4336,0.4055,0.3708,0.3195,0.3092,0.2403,0.1177,0.1042,0.1008,0.0975,0.0975,0.0941,0.0941,0.0773,0.0706,0.0672,0.0371,0.027,0.0236,0.0067,0.0034,0.0034,2.1387,2.1097,2.085,2.0987,2.079,2.0498,2.0233,1.9692,1.9228,1.8898,1.8246,1.7696,1.7443,1.6897,1.6527,1.6506,1.6246,1.6079,1.6079,1.5919,1.5784,1.5784,1.5927,1.6028,1.6028,1.6028,1.6028,1.6028,1.5879,1.5784,1.5784,1.5784,1.5784,1.5784,1.5784,1.5784,1.5784,1.5784,1.5784,1.5778,1.5683,1.5683,1.5635,1.5547,1.5499,1.5499,1.5499,1.5499,1.5458,1.5356,1.5309,1.5309,1.5309,1.5159,1.501,1.5105,1.4771,1.4298,1.4052,1.3574,1.302,1.2567,1.1911,1.1232,1.0621,0.9736,0.8803,0.7908,0.7628,0.7522,0.7454,0.7443,0.7346,0.7063,0.7035,0.694,0.6661,0.66,0.6546,0.6436,0.6347,0.63,0.63,0.63,0.63,0.63,0.63,0.6261,0.6138,0.6025,0.5867,0.5628,0.5419,0.524,0.5095,0.4887,0.4613,0.428,0.4105,0.3321,0.2082,0.1914,0.1813,0.1813,0.1712,0.1644,0.1644,0.1477,0.141,0.1376,0.1009,0.0808,0.074,0.0639,0.0538,0.0437]}]]